GFSSW_prec_radar_000.txt.gz
Reflectivity
-20 -20 -20 -15 -7 -20 -20 -20 -20 -10 -18 19 -20 -6 17 12 12 -20 -20 -20 -20 -20 -20 -20 -20 -20 -20 -20 -20 -20 -20 -20 -20 -20 -20 -20 -20 -20 -20 -20 -20 -20 -20 -20 -20
-20 -20 -20 -20 -20 -13 -4 -20 -20 -14 -13 19 -10 -20 16 11 -20 -14 -20 -20 -20 -20 -20 -20 -20 -20 -20 -20 -20 -20 -20 -20 -20 -20 -20 -20 -20 -20 -20 -20 -20 -20 -20 -20 -20
-10 -18 -20 -7 -20 -20 -16 9 2 -20 12 24 14 6 13 -20 -17 -20 -20 -20 -20 -20 -20 -20 -20 -20 -20 -20 -20 -20 -20 -20 -20 -20 -20 -20 -20 -20 -20 -20 -20 -20 -20 -20 -20
-17 6 1 -20 -20 -20 -5 -16 -0 -20 -20 -20 18 20 23 1 4 -20 -20 -20 -20 -20 -17 14 -20 -20 -20 -20 -20 -20 -20 -20 -20 -20 -20 -20 -20 -20 -20 -20 -20 -20 -20 -20 -20
-20 2 -20 -20 -20 -20 -20 -20 -20 -18 -12 -16 29 6 21 17 -13 -20 -20 -20 -20 -20 -20 -9 -20 -20 -20 -20 -20 -20 -20 -20 -20 -20 -20 -20 -20 -20 -20 -20 -20 -20 -20 -20 -20
-20 -16 -20 -20 -20 -20 -20 -20 -20 -20 -20 -2 -11 23 8 -2 -20 -20 -20 -20 -20 -20 -20 17 -20 -20 -20 -20 -20 -20 -20 -20 -20 -20 -20 -20 -20 -20 -20 -20 -20 -20 -20 -20 -20
-6 6 -20 -20 -20 -20 -20 -20 -20 -20 -20 -17 23 29 8 -20 -20 -20 -20 -20 -20 -20 -20 4 -5 -20 -20 -20 -20 -20 -20 -20 -20 -20 -20 -20 -20 -20 -20 -20 -20 -20 -20 -20 -20
-4 17 -18 -20 -20 -20 -20 0 -20 -20 -20 23 1 22 -18 -20 -20 -20 -20 -20 -20 -20 -20 19 -10 -20 -3 9 -20 -20 -20 -20 -20 -20 -20 -20 -20 -20 -20 -20 -20 -20 -20 -20 -20
2 -1 1 7 0 19 7 -17 14 -10 -15 26 16 15 9 -20 -20 -20 -20 -20 -20 -20 -20 16 16 -20 11 0 -11 -20 -20 -20 -20 -20 -20 -20 -20 -20 -20 -20 -20 -20 -20 -20 -20
8 6 7 -3 5 8 22 5 24 16 18 10 16 24 -17 -20 -20 -20 -20 -20 -3 -20 1 18 25 17 -20 -8 11 -16 -20 -20 -20 -20 -20 -20 -20 -20 -20 -20 -20 -20 -20 -20 -20
-9 16 11 20 13 24 30 25 1 -20 11 -20 -20 -20 -20 -20 -20 -20 -20 -20 -6 -20 15 -7 25 14 -9 -20 -20 -20 -20 -20 -20 -20 -20 -20 -20 -20 -20 -20 -20 -20 -20 -20 -20
3 22 26 27 21 26 25 5 11 -12 -7 -20 -20 -20 -20 20 5 -20 -20 -15 4 -20 3 21 -9 -18 -20 -20 -19 -20 -20 -20 -20 -20 -20 -20 -20 -20 -20 -20 -20 -20 -20 -20 -20
12 14 30 28 28 26 23 2 23 -16 15 -16 -20 -20 -20 17 13 -20 -20 -5 5 -20 -6 14 8 -20 -20 -20 -20 -12 -20 -20 -20 -20 -20 -20 -20 -20 -20 -20 -20 -20 -20 -20 -20
19 10 27 33 33 27 18 32 31 22 35 5 -0 -20 -20 19 17 -18 -20 -14 -6 -20 -19 19 -1 18 -20 -20 -20 3 -20 -20 -20 -20 -20 -20 -20 -20 -20 -20 -20 -20 -20 -20 -20
3 18 23 35 31 27 30 34 31 28 20 -8 4 -20 -20 17 23 21 -20 -20 -5 -20 13 9 -4 31 13 -20 -20 -20 -20 -20 -19 -20 -20 -20 -20 -20 -20 -20 -20 -20 -20 -20 -20
-20 9 18 31 30 32 24 29 23 30 8 7 1 -20 -13 -20 23 -11 -18 18 2 -14 -11 24 6 27 -20 -13 -20 -20 -13 27 -11 -20 -20 -20 -20 -20 -20 -20 -20 -20 -20 -20 -20
-20 -13 9 30 35 37 33 30 33 15 30 0 -8 -5 -1 -10 24 -12 -13 -8 26 3 13 -20 -4 -20 -20 15 -6 29 9 24 -20 -20 -20 -20 -20 -20 -20 -20 -20 -20 -20 -20 -20
-20 3 9 3 34 34 35 25 2 32 5 -15 -9 -20 -15 -20 19 9 21 17 27 -20 -20 4 14 21 24 -20 -20 14 -6 -20 -20 -20 -20 -20 -20 -20 -20 -20 -20 -20 -20 -20 -20
4 -19 9 8 25 32 36 31 31 -13 17 22 9 -20 -4 24 17 24 17 22 23 -20 -3 2 14 -20 -20 -20 4 28 -6 -20 -20 -20 -20 -20 -20 -20 -20 -20 -20 -20 -20 -20 -20
-14 -9 -20 16 23 29 34 34 36 -6 -20 -0 -3 0 24 26 22 33 23 24 21 -8 -20 -20 -20 -20 -20 -18 -1 -13 -11 -20 -20 -20 -20 -20 -20 -20 -20 -20 -20 -20 -20 -20 -20
-1 -20 -14 22 29 37 34 31 29 -19 -20 -1 3 -15 -10 -15 32 6 -11 11 -1 2 -13 -20 -20 -19 -19 -16 -1 -13 -19 -20 -20 -20 -20 -20 -20 -20 -20 -20 -20 -20 -20 -20 -20
-20 -20 12 18 34 31 38 37 19 -13 14 -20 -20 -15 -20 -20 20 37 17 -7 -20 -20 -20 -20 -20 -20 -20 -20 -18 -20 -20 -20 -20 -20 -20 -20 -20 -20 -20 -20 -20 -20 -20 -20 -20
-20 -20 -3 25 31 26 33 30 11 -9 6 14 -20 -20 -9 -20 -9 -17 27 0 -20 -20 -20 -20 -20 -20 -6 -16 -20 -20 -20 -20 -20 -20 -20 -20 -20 -20 -20 -20 -20 -20 -20 -20 -20
-20 -20 5 18 3 23 26 29 29 30 24 16 -20 -19 -20 -2 -17 -16 28 -8 -20 -20 -20 -8 -20 -20 -14 -20 -20 -20 -20 -20 -20 -20 -20 -20 -20 -20 -20 -20 -20 -20 -20 -20 -20
-20 -20 -16 -20 5 -7 14 29 29 31 16 -11 2 -20 -20 -20 -20 -20 -20 -20 9 -18 -20 14 -20 -20 -20 -20 -20 -20 -20 -20 -20 -20 -20 -20 -20 -20 -20 -20 -20 -20 -20 -20 -20
-20 -20 -20 -20 -14 -13 23 32 24 24 24 -9 -20 -20 -20 -20 -20 -20 -20 -20 -20 -1 -20 11 -20 -20 -20 -20 -20 -20 -20 -20 -20 -20 -20 -20 -20 -20 -20 -20 -20 -20 -20 -20 -20
-20 -20 -20 -20 -20 -14 5 14 16 -13 17 2 -20 -20 -20 -18 -20 -20 -20 -20 -20 -19 -9 5 -12 -20 -20 -20 -20 -20 -20 -20 -20 -20 -20 -20 -20 -20 -20 -20 -20 -20 -20 -20 -20

GFSSW_prec_radar_003.txt.gz
Reflectivity
-20 -20 -20 -20 -18 -20 -20 -20 -20 -9 -19 14 21 15 19 13 13 -20 -20 -20 -20 -20 -20 -20 -20 -20 -20 -20 -20 -20 -20 -20 -20 -20 -20 -20 -20 -20 -20 -20 -20 -20 -20 -20 -20
-20 -20 -20 -20 -20 -20 -20 -20 -20 -20 -20 -8 -8 5 -20 15 -14 -10 -20 -20 -20 -20 -20 -20 -20 -20 -20 -20 -20 -20 -20 -20 -20 -20 -20 -20 -20 -20 -20 -20 -20 -20 -20 -20 -20
-20 -20 -20 -20 -20 -20 -20 -17 0 -20 -20 -20 -20 1 15 -15 9 -20 -20 -20 -20 -20 -20 -20 -20 -20 3 -20 -20 -20 -20 -20 -20 -20 -20 -20 -20 -20 -20 -20 -20 -20 -20 -20 -20
-20 -20 -20 -20 -16 -2 -19 -20 -14 12 -19 -20 -20 -17 23 -20 -9 -20 -20 -20 -20 -20 -20 -19 4 23 -20 -20 -20 -20 -20 -20 -20 -20 -20 -20 -20 -20 -20 -20 -20 -20 -20 -20 -20
-20 -20 -20 -20 -2 -8 -1 -20 -19 -20 -6 -1 -20 -20 1 -10 -7 -20 -20 -20 -20 -2 -20 -14 7 -1 -4 -20 -20 -20 -20 -20 -20 -20 -20 -20 -20 -20 -20 -20 -20 -20 -20 -20 -20
-19 -20 -20 -20 -20 -1 -20 -20 -20 -13 -1 10 15 4 -11 -1 -20 -20 -20 -20 -20 0 -20 -20 7 -20 -20 -20 -7 -20 -20 -20 -20 -20 -20 -20 -20 -20 -20 -20 -20 -20 -20 -20 -20
-20 -3 -14 -20 12 -20 -20 2 -20 -20 -20 -16 -2 -14 9 -20 -20 -20 -20 -20 -20 -20 -20 -20 -20 -20 -20 -20 -20 -20 -20 -20 -20 -20 -20 -20 -20 -20 -20 -20 -20 -20 -20 -20 -20
-13 -11 -15 -7 6 -17 -13 16 8 -11 14 -20 17 0 2 -20 -20 -20 -20 -20 -20 -20 -20 -20 6 6 -13 -20 -20 12 -10 -4 -20 -20 -20 -20 -20 -20 -20 -20 -20 -20 -20 -20 -20
-20 -20 -4 2 7 -6 11 17 -19 20 24 -4 -20 14 -20 -20 -20 -20 -20 -20 -20 -20 -20 -20 16 22 16 11 3 -13 -10 -20 -20 -20 -20 -20 -20 -20 -20 -20 -20 -20 -20 -20 -20
-20 8 -10 1 2 4 16 25 24 23 20 -11 -18 6 -20 -20 -15 -20 -20 -20 21 14 5 8 11 26 16 15 14 6 -9 -20 -20 -20 -20 -20 -20 -20 -20 -20 -20 -20 -20 -20 -20
-20 -20 1 1 16 18 21 36 25 25 5 7 -20 -20 -20 -20 -20 -20 -20 -20 -15 26 -20 -20 24 23 11 6 -20 -7 -20 -20 -20 -20 -20 -20 -20 -20 -20 -20 -20 -20 -20 -20 -20
-20 -20 13 -0 17 19 24 34 25 17 16 12 -20 -20 -20 24 -20 -20 -20 -20 5 8 -18 15 22 18 -13 9 -17 -20 -20 -20 -20 -20 -20 -20 -20 -20 -20 -20 -20 -20 -20 -20 -20
-20 -20 -3 5 22 17 22 25 28 23 23 -6 -20 -20 -20 -20 -19 -18 -20 -20 20 5 7 4 20 -19 -7 14 10 -18 -20 -20 -20 -20 -20 -20 -20 -20 -20 -20 -20 -20 -20 -20 -20
-20 -9 -10 7 23 24 28 32 30 27 35 -8 -3 -20 -20 18 -10 -9 -20 -20 20 8 5 2 29 -14 14 -2 -20 -20 -20 -20 -20 -20 -20 -20 -20 -20 -20 -20 -20 -20 -20 -20 -20
-20 -11 9 -10 20 30 21 33 35 34 17 -9 -5 -11 -20 -20 -3 -20 -20 -17 3 -1 21 27 29 9 3 -7 -20 -18 -20 -20 -20 -20 -20 -20 -20 -20 -20 -20 -20 -20 -20 -20 -20
-20 -20 5 -2 9 28 29 32 34 28 17 16 20 14 7 -15 13 26 -20 16 24 12 7 34 5 17 -20 -20 -20 -20 2 -8 -20 -20 -20 -20 -20 -20 -20 -20 -20 -20 -20 -20 -20
-9 6 14 -11 16 25 30 31 29 19 5 23 26 11 -18 -20 1 3 -20 -5 38 29 30 40 -6 -1 15 3 -7 -1 -4 -12 2 16 -20 -20 -20 -20 -20 -20 -20 -20 -20 -20 -20
-17 10 12 2 16 25 31 28 14 -2 9 23 -20 12 -17 -20 20 3 -20 -18 35 -10 -17 27 34 -20 11 36 -3 11 4 -16 -3 -20 -20 -20 -20 -20 -20 -20 -20 -20 -20 -20 -20
9 -19 13 -19 15 30 33 23 7 18 17 3 5 -17 -6 -18 23 15 -20 -17 20 -11 -3 15 15 -20 -20 6 -19 34 -5 -12 -20 -20 -20 -20 -20 -20 -20 -20 -20 -20 -20 -20 -20
-20 6 -2 -7 19 24 34 35 27 35 19 -20 -20 -20 -19 -14 32 -14 8 -8 26 -18 -20 -20 -15 -20 -20 -13 -15 -10 -20 11 -19 -20 -20 -20 -20 -20 -20 -20 -20 -20 -20 -20 -20
-14 -18 -18 16 26 28 36 32 34 33 -17 -20 -3 -7 -20 -20 27 -15 -20 12 19 7 -20 -20 -20 -20 -20 -19 -1 -20 -17 -9 6 -20 -20 -20 -20 -20 -20 -20 -20 -20 -20 -20 -20
-20 -20 12 24 25 18 22 34 27 8 -14 -18 -20 3 -20 -20 -20 -2 10 -3 -1 -12 -20 -20 -20 -20 -20 -20 -20 -20 -20 -12 -20 -20 -20 -20 -20 -20 -20 -20 -20 -20 -20 -20 -20
-20 3 24 17 15 31 27 34 18 -4 10 -16 -20 -20 -20 -9 22 9 -0 -20 -20 16 -20 -20 -20 -20 -20 -20 -20 -20 -20 -20 -20 -20 -20 -20 -20 -20 -20 -20 -20 -20 -20 -20 -20
-20 -5 19 18 5 12 34 37 26 16 13 11 -20 -20 -20 -20 -20 -20 -14 -20 -20 -20 -19 -20 -20 -20 -20 -20 -20 -20 -20 -20 -20 -20 -20 -20 -20 -20 -20 -20 -20 -20 -20 -20 -20
-20 -20 -18 9 -8 -19 30 36 31 28 35 27 0 -20 -20 -20 -20 -20 13 -20 -6 -20 12 -8 -20 -20 -20 -20 -20 -20 -20 -20 -20 -20 -20 -20 -20 -20 -20 -20 -20 -20 -20 -20 -20
-20 -20 -20 -20 -20 -20 22 38 34 31 34 13 -13 -20 -20 -20 -20 -20 -7 -20 -20 -7 -20 -20 -20 -20 -20 -20 -20 -20 -20 -20 -20 -20 -20 -20 -20 -20 -20 -20 -20 -20 -20 -20 -20
-20 -20 -20 -20 -20 -20 -5 29 32 31 26 8 -20 -20 12 -14 -20 -11 3 4 -20 -19 -20 -16 -20 -20 -1 -20 -20 -20 -20 -20 -20 -20 -20 -20 -20 -20 -20 -20 -20 -20 -20 -20 -20

GFSSW_prec_radar_006.txt.gz
Reflectivity
-20 -20 -20 -20 -20 -20 -20 -20 -20 3 -7 -3 20 11 11 18 13 3 -19 -20 -20 -20 -20 -20 -20 -20 -20 -20 -20 -20 -20 -20 -20 -20 -20 -20 -20 -20 -20 -20 -20 -20 -20 -20 -20
-20 -20 -20 -20 -20 -20 -20 -20 -20 -20 -20 -14 -5 -20 -20 14 16 14 -20 -20 -20 -20 -20 -20 -20 -11 -20 -20 -20 -20 -20 -20 -20 -20 -20 -20 -20 -20 -20 -20 -20 -20 -20 -20 -20
-20 -20 -20 -20 -20 -20 -12 -20 -20 -20 -20 -20 -20 -20 -20 5 17 -12 -20 -20 -20 -20 -20 -20 12 4 15 -20 -20 -20 -20 -20 -20 -20 -20 -20 -20 -20 -20 -20 -20 -20 -20 -20 -20
-20 -20 -20 -20 -20 -20 -20 -20 -20 -20 12 -20 -20 -20 6 12 -6 -6 -20 -20 -20 -9 -17 -20 -20 13 14 7 -20 -20 -20 -20 -20 -20 -20 -20 -20 -20 -20 -20 -20 -20 -20 -20 -20
-14 -20 -20 -20 -20 -20 -20 -20 -20 -20 -8 -20 -20 -20 13 -2 -3 -20 -20 -20 -20 -14 -14 -20 10 4 10 4 -20 -20 -20 -20 -20 -20 -20 -20 -20 -20 -20 -20 -20 -20 -20 -20 -20
-1 -20 -20 -20 -20 -20 -20 -20 -20 -20 -20 -20 9 12 5 12 -20 -20 -20 -20 -20 -20 -3 -20 -3 -20 -20 -13 11 -20 -20 -20 -20 -20 -20 -20 -20 -20 -20 -20 -20 -20 -20 -20 -20
-2 -20 -20 -20 -20 -20 -20 -20 -20 -20 -20 -8 19 -19 14 -20 -20 -20 -20 -20 -20 -20 -20 -20 -20 23 -18 18 -20 -20 -20 -20 -20 -20 -20 -20 -20 -20 -20 -20 -20 -20 -20 -20 -20
-9 10 5 -20 -20 -20 -20 -20 -20 -8 -17 -18 -2 6 -16 -20 -20 -20 -20 -20 -20 -20 -20 -20 -20 19 23 -20 -13 15 12 8 -20 -20 -20 -20 -20 -20 -20 -20 -20 -20 -20 -20 -20
-19 6 -20 12 -20 -20 -20 -20 19 -11 18 -9 -16 14 -18 -20 -20 -20 -20 -20 -20 -20 -20 -20 -0 18 2 15 20 15 7 -20 -20 -20 -20 -20 -20 -20 -20 -20 -20 -20 -20 -20 -20
-18 2 10 13 -20 -8 -18 -9 4 23 18 11 5 -13 -20 -20 -20 -20 -20 -20 -20 11 23 10 8 23 24 -15 13 10 6 -20 -20 -20 -20 -20 -20 -20 -20 -20 -20 -20 -20 -20 -20
-20 2 -20 11 13 -20 -6 -7 27 23 9 -17 -20 -20 -20 -20 -20 -20 -20 -20 -20 23 20 -5 13 19 11 12 20 -20 -20 -20 -20 -20 -20 -20 -20 -20 -20 -20 -20 -20 -20 -20 -20
-20 -2 -11 -15 17 -4 20 21 7 2 19 -14 2 -0 -10 -20 -18 -20 -20 -20 -20 -6 23 16 10 4 36 7 6 -20 -19 -20 -20 -20 -20 -20 -20 -20 -20 -20 -20 -20 -20 -20 -20
-20 -20 -20 -19 -20 -5 14 23 20 28 34 23 19 24 22 -20 -20 27 -20 -20 -20 16 35 28 7 17 33 15 24 -2 -20 -20 -20 -20 -20 -20 -20 -20 -20 -20 -20 -20 -20 -20 -20
-20 -20 -12 -20 -15 11 21 20 30 33 38 21 19 25 25 12 -11 -20 -20 -20 12 31 35 14 6 22 18 10 14 8 -20 -20 -20 12 12 -20 -20 -20 -20 -20 -20 -20 -20 -20 -20
-20 -20 12 -20 7 -6 5 27 23 35 25 6 5 12 10 -0 -20 -20 -20 -20 -7 22 35 27 25 35 17 12 -8 10 -20 -20 -19 10 -20 -20 -20 -20 -20 -20 -20 -20 -20 -20 -20
-15 -18 -20 8 9 -3 17 28 30 29 14 13 16 14 13 7 -8 -2 14 -20 14 5 10 19 18 39 6 20 16 -20 -20 -20 -20 -17 -12 -20 -20 -20 -20 -20 -20 -20 -20 -20 -20
23 4 -16 -20 1 -17 19 27 27 18 18 27 27 31 25 -2 -16 14 -2 -4 30 24 23 30 41 19 18 32 23 -1 -9 16 6 0 -13 -20 -20 -20 -20 -20 -20 -20 -20 -20 -20
23 18 -19 -20 -12 3 24 32 19 25 24 27 22 17 26 -1 8 13 5 10 29 10 12 37 30 33 4 28 31 -15 -5 -14 1 -20 -20 -20 -20 -20 -20 -20 -20 -20 -20 -20 -20
24 5 2 -6 19 9 26 23 10 22 18 29 24 16 18 11 -20 20 2 -14 12 9 27 27 30 41 13 -19 -4 13 -12 -20 -20 -20 -20 -20 -20 -20 -20 -20 -20 -20 -20 -20 -20
6 -11 -10 -12 13 25 32 27 26 28 31 -7 -20 -13 -5 -18 -12 19 -8 -8 -13 -11 30 30 35 26 23 17 10 18 -10 -20 -20 -20 -20 -20 -20 -20 -20 -20 -20 -20 -20 -20 -20
-8 -10 -20 -4 21 25 30 29 25 27 12 -20 -20 -20 -20 -20 -19 7 -20 -15 -20 -20 19 15 21 22 16 -1 14 15 20 -17 -20 -20 -20 -20 -20 -20 -20 -20 -20 -20 -20 -20 -20
-20 4 9 8 25 20 15 31 28 21 -20 -20 -20 -20 -20 -20 -15 -10 -20 -10 -20 1 -19 -20 -16 15 -19 -12 20 -4 -19 14 -5 -20 -20 -20 -20 -20 -20 -20 -20 -20 -20 -20 -20
-20 -8 26 18 22 11 16 32 31 15 -20 -20 -20 -20 -20 -20 -20 -20 -20 -10 -20 -20 -20 -20 -20 -20 21 3 -19 1 -20 -20 -20 -20 -20 -20 -20 -20 -20 -20 -20 -20 -20 -20 -20
-18 -1 26 25 2 20 35 32 33 -7 -10 12 -20 -20 -20 -20 -20 -20 -20 -20 -20 -20 -20 -20 -20 -20 -20 -20 -20 -20 -20 -20 -20 -20 -20 -20 -20 -20 -20 -20 -20 -20 -20 -20 -20
-20 -20 -14 16 2 -9 29 30 36 21 17 21 -10 -20 -20 -20 -8 -16 -19 -20 -20 -2 -0 -20 -20 -20 -20 -20 -20 -20 -20 -20 -20 -20 -20 -20 -20 -20 -20 -20 -20 -20 -20 -20 -20
-20 -20 -20 -20 -20 -10 30 27 36 28 17 25 -10 -20 -20 -20 -20 -20 -20 -20 -20 -16 -20 -20 -8 -20 -20 -20 -20 -20 -20 -20 -20 -20 -20 -20 -20 -20 -20 -20 -20 -20 -20 -20 -20
-20 -20 -20 -20 -20 -20 24 30 32 31 24 29 26 4 -15 -20 -20 1 -19 0 16 11 -5 -20 -20 -20 -20 -20 -20 -20 -20 -20 -20 -20 -20 -20 -20 -20 -20 -20 -20 -20 -20 -20 -20

GFSSW_prec_radar_009.txt.gz
Reflectivity
-20 -20 -20 -20 -20 -20 -20 -20 -20 -20 20 13 -20 -20 9 18 19 3 -19 -20 -20 -20 -20 -20 -20 -20 -20 -20 -20 -20 -20 -20 -20 -20 -20 -20 -20 -20 -20 -20 -20 -20 -20 -20 -20
-20 -20 -20 -20 -20 -20 -20 -20 -20 -20 -20 -20 -7 -6 -20 6 2 14 -20 -20 -20 -20 -20 -20 -20 -20 3 -20 -20 -20 -20 -20 -20 -20 -20 -20 -20 -20 -20 -20 -20 -20 -20 -20 -20
-20 -20 -20 -20 -20 -20 -20 -20 -20 -20 -20 -20 -20 -20 0 13 10 -11 -20 -20 -20 -20 -20 -20 -20 -4 6 -20 -20 -20 -20 -20 -20 -20 -20 -20 -20 -20 -20 -20 -20 -20 -20 -20 -20
-4 -18 -20 -20 -7 -20 -20 -20 -20 -20 -20 -20 -20 -20 -20 -8 4 -10 -20 -20 -20 -20 -18 -20 -20 -12 7 7 -20 -20 -20 -20 -20 -20 -20 -20 -20 -20 -20 -20 -20 -20 -20 -20 -20
-19 3 -1 -20 -3 -20 -20 -20 -20 -20 -20 -6 -12 -20 -8 14 -10 -20 -20 -20 -20 -4 -9 -20 -20 -20 3 -20 -20 -20 -20 -20 -20 -20 -20 -20 -20 -20 -20 -20 -20 -20 -20 -20 -20
-20 -3 -9 -20 -20 -20 -20 -20 -20 -20 -20 -20 -11 -20 4 6 -20 -20 -20 -20 -20 -20 -2 5 -20 -20 -20 -20 -20 -20 -18 -20 -20 -20 -20 -20 -20 -20 -20 -20 -20 -20 -20 -20 -20
-20 -20 -13 -20 -20 -8 -20 -20 -20 -20 -20 -20 -19 2 12 -20 -20 -20 -20 -20 -20 -20 -19 -20 -20 -20 -20 3 -20 18 -20 -20 -20 -20 -20 -20 -20 -20 -20 -20 -20 -20 -20 -20 -20
-20 -20 -9 -20 -20 -20 5 -20 -20 -20 -20 -20 -20 12 17 -20 -20 -20 -20 -20 -20 -20 -20 -20 -6 -20 -15 6 -20 -5 3 8 -20 -20 -20 -20 -20 -20 -20 -20 -20 -20 -20 -20 -20
-20 -20 -20 9 -20 -1 -20 -20 -9 5 -12 -20 -18 11 -11 -20 -20 -20 -20 -20 -20 -20 -20 -20 -16 8 4 18 12 22 10 5 -15 -20 -20 -20 -20 -20 -20 -20 -20 -20 -20 -20 -20
1 -20 -20 -20 -20 0 8 -1 13 14 13 10 10 5 -20 -20 -20 -20 -20 -20 -20 -20 -20 -16 19 14 8 16 16 9 2 -20 -20 -20 -20 -20 -20 -20 -20 -20 -20 -20 -20 -20 -20
6 -20 -20 -20 -20 16 -8 -4 10 8 16 -5 -20 -20 -20 -20 -20 -20 -20 -20 -20 -1 14 6 15 22 -20 -20 -2 15 19 -20 -20 -20 -20 -20 -20 -20 -20 -20 -20 -20 -20 -20 -20
9 -20 -20 -20 -20 17 16 12 -5 -9 9 1 -19 -20 -20 -20 -20 -20 -20 -20 -1 7 3 20 16 -20 -20 -10 22 -4 6 -20 8 -16 -20 -20 -20 -20 -20 -20 -20 -20 -20 -20 -20
-4 -20 -20 -20 -20 14 12 -20 3 18 28 18 5 8 13 2 -6 -15 -20 -12 -8 5 3 23 8 -20 -20 10 21 6 13 -19 -2 17 -20 -20 -20 -20 -20 -20 -20 -20 -20 -20 -20
-20 -20 -20 -14 -19 -20 8 -20 12 25 33 19 4 11 3 24 28 3 -5 -20 5 6 9 25 -20 28 -19 11 25 17 -19 8 -3 17 -18 -20 -20 -20 -20 -20 -20 -20 -20 -20 -20
13 -18 -2 -20 4 11 -15 -19 10 32 24 -19 12 4 4 28 13 6 3 22 14 13 21 15 -12 20 15 10 15 33 32 12 20 -17 12 -19 -20 -20 -20 -20 -20 -20 -20 -20 -20
17 14 10 13 -3 -4 -20 22 16 28 13 7 12 16 20 20 17 -7 -20 -12 0 15 35 10 21 24 -14 4 27 10 27 2 20 2 0 -20 -20 -20 -20 -20 -20 -20 -20 -20 -20
16 25 9 -10 -13 -20 -2 15 21 13 10 23 23 18 12 16 17 14 10 20 12 2 30 27 35 25 1 38 37 41 21 33 10 12 -14 -20 -20 -20 -20 -20 -20 -20 -20 -20 -20
14 25 20 9 11 -18 7 22 17 -1 6 28 30 29 32 26 16 12 18 15 3 13 41 23 19 28 12 32 41 36 33 14 1 0 -20 -20 -20 -20 -20 -20 -20 -20 -20 -20 -20
13 18 22 17 16 4 20 18 14 18 16 27 25 24 33 28 -4 -7 19 19 -4 7 39 -16 -3 2 27 17 32 8 36 13 -15 -20 -20 -20 -20 -20 -20 -20 -20 -20 -20 -20 -20
6 20 21 15 9 22 13 22 25 17 32 26 -9 -14 16 10 9 9 11 -20 -5 22 27 31 -6 23 30 19 25 29 2 -5 -20 -20 -16 -20 -20 -20 -20 -20 -20 -20 -20 -20 -20
9 15 -2 -20 11 21 8 19 24 15 25 23 -2 -20 -2 -12 -9 3 -5 -20 -5 17 30 41 34 27 38 17 37 24 23 -20 -20 -20 -10 -20 -20 -20 -20 -20 -20 -20 -20 -20 -20
12 17 -0 7 24 12 4 25 23 26 29 -5 -20 -20 -20 -20 -20 9 -19 -20 -18 23 28 34 37 43 12 12 5 35 5 -20 -20 -20 -20 -20 -19 -20 -20 -20 -20 -20 -20 -20 -20
16 8 19 5 23 12 0 30 24 13 9 -20 -20 -20 -20 -20 -20 -20 -20 -20 -17 7 25 12 22 31 19 -15 -20 -13 -5 -20 -20 -20 -20 -20 -20 -20 -20 -20 -20 -20 -20 -20 -20
17 17 23 24 14 10 17 27 25 -0 3 -20 -20 -20 -20 -20 -20 -20 -20 -18 -20 -20 16 3 4 24 -11 -20 -20 -20 -18 -20 -20 -20 -20 -20 -20 -20 -20 -20 -20 -20 -20 -20 -20
20 -6 4 20 1 -13 28 27 32 26 -3 -20 -2 -20 -20 -20 -20 -18 -20 -16 -20 -20 -20 4 -9 -20 -8 -20 -20 -20 -17 3 -20 2 -20 -20 -20 -20 -20 -20 -20 -20 -20 -20 -20
20 -20 2 -12 -9 -11 7 28 31 27 8 -6 18 -20 -20 -20 -20 -20 -20 -12 1 8 -20 -20 8 -20 -20 -20 -20 -20 -20 -20 -20 -20 -20 -20 -20 -19 -20 -20 -20 -20 -20 -20 -20
8 -20 -20 -3 9 -5 -7 18 30 27 18 -20 3 9 -17 -20 -20 -20 -20 -2 -9 -20 -20 -1 -20 -19 1 -20 -20 -20 -20 -20 -20 -20 -20 -20 -20 -20 -20 -20 -20 -20 -20 -20 -20

GFSSW_prec_radar_012.txt.gz
Reflectivity
-20 -20 -15 -3 -20 -20 -20 -20 -20 -20 -20 13 6 -20 -20 11 3 -1 -19 -20 -20 -20 -20 -20 -20 -20 -20 -20 -20 -20 -20 -20 -20 -20 -20 -20 -20 -20 -20 -20 -20 -20 -20 -20 -20
-20 -20 -20 -20 -20 -20 -20 -20 -20 -20 -20 -20 12 0 -20 -20 -20 14 -20 -20 -20 -20 -20 -20 -20 -20 -20 -20 -20 -20 -20 -20 -20 -20 -20 -20 -20 -20 -20 -20 -20 -20 -20 -20 -20
-20 -20 -20 -20 -20 -20 -20 -20 -20 -20 -20 -20 -20 -9 -19 -20 -7 -19 -20 -20 -20 -20 -20 -20 -20 -20 -11 -20 -20 -20 -20 -20 -20 -20 -20 -20 -20 -20 -20 -20 -20 -20 -20 -20 -20
-20 -20 -20 -20 -20 -20 -20 -20 -20 -20 -20 -20 -20 -20 -20 -20 -10 -20 -20 -20 -20 3 -17 -20 -20 -20 4 -20 -20 5 -20 -20 -20 -20 -20 -20 -20 -20 -20 -20 -20 -20 -20 -20 -20
-20 -20 -20 -20 -20 -20 -20 -20 -20 -20 -20 -20 -20 -20 -20 -11 -15 -20 -20 -20 -20 -20 -4 -20 -4 -20 -20 -20 -20 -20 -20 -20 -20 -20 -20 -20 -20 -20 -20 -20 -20 -20 -20 -20 -20
-20 -20 -20 -20 -20 -17 -20 -20 -20 -20 -20 -20 -20 1 -20 -6 -20 -20 -20 -20 -20 -11 -20 -13 0 -20 -20 -20 8 -20 -20 -20 -20 -20 -20 -20 -20 -20 -20 -20 -20 -20 -20 -20 -20
-20 -20 -20 -20 -20 -20 -20 -20 -20 -20 -20 8 -19 -20 8 -20 -20 -20 -20 -20 -20 -20 -10 -14 -20 13 -20 -20 -20 -18 13 -20 -20 -20 -20 -20 -20 -20 -20 -20 -20 -20 -20 -20 -20
-20 -20 -20 -20 -20 -20 -20 -20 -20 -20 -13 3 -20 2 -11 -20 -20 -20 -20 -20 -20 -20 -20 -20 5 -20 -18 1 -5 17 6 -1 -20 -19 -20 -20 -20 -20 -20 -20 -20 -20 -20 -20 -20
-20 -20 -20 2 0 -20 -2 -20 -20 -20 19 2 -20 6 -18 -20 -20 -20 -20 -20 -20 -20 -20 -20 -20 -20 -0 -6 12 -10 -20 -20 -20 -20 -20 -20 -20 -20 -20 -20 -20 -20 -20 -20 -20
-20 -20 12 -20 12 -1 12 -20 -20 -20 -1 12 -20 10 -20 -20 -20 -20 -20 -20 -20 -20 -20 -20 -7 6 -9 12 -4 -16 -0 -20 -20 -20 -20 -20 -20 -20 -20 -20 -20 -20 -20 -20 -20
-20 -20 -10 -20 -20 17 -12 -20 -20 -8 13 -15 -20 -20 -20 -20 -20 -20 -20 -20 -20 -20 -0 -5 8 6 -20 -20 -20 -20 9 11 -20 -20 -20 -20 -20 -20 -20 -20 -20 -20 -20 -20 -20
-20 -20 -20 -20 -18 2 17 -1 -20 -20 4 14 -4 -10 -20 -19 -20 -20 -20 -17 -1 5 -4 -11 -7 -20 -20 -20 -20 -20 -16 0 -18 -11 6 -20 -20 -20 -20 -20 -20 -20 -20 -20 -20
-20 -20 -20 -20 -12 12 -9 -20 -20 -20 17 20 -6 -11 -19 10 -15 -20 -20 -20 -20 -2 2 -3 -20 -20 -20 0 8 -4 -16 -20 -7 2 15 -20 -20 -20 -20 -20 -20 -20 -20 -20 -20
1 -20 -20 -14 -4 -20 10 -16 0 -3 30 1 1 -3 -20 18 9 -20 10 -14 -8 -13 -1 14 -14 -16 1 -8 -1 5 -20 -19 -1 30 14 -20 -20 -20 -20 -20 -20 -20 -20 -20 -20
4 6 -17 -18 12 -9 -15 -20 -20 13 12 -20 1 3 -11 -7 -3 -17 13 32 17 -20 -7 -1 -20 -20 15 -20 -18 -16 8 2 12 25 24 -20 -19 -20 -20 -20 -20 -20 -20 -20 -20
12 4 -3 8 -18 -12 -20 -20 -3 15 -2 -10 -5 11 13 13 3 14 1 19 24 17 14 -20 7 8 -20 -18 -4 -15 5 2 34 34 20 37 -11 -20 -20 -20 -20 -20 -20 -20 -20
16 -11 16 1 -7 4 -20 -20 8 4 -20 5 5 5 3 9 9 17 27 18 15 8 8 16 5 -20 1 24 -18 19 19 21 34 29 27 -12 -15 -20 -20 -20 -20 -20 -20 -20 -20
19 9 27 14 18 14 -10 -9 -5 -15 -20 13 14 13 20 12 15 31 35 6 12 -9 19 -1 -20 -20 2 -7 -8 13 16 42 18 28 -17 -20 -19 -20 -20 -20 -20 -20 -20 -20 -20
18 25 24 14 12 26 10 3 -2 1 6 26 29 27 -0 16 28 23 11 3 -20 -6 -5 -4 15 9 -20 -7 25 -3 37 40 36 15 -20 -20 -20 -20 -20 -20 -20 -20 -20 -20 -20
19 28 4 2 25 31 21 -11 2 3 21 30 23 -8 -7 4 2 0 13 -20 -17 9 7 13 31 26 32 18 17 11 27 42 6 -12 4 -14 -20 -20 -20 -20 -20 -20 -20 -20 -20
7 27 16 26 28 30 21 -1 -15 13 27 26 -8 -8 -13 -20 -20 -15 -20 -20 -3 -20 12 27 28 22 -2 24 29 35 39 27 25 29 -1 -20 -20 -20 -20 -20 -20 -20 -20 -20 -20
18 23 10 19 29 23 12 -17 15 26 24 26 8 -20 -20 6 -20 -17 -20 22 -3 -19 18 24 27 25 -3 5 20 35 25 -20 10 18 13 -20 -20 -20 -20 -20 -20 -20 -20 -20 -20
27 19 26 16 24 4 -13 8 24 32 21 20 -20 -20 -20 16 -8 -20 -20 1 8 14 3 33 30 18 32 26 35 40 37 -16 -18 12 12 -20 -20 -20 -20 -20 -20 -20 -20 -20 -20
19 24 28 31 6 6 4 12 23 29 19 13 -20 -20 -20 -20 -20 -8 -13 4 5 16 23 35 16 38 37 3 11 5 -20 -20 -20 -20 -20 -20 -20 -20 -20 -20 -20 -20 -20 -20 -20
18 17 9 20 -1 -5 18 13 26 33 23 1 -20 -20 -20 -20 -1 -20 -19 -10 -14 -18 12 28 38 39 31 -11 8 17 11 16 -17 -20 -20 -20 -20 -20 -20 -20 -20 -20 -20 -20 -20
23 7 25 14 -20 -20 -2 9 17 32 33 13 -20 -10 -20 -20 -20 -20 -4 -7 -19 -7 -2 1 9 1 10 -20 -20 -20 -20 -20 -20 -20 -20 -20 -20 -20 -20 -20 -20 -20 -20 -20 -20
18 2 5 9 10 -2 -5 -3 10 33 27 24 -2 -20 -20 -20 9 -20 11 -20 18 -5 -20 -20 -16 -20 -20 -20 -20 -20 -20 -20 -19 -20 -20 -20 4 -19 -20 -20 -20 -20 -20 -20 -20

GFSSW_prec_radar_015.txt.gz
Reflectivity
-20 -20 -20 -20 -20 -20 -20 -20 -20 -20 -20 -9 8 5 4 -10 -7 -12 -20 -20 -20 -20 -20 -20 -20 -20 -20 -20 -20 -20 -20 -20 -20 -20 -20 -20 -20 -20 -20 -20 -20 -20 -20 -20 -20
-20 -20 -20 -20 -20 -20 -20 -20 -20 -20 -20 -20 6 3 18 11 -20 -11 -20 -20 -20 -20 -20 -20 -20 -20 -20 -20 -20 -20 -20 -20 -20 -20 -20 -20 -20 -20 -20 -20 -20 -20 -20 -20 -20
-20 -20 -20 -20 -20 -20 -20 -20 -20 -20 -20 -20 -20 -20 -16 13 -1 -20 -20 -20 -20 -18 -20 -20 -20 -20 -20 -20 -20 -20 -20 -20 -20 -20 -20 -20 -20 -20 -20 -20 -20 -20 -20 -20 -20
-20 -20 -12 -18 -20 -20 -20 -20 -20 -20 -20 -18 -5 -20 -20 3 -20 -20 -20 -20 -20 -5 -20 -20 -20 -20 -20 -20 -20 -4 -20 -20 -20 -20 -20 -20 -20 -20 -20 -20 -20 -20 -20 -20 -20
-20 -20 -20 -10 -14 -20 -20 -20 -20 -20 -20 -10 -9 1 -13 -11 -11 -20 -20 -20 -20 -20 -20 -20 -20 -20 -20 -20 -20 -20 -20 -20 -20 -20 -20 -20 -20 -20 -20 -20 -20 -20 -20 -20 -20
-20 -20 -20 -20 -1 -20 -20 -20 -20 -20 -20 -20 -20 0 -11 -9 -20 -20 -20 -20 -20 -20 -20 -12 -19 -20 -10 -20 -20 -20 -20 -20 -20 -20 -20 -20 -20 -20 -20 -20 -20 -20 -20 -20 -20
-18 10 -20 -20 -20 -20 -20 -11 -20 -20 -20 -20 -20 -20 -8 -20 -20 -20 -20 -20 -20 -20 -20 -13 7 15 5 -20 -20 -20 -20 -20 -20 -20 -20 -20 -20 -20 -20 -20 -20 -20 -20 -20 -20
16 -20 -20 -20 -20 -20 -20 -20 7 -20 -20 -20 -20 -20 -18 -20 -20 -20 -20 -20 -20 -20 -20 -20 -20 -20 -9 -20 -20 -20 2 -18 -20 -20 -20 -7 -20 -20 -20 -20 -20 -20 -20 -20 -20
13 -20 -11 -20 -20 11 -20 -12 -20 -20 -20 -20 -20 -15 -20 -20 -20 -20 -20 -20 -20 -20 -20 -20 -20 -7 -19 6 3 -18 -12 -9 -20 -20 -20 0 -20 -20 -20 -20 -20 -20 -20 -20 -20
14 10 -20 7 -20 -20 14 1 -20 -20 -20 -0 -20 -11 -20 -20 -20 -20 -20 -20 -20 -20 -20 -20 -20 -20 -20 15 8 -5 -14 -19 -16 -20 -20 11 2 -20 -20 -20 -20 -20 -20 -20 -20
22 6 19 -2 -20 -20 -20 -20 -20 -20 17 -20 -20 -20 -20 -20 -20 -20 -20 -20 -20 -20 -20 -20 -20 4 -20 -20 -20 -20 -20 -2 -20 -20 -20 -20 -20 -20 -20 -20 -20 -20 -20 -20 -20
19 -10 -13 10 -20 -20 -20 -11 -20 -20 -20 -20 -20 -20 -20 -20 -20 -20 -20 -20 -4 -20 -20 -5 -10 -20 -20 -20 -14 -20 -20 -20 -20 -20 6 -4 -20 -20 -20 -20 -20 -20 -20 -20 -20
4 20 8 13 -17 -4 -20 -20 -20 -20 -20 -5 -20 -20 -20 -20 -9 -17 -20 -20 -20 1 -20 -20 -20 -20 -20 -19 -1 -10 -20 -20 -20 -20 -20 15 -8 -20 -20 -20 -20 -20 -20 -20 -20
12 21 13 -13 -2 -20 -17 -20 -20 -18 10 -5 -19 -16 -17 -10 -2 -20 -4 -16 15 -18 -20 -9 -20 -20 -20 -20 -7 -4 -20 -20 -20 -4 5 23 11 -20 -20 -20 -20 -20 -20 -20 -20
-6 20 12 -20 -20 -20 -20 -20 -19 2 -20 -20 -6 -20 -20 5 1 -20 -14 24 14 -15 10 -15 -20 -20 -20 -20 -19 -17 -20 -20 -19 -19 11 18 18 -20 -20 -20 -20 -20 -20 -20 -20
21 20 12 -3 -20 -20 -20 -20 -20 -18 -20 -20 -20 3 8 2 6 8 -5 6 22 32 33 9 -20 -19 -20 -20 -20 -20 -20 -20 7 15 20 12 4 -18 -20 -20 -20 -20 -20 -20 -20
23 22 10 -20 -20 -20 -20 -20 -17 -15 -20 -4 -12 -2 -8 1 -1 18 14 20 31 24 29 24 -12 -14 -20 -8 -20 6 14 12 11 22 -5 -3 30 36 -20 -20 -20 -20 -20 -20 -20
25 24 27 16 26 9 -4 -20 -20 -20 -20 -20 -19 -20 8 -20 13 15 13 26 26 39 18 12 -14 -20 -20 -17 -20 -20 -17 5 1 -6 -18 23 15 26 -20 -20 -20 -20 -20 -20 -20
26 23 32 15 27 19 10 -5 -20 -20 -20 -20 0 22 17 9 -9 12 -4 31 -20 26 -20 -20 -18 -20 -20 -20 -20 -19 13 -20 -4 -16 28 7 28 17 -17 -20 -20 -20 -20 -20 -20
40 27 29 -3 22 20 17 6 -20 -20 -20 -12 16 16 -19 -18 3 11 -9 -19 -20 -20 -20 -18 -5 6 21 14 -7 16 -6 6 32 -3 -10 33 8 -20 -20 -20 -20 -20 -20 -20 -20
35 15 29 12 29 30 11 -17 -20 -20 -20 13 19 25 -6 -20 -20 -20 -20 -20 -20 -20 -20 -20 8 20 35 37 -5 -6 24 11 25 2 19 -5 -9 -20 -20 -20 -20 -20 -20 -20 -20
26 8 24 37 33 28 8 -20 -20 -20 19 24 24 13 -14 -20 -20 -20 -20 -20 -11 -7 -9 -3 14 14 24 15 15 8 25 12 30 36 39 -13 -20 -20 -20 -20 -20 -20 -20 -20 -20
26 26 26 23 31 17 -15 -20 -7 8 14 26 18 -9 -20 -2 -20 -20 -16 -13 -20 4 23 17 24 -12 5 22 12 8 6 14 31 42 1 -20 -20 -20 -20 -20 -20 -20 -20 -20 -20
2 21 34 31 24 -20 -20 -8 -6 7 19 29 19 -4 -20 -20 -20 -20 -20 -2 -0 18 32 32 34 16 -12 5 2 11 -19 18 33 45 11 -20 -20 -20 -20 -20 -20 -20 -20 -20 -20
-20 24 14 25 18 -14 -17 -0 1 22 17 32 16 -17 -20 -20 -20 -20 -20 -20 -8 14 28 37 38 35 20 7 6 16 23 36 38 19 18 -19 -14 -20 -20 -20 -20 -20 -20 -20 -20
-20 7 -7 -20 -15 0 6 12 -5 4 26 26 25 -20 -20 -20 -20 -20 -20 -20 -10 -20 -20 28 38 35 34 -7 21 18 32 9 13 15 -6 -8 -18 -20 -20 -20 -20 -20 -20 -20 -20
-20 -12 11 -14 -20 -6 -10 -20 -20 16 16 29 29 -6 -20 -20 -17 -20 -20 -20 -17 5 7 25 26 32 31 28 24 24 6 -16 -20 -16 2 -16 -20 -20 -20 -20 -20 -20 -20 -20 -20

GFSSW_prec_radar_018.txt.gz
Reflectivity
-20 -20 -20 -20 -20 -20 -20 -20 -20 -20 -20 -20 -6 -4 17 18 16 -18 -20 -20 -20 -20 -20 -20 -20 -20 -20 -20 -20 -20 -20 -20 -20 -20 -20 -20 -20 -20 -20 -20 -20 -20 -20 -20 -20
-20 -20 -20 -20 -20 -20 -20 -20 -20 -20 -20 -20 -20 -5 -8 9 -19 -10 -20 -20 -20 -20 -20 -20 -20 -20 -20 -20 -20 -20 -20 -20 -20 -20 -20 -20 -20 -20 -20 -20 -20 -20 -20 -20 -20
-20 -20 -20 0 -20 -20 -20 -20 -20 -20 -20 -20 -20 -20 -19 -20 -5 -15 -20 -20 -20 -19 -20 -20 -20 -20 -20 -20 -20 -20 -20 -20 -20 -20 -20 -20 -20 -20 -20 -20 -20 -20 -20 -20 -20
6 -20 -20 -5 -20 -20 -20 -20 -20 -20 -20 -20 -13 -20 -20 -20 -20 -20 -20 -20 -20 4 -16 -20 -20 -20 -20 -20 -20 -20 -20 -20 -20 -20 -20 -20 -20 -20 -20 -20 -20 -20 -20 -20 -20
10 -20 -20 -20 2 -20 -20 -20 -20 -20 -20 -20 -20 -20 -20 -20 -20 -20 -20 -20 -20 -12 -3 -20 -20 -20 -20 -20 -20 -20 -20 -20 -20 -20 -20 -20 -20 -20 -20 -20 -20 -20 -20 -20 -20
12 4 -20 -20 -16 -20 -20 -20 -20 -20 -20 -20 -20 -20 -20 -20 -20 -20 -20 -20 -20 -20 -20 -10 -20 -20 -20 -20 -20 -20 -20 -20 -20 -20 -20 -20 -20 -20 -20 -20 -20 -20 -20 -20 -20
18 9 -10 -20 -20 -20 -20 -20 -20 -20 -20 -20 -20 -20 2 -20 -20 -20 -20 -20 -20 -20 -20 -20 -20 -20 -5 -20 -20 -20 -20 -20 -20 -20 -20 -20 -20 -20 -20 -20 -20 -20 -20 -20 -20
11 11 0 -18 -20 -20 -20 -13 8 -20 -20 -20 -20 -15 -20 -20 -20 -20 -20 -20 -20 -20 -20 -20 -20 15 -20 -6 -20 -20 -20 -20 -20 -20 -20 -20 -20 -20 -20 -20 -20 -20 -20 -20 -20
19 12 20 -20 -20 -20 -16 13 -20 -20 -20 -9 -20 -20 -20 -20 -20 -20 -20 -20 -20 -20 -20 -20 -20 -20 -20 15 2 -20 -20 -20 -20 -20 -20 -20 -20 -20 -20 -20 -20 -20 -20 -20 -20
12 15 13 11 -18 -20 6 26 6 -20 -20 4 -1 -9 -20 -20 -20 -20 -20 -20 -20 -20 -20 -20 -20 -20 -20 -12 -7 -20 -20 -20 -20 -20 -20 -20 -20 -20 -20 -20 -20 -20 -20 -20 -20
-15 23 22 21 3 -20 6 -20 -20 -20 7 -20 -20 -20 -20 -20 -20 -20 -20 -20 -20 -20 -20 -20 -20 -20 -20 -20 -20 -20 -20 -20 -20 3 -20 -20 -20 -20 -20 -20 -20 -20 -20 -20 -20
15 4 20 17 15 1 -20 -20 -20 -20 -20 -20 -20 -20 -20 -20 -20 -20 -20 -20 -20 -17 -20 -3 -4 -20 -20 -20 -20 -20 -20 -20 -20 -20 -5 -20 -20 -20 -20 -20 -20 -20 -20 -20 -20
18 -3 11 13 18 14 -18 -20 -20 -20 -15 -20 -20 -9 -20 -9 -13 -20 -20 -20 -20 -11 4 -20 -20 -20 -20 -20 -17 -20 -20 -20 -20 -20 -20 -20 -20 -20 -20 -20 -20 -20 -20 -20 -20
21 20 19 16 15 -20 4 -20 -20 -20 -14 -20 -16 9 -15 9 -16 -18 -11 -19 7 -14 -20 -9 -20 -20 -19 1 -20 -20 -20 -20 -4 8 -4 9 4 -20 -20 -20 -20 -20 -20 -20 -20
29 25 21 8 -20 -20 -20 -20 -20 -18 -20 -20 -20 -20 8 9 -19 -20 -20 -4 8 -4 -5 -3 -20 -20 -20 -20 -20 -20 -20 -20 8 12 13 -20 -3 -20 -20 -20 -20 -20 -20 -20 -20
33 27 14 6 -17 -20 -20 -20 -15 -12 -20 1 -20 -19 -5 -10 8 -20 -18 3 23 26 11 -15 -20 -18 -20 -20 -20 3 9 5 4 17 10 -20 -14 -20 -20 -20 -20 -20 -20 -20 -20
36 29 2 8 -20 -20 -20 -5 -20 -20 -20 4 -14 -15 -20 -8 -8 -20 -13 18 27 18 18 30 15 -16 -14 -3 11 11 16 11 -20 7 -20 -20 -20 -20 -20 -20 -20 -20 -20 -20 -20
34 34 20 -17 14 14 -16 -4 -20 -20 -20 -20 -12 -16 -19 -20 8 8 17 9 -2 31 28 -1 12 16 -20 -17 9 10 10 -15 -20 -20 -20 -20 -20 -20 -20 -20 -20 -20 -20 -20 -20
36 36 25 22 -19 -8 20 -1 -20 -20 -20 -20 2 -6 6 -19 -15 9 -5 4 -20 6 -0 -7 -3 16 21 -4 19 7 16 -1 -20 -20 5 -20 -20 -20 -20 -20 -20 -20 -20 -20 -20
43 38 35 7 4 24 27 -19 -20 -20 -20 -20 -20 -13 -20 -20 2 5 -3 -20 -16 -17 -20 5 -13 -20 -20 -20 -10 -8 -3 7 11 -3 -14 -20 -20 -20 -4 -18 -20 -20 -20 -20 -20
39 26 34 24 19 34 26 -13 -20 -20 -20 -20 -12 3 -20 -20 -20 -20 -20 -20 -20 -20 -20 -20 -20 -20 -20 -20 -20 -17 10 12 -20 -20 14 4 -20 9 4 15 -6 -20 -20 -20 -20
42 47 23 25 34 28 17 -20 -20 -20 -20 -20 -12 9 6 -20 -20 -20 -20 -20 -20 -20 -20 -20 -8 17 19 19 19 29 -20 -20 7 -6 -20 2 2 13 15 -1 16 19 10 -20 -20
40 38 36 30 22 15 1 -20 -11 -19 -12 8 7 6 -20 -20 -20 -20 -20 -20 -20 -20 -18 -1 26 14 8 18 28 28 16 -16 9 -20 -17 13 1 -3 4 -18 -5 -20 -20 -20 -20
33 37 27 38 19 14 -6 2 -4 -19 -0 14 22 12 -1 -20 -20 -20 -20 -20 -20 -1 17 27 24 14 23 37 13 16 -8 -20 -18 -20 -12 28 13 19 -20 -20 -20 -20 -20 -20 -20
36 27 14 26 25 2 -4 -5 -20 1 3 19 17 4 -7 -9 -20 -20 -20 -20 -20 5 26 36 21 32 34 18 40 7 -0 7 20 23 23 17 23 17 -6 -6 -20 -20 -20 -20 -20
37 17 -20 -20 -15 -20 -2 -12 -11 -8 3 23 12 5 -14 -16 -20 -20 -20 -20 -20 3 23 31 21 36 32 -9 11 14 -4 12 14 17 27 37 42 15 -15 -20 -20 -20 -20 -20 -20
29 -20 -20 -20 -20 -16 -5 -14 -15 -8 -15 18 17 14 -19 -20 -20 -20 -20 -20 -20 -19 20 31 33 38 26 36 21 20 11 15 19 24 32 36 34 7 1 -20 -20 -20 -20 -20 -20

GFSSW_prec_radar_021.txt.gz
Reflectivity
-20 -20 -20 -20 -10 -20 -20 -20 -20 -20 -11 -20 -20 -16 14 10 -11 14 -19 -20 -20 -20 -20 -20 -20 -20 -20 -20 -20 -20 -20 -20 -20 -20 -20 -20 -20 -20 -20 -20 -20 -20 -20 -20 -20
-1 -18 -20 -20 -20 -20 -20 -20 -20 -20 -20 -20 -20 -20 -6 10 -17 7 -20 -20 -20 -20 -20 -20 -20 -20 -20 -20 -20 -20 -20 -20 -20 -20 -20 -20 -20 -20 -20 -20 -20 -20 -20 -20 -20
4 10 -20 -20 3 -10 -20 -20 -20 -20 -20 -20 -20 -20 -20 -19 -20 -20 -20 -20 9 9 -20 -20 -20 -20 -20 -20 -20 -20 -20 -20 -20 -20 -20 -20 -20 -20 -20 -20 -20 -20 -20 -20 -20
-8 14 -11 -20 1 -6 -20 -20 -20 -20 -20 -20 -20 -20 -20 -20 -20 -20 -20 -20 -20 21 -20 -20 -20 -20 -20 -20 -20 -20 -20 -20 -20 -20 -20 -20 -20 -20 -20 -20 -20 -20 -20 -20 -20
21 -1 14 -20 -20 7 -20 -20 -20 -20 -20 -20 -20 -20 -20 -20 -20 -20 -20 -20 -20 10 1 -20 -20 -20 -20 -20 -20 -20 -20 -20 -20 -20 -20 -20 -20 -20 -20 -20 -20 -20 -20 -20 -20
3 22 11 -3 -20 -15 7 -20 -20 -20 -20 -20 -20 -20 -20 -20 -20 -20 -20 -20 -20 -18 -5 -12 -20 -20 -20 -20 -20 -20 -20 -20 -20 -20 -20 -20 -20 -20 -20 -20 -20 -20 -20 -20 -20
-20 1 -7 13 -20 -20 7 -20 -20 -20 -20 -20 -20 -20 -20 -20 -20 -20 -20 -20 -20 -20 -20 -20 -20 5 8 -13 -20 -20 -20 -20 -20 -20 -20 -20 -20 -20 -20 -20 -20 -20 -20 -20 -20
17 17 21 21 9 -20 -20 -3 14 -17 -20 -20 -20 -20 -20 -20 -20 -20 -20 -20 -20 -20 -20 -20 6 9 3 -16 -20 -20 -20 -20 -20 -20 -20 -20 -20 -20 -20 -20 -20 -20 -20 -20 -20
11 16 1 20 17 -20 -20 -20 13 2 -20 5 -20 -20 -20 -20 -20 -20 -20 -20 -20 -20 -20 -20 -20 -20 -19 -13 5 -20 -14 -20 -20 -20 -20 -20 -20 -20 -20 -20 -20 -20 -20 -20 -20
22 5 19 23 16 6 -20 9 21 -20 -13 -0 11 -20 -20 -20 -20 -20 -20 -20 -20 -20 -20 -20 -20 -12 -8 10 -17 -19 -20 -20 -20 -20 -20 -20 -20 -20 -20 -20 -20 -20 -20 -20 -20
29 5 16 27 -16 22 -14 13 -15 -20 -20 -20 -20 -20 -20 -20 -20 -20 -20 -20 -20 -20 -20 -20 -20 -18 -20 -20 -20 -20 -20 -20 -20 -20 -20 -20 -20 -20 -20 -20 -20 -20 -20 -20 -20
28 27 21 22 21 13 2 -20 -20 -20 -20 -20 -20 -20 -20 -20 -20 -20 -20 -20 -20 -20 -20 -15 -20 -20 -20 -20 -20 -20 0 -13 -20 -20 -20 -20 -20 -20 -20 -20 -20 -20 -20 -20 -20
23 22 28 26 20 14 -6 -20 -20 -20 -20 -20 -20 -20 -20 -20 -13 -20 -20 -20 -20 -20 -20 -20 -20 -20 -20 -20 -20 -20 -12 -17 -20 -20 -20 -20 -20 -20 -20 -20 -20 -20 -20 -20 -20
11 28 33 28 23 16 5 -20 -20 -20 -20 -20 -18 -18 1 10 2 -20 -20 -20 -17 -20 -20 3 -20 -20 -20 -20 -20 -20 -20 -20 -20 5 -6 -20 -15 -20 -20 -20 -20 -20 -20 -20 -20
8 35 38 32 3 -11 -12 -20 -20 -20 -20 -20 3 -20 10 -3 -20 -20 -20 -19 -11 -19 -18 -14 -20 -20 -20 -20 -20 -20 -20 -20 3 -20 -15 -20 4 -20 -20 -20 -20 -20 -20 -20 -20
0 33 38 35 13 -16 -20 -20 -12 -20 -20 -19 -16 -6 6 5 6 -15 -20 11 6 16 -3 -19 -20 -20 -20 -20 -20 1 -10 -1 2 6 6 -20 -20 -20 -20 -20 -20 -20 -20 -20 -20
3 35 38 37 6 18 -20 -20 -12 -20 -20 -1 -18 -11 -20 -19 -13 -6 -20 11 13 21 6 19 7 5 -20 -20 5 14 16 15 15 11 -15 -20 -20 -20 -20 -20 -20 -20 -20 -20 -20
-19 31 35 39 23 16 -20 -20 -20 -20 -20 -20 -20 -20 -20 -20 -10 7 10 -4 2 20 19 3 -18 -3 -6 -20 -18 -10 7 14 -7 -20 -20 -20 -20 -20 -20 -20 -20 -20 -20 -20 -20
-9 24 33 42 27 -10 -6 3 -20 -20 -20 -20 -20 -0 -20 -16 -11 3 6 -20 -20 -20 -1 -11 -20 -20 -20 -20 -19 27 19 16 7 7 10 -20 -20 -20 -20 -20 -20 -20 -20 -20 -20
-1 26 40 26 17 -19 -8 -20 -20 -20 -20 -20 -20 -20 -20 -14 -1 -13 -16 -20 -20 -20 -15 -13 -10 -20 -20 -17 26 26 10 14 26 9 -7 -20 -20 -20 -20 -20 -20 -20 -20 -20 -20
30 38 38 25 8 31 27 -20 -20 -20 -20 -20 -20 -20 -20 -20 -20 -20 -20 -20 -20 -20 -20 6 -8 -20 -18 -7 -20 7 11 -10 -15 -20 -7 -14 -20 -20 -20 -20 -20 -20 -20 -20 -20
35 34 37 34 31 19 17 -20 -20 -20 -20 -20 -20 -20 -1 -20 -20 -20 -20 -20 -20 -20 -20 -20 -8 -14 6 -1 -19 -20 -20 -4 3 -20 -20 -20 -20 -20 -20 -20 -14 -20 3 -20 -20
36 36 37 38 16 25 16 -20 -20 -12 -20 -17 -15 -1 -7 8 -11 -20 -20 -20 -20 -20 -20 -10 20 8 11 18 26 28 -9 -16 -20 14 -20 -20 -3 -18 -12 4 7 -20 -11 -20 -12
25 37 41 35 22 -20 -14 -6 -13 -20 -20 -9 3 24 23 -7 1 -20 -20 -20 -20 -20 -10 11 27 19 18 28 29 13 5 -14 -7 4 -20 -20 -1 15 5 14 16 23 -1 10 -20
14 32 32 35 25 -20 -20 2 -1 6 -20 -3 20 14 20 0 -20 -20 -20 -20 -20 -18 6 33 22 29 35 34 35 23 -10 -16 -1 -20 -8 8 5 8 9 19 0 16 3 -17 -20
37 21 1 -4 -20 4 8 4 -20 -20 17 6 19 19 -4 12 -20 -20 -20 -20 -20 12 28 31 28 36 19 11 11 19 2 -13 -13 -20 -10 10 19 23 17 18 1 -0 7 -17 -20
25 12 22 4 -3 2 -11 -20 -19 -3 -12 -18 8 25 6 13 -12 -20 -20 -20 -1 12 24 24 32 34 28 15 -2 18 -2 -2 -8 6 0 13 25 35 -7 -20 -2 8 6 -20 -20

GFSSW_prec_radar_024.txt.gz
Reflectivity
6 -19 -20 -20 -20 -20 -20 -20 -20 -20 -18 -9 -16 -7 -20 19 26 15 -19 -20 -20 -20 -20 -20 -20 -20 -20 -20 -20 -20 -20 -20 -20 -20 -20 -20 -20 -20 -20 -20 -20 -20 -20 -20 -20
14 -13 -20 -20 -20 -7 -20 -20 -20 -6 -20 -20 -20 -20 2 7 16 17 6 -20 -20 -20 -20 -20 -20 -20 -20 -20 -20 -20 -20 -20 -20 -20 -20 -20 -20 -20 -20 -20 -20 -20 -20 -20 -20
-19 -18 -4 -14 -20 -20 -15 -20 -20 -20 -20 -20 -20 -20 -18 3 -20 -20 -20 -20 10 20 -20 -20 -20 -20 -20 -20 -20 -20 -20 -20 -20 -20 -20 -20 -20 -20 -20 -20 -20 -20 -20 -20 -20
15 20 -19 -15 -20 -20 -20 -20 -20 -20 -20 -20 -2 -20 -20 -20 -20 -20 -20 -20 -20 -20 -16 -20 -20 -20 -20 -20 -20 -20 -20 -20 -20 -20 -20 -20 -20 -20 -20 -20 -20 -20 -20 -20 -20
-2 -10 22 -20 2 -20 -20 -20 -20 -20 -20 -20 3 8 -20 -20 -20 -20 -20 -20 -20 4 -2 -10 -20 -20 -20 -20 -20 -20 -20 -20 -20 -20 -20 -20 -20 -20 -20 -20 -20 -20 -20 -20 -20
3 3 -20 23 -1 -20 -20 -20 -20 -20 -20 -20 -20 -4 -20 -20 -20 -20 -20 -20 -20 -5 -1 -20 -20 -20 -20 -20 -20 -20 -20 -20 -20 -20 -20 -20 -20 -20 -20 -20 -20 -20 -20 -20 -20
16 19 -20 -17 16 8 -20 -20 -20 -20 -20 -20 0 -20 -20 -20 -20 -20 -20 -20 -20 -20 -19 -17 -20 -20 1 -20 -20 -20 -20 -20 -20 -20 -20 -20 -20 -20 -20 -20 -20 -20 -20 -20 -20
28 19 17 -12 22 2 -20 -9 -20 -13 -20 -20 10 -20 -20 -20 -20 -20 -20 -20 -20 -20 -20 -20 -17 7 14 -20 -20 -16 -15 -18 -20 -20 -20 -20 -20 -20 -20 -20 -20 -20 -20 -20 -20
8 30 14 18 23 -11 12 1 -15 18 -4 -2 -20 -20 -20 -20 -20 -20 -20 -20 -20 -20 -20 -20 -20 -20 -20 -20 -9 -19 -20 -20 -20 -20 -20 -20 -20 -20 -20 -20 -20 -20 -20 -20 -20
-19 19 28 19 23 22 16 18 1 6 -16 -20 8 -18 -20 -20 -20 -20 -20 -20 -20 -20 -20 -20 -20 -20 -20 -13 -20 -20 -20 -20 -20 -20 -20 -20 -20 -20 -20 -20 -20 -20 -20 -20 -20
-10 5 32 27 23 23 3 10 -9 -20 -17 -20 -20 -20 -20 -20 -20 -20 -20 -20 -20 -20 -20 -20 -20 -20 -20 -20 -20 -20 -20 -20 -20 -20 -20 -20 -20 -20 -20 -20 -20 -20 -20 -20 -20
3 2 28 25 24 24 4 -10 -20 -20 -20 -20 -20 -20 -20 -20 -20 -20 -20 -20 -20 -20 -20 -20 -15 -20 -20 -20 -6 -20 -20 -20 -20 -20 -20 -20 -20 -20 -20 -20 -20 -20 -20 -20 -20
14 4 16 27 32 31 -4 -20 -20 -20 -20 -20 -20 -20 -20 -20 -20 -20 -20 -20 -20 -20 -20 -20 -20 -20 -20 -20 -20 -20 -20 -20 -20 -20 -20 -20 -20 -20 -20 -20 -20 -20 -20 -20 -20
21 -20 18 26 37 34 21 1 -20 -20 -20 -20 -15 -20 -20 -2 -5 -20 -20 -20 -20 -20 -20 -20 -20 -20 -20 -20 -20 -20 -20 -20 -20 -4 -18 -20 -20 -20 -20 -20 -20 -20 -20 -20 -20
-3 -1 -5 37 38 35 23 32 -12 -20 -20 -20 4 -20 9 -18 -20 -20 -20 -11 -3 -20 -20 -20 -20 -20 -20 -20 -20 -6 -20 -20 -20 -19 -13 -20 4 -20 -20 -20 -20 -20 -20 -20 -20
-20 -20 -15 16 32 32 13 30 -20 -20 -20 -10 -7 3 12 -6 -4 -20 -4 11 -15 11 -7 -16 -20 -20 -20 -20 -20 -20 -13 -20 -9 -10 6 -20 -18 -20 -20 -20 -20 -20 -20 -20 -20
4 -1 -2 35 38 35 24 -1 -20 -20 -20 -11 -14 12 5 -6 3 8 2 1 5 -3 -17 -6 3 -7 -15 -20 -18 15 28 7 4 10 -18 -20 -20 -20 -20 -20 -20 -20 -20 -20 -20
21 -20 4 26 37 36 24 -20 -20 -20 -20 -20 -16 8 -12 -20 -18 -3 -7 -3 14 19 16 -19 -20 -2 -20 -20 -20 -20 11 13 -9 -20 -20 -20 -20 -20 -20 -20 -20 -20 -20 -20 -20
27 -20 -13 33 39 39 9 -20 -20 -20 -20 -20 -11 -14 -18 -20 -11 5 -6 -5 -20 -3 -11 -17 -20 -20 -20 -20 -20 23 11 1 10 -8 11 -19 -20 -20 -20 -20 -20 -20 -20 -20 -20
3 -0 -0 26 35 39 9 -20 -20 -20 -20 -20 -20 -20 -20 -20 -19 -10 -20 -20 -20 -20 -20 -20 1 -20 -20 -12 -11 13 -1 -2 11 21 13 -20 -20 -20 -20 -20 -20 -20 -20 -20 -20
19 26 35 38 36 36 7 -20 -20 -20 -20 -20 -20 -20 -20 -20 -20 -20 -20 -20 -20 -20 -20 -14 9 -20 -13 -12 -20 5 2 16 -0 9 -4 -20 -20 -20 -20 -20 -20 -20 -20 -20 -20
13 14 22 40 40 36 -6 -20 -20 -20 -20 -20 -20 -20 -20 -20 -20 -20 -20 -20 -20 -20 -20 -20 3 -2 -20 -10 10 11 -18 9 9 -19 -20 -20 -20 -20 -20 -19 -20 -20 -20 -20 -20
28 11 28 20 28 30 -12 -20 -20 -20 -20 -20 -20 -20 -20 -19 -16 -20 -20 -20 -20 -20 -20 -20 10 -3 -16 1 8 30 25 27 14 -13 -20 -20 -20 -20 -12 -5 -0 15 -20 -20 -20
11 25 37 35 28 -1 -20 1 -20 -20 -20 -20 -16 -2 -14 5 -16 -20 -20 -20 -20 -20 -20 -20 4 10 15 23 35 21 18 31 25 15 -20 -20 -20 -20 -20 14 1 0 -9 -20 -20
9 36 29 32 26 -17 -16 -20 -20 -20 -20 -20 1 2 -8 13 7 -5 -19 -20 -20 -20 -20 -2 4 16 16 29 36 34 27 29 22 -6 -20 -20 -20 -6 -13 2 -12 2 22 -20 15
23 11 11 -5 -2 -19 -15 -20 -20 -13 -17 -20 1 -17 10 14 4 -19 -20 -20 -20 -20 -19 23 15 -9 11 28 28 14 18 6 -20 -20 -20 -20 -13 12 18 11 31 27 16 12 -11
23 2 7 15 -3 -12 -18 -15 -20 -13 -20 -20 -17 14 5 16 17 11 -20 -20 -20 -12 8 19 13 29 11 30 14 5 6 -12 -8 1 -3 4 5 12 23 41 40 30 2 12 9

GFSSW_prec_radar_027.txt.gz
Reflectivity
18 -3 -17 -20 -20 -20 -20 -20 -1 -2 -20 -20 -20 -15 -20 20 21 4 -20 -20 -20 -20 -20 -20 -20 -20 -20 -20 -20 -20 -20 -20 -20 -20 -20 -20 -20 -20 -20 -20 -20 -20 -20 -20 -20
21 -20 4 5 -20 -20 -20 -20 -19 -20 -20 -20 -20 -20 -20 -4 20 15 -20 -20 -20 -20 -20 -20 -20 -20 -20 -20 -20 -20 -20 -20 -20 -20 -20 -20 -20 -20 -20 -20 -20 -20 -20 -20 -20
10 22 11 -20 -20 -20 -20 -20 -20 -20 -20 -20 -20 -20 -20 -18 -20 -20 -20 -20 11 23 -20 -20 -20 -20 -20 -20 -20 -20 -20 -20 -20 -20 -20 -20 -20 -20 -20 -20 -20 -20 -20 -20 -20
20 12 13 26 -16 -20 -20 -20 -20 -20 -20 -20 -20 -20 -20 -20 -20 -20 -20 -20 -20 23 -17 -20 -20 -20 -20 -20 -20 -20 -20 -20 -20 -20 -20 -20 -20 -20 -20 -20 -20 -20 -20 -20 -20
18 12 20 -1 27 10 -20 -20 -20 -20 -20 -20 -20 -20 -20 -20 -20 -20 -20 -20 -20 2 -15 -20 -20 -20 -20 -20 -20 -20 -20 -20 -20 -20 -20 -20 -20 -20 -20 -20 -20 -20 -20 -20 -20
-14 15 7 11 19 24 0 -20 -20 -20 -20 -20 -20 -20 -20 -20 -20 -20 -20 -20 -20 13 5 3 -20 -20 -20 -20 -20 -20 -20 -20 -20 -20 -20 -20 -20 -20 -20 -20 -20 -20 -20 -20 -20
-5 9 14 3 -7 24 2 -20 -20 -20 -20 -20 -15 -20 -20 -20 -20 -20 -20 -20 -20 -2 12 12 -0 -20 -20 -20 -20 -20 -20 -20 -20 -20 -20 -20 -20 -20 -20 -20 -20 -20 -20 -20 -20
16 3 7 26 8 21 25 8 -20 -20 -20 -20 -6 -20 -20 -20 -20 -20 -20 -20 -20 -20 -20 -20 12 15 13 -20 -20 -18 -20 -20 -20 -20 -20 -20 -20 -20 -20 -20 -20 -20 -20 -20 -20
14 -9 -2 25 25 18 20 22 7 -20 12 -1 -20 -20 -20 -20 -20 -20 -20 -20 -20 -20 -20 -20 -12 -20 -20 -20 -20 -20 -20 -20 -20 -20 -20 -20 -20 -20 -20 -20 -20 -20 -20 -20 -20
7 10 -10 8 32 21 25 22 18 12 11 -1 -4 -20 -20 -20 -20 -20 -20 -20 -20 -20 -20 -20 -20 -20 -8 -18 -20 -20 -20 -20 -20 -20 -20 -20 -20 -20 -20 -20 -20 -20 -20 -20 -20
1 -6 -4 5 29 30 25 24 11 4 -1 -20 -20 -20 -20 -20 -20 -20 -20 -20 -20 -20 -20 -20 -20 -6 -20 -20 -20 -20 -20 -20 -20 -20 -20 -20 -20 -20 -20 -20 -20 -20 -20 -20 -20
20 6 -4 1 25 36 34 8 -20 -20 -20 -20 -20 -20 -20 -20 -20 -20 -20 -20 -20 -20 -20 -20 -20 -20 -20 -20 -20 -20 -14 -16 -20 -20 -20 -20 -20 -20 -20 -20 -20 -20 -20 -20 -20
16 5 15 -15 16 35 35 19 3 -20 -20 -20 -20 -20 -20 -20 -20 -20 -20 -20 -20 -20 -20 -20 -20 -20 -20 -20 -20 -19 -19 -20 -20 -20 -20 -20 -20 -20 -20 -20 -20 -20 -20 -20 -20
1 -8 18 -1 -17 34 30 28 -4 -20 -20 -20 -20 -20 -20 -16 -16 -20 -20 -20 -20 -20 -20 -20 -20 -20 -20 -20 -20 -20 -20 -20 -20 1 -20 -20 -20 -20 -20 -20 -20 -20 -20 -20 -20
5 8 11 7 -1 28 37 37 -2 -19 -20 -20 -19 -20 -14 -19 -19 -13 -20 -16 -11 -20 -20 -20 -20 -20 -20 -20 -20 -20 -20 -20 -20 -20 -2 -9 5 -20 -20 -20 -20 -20 -20 -20 -20
12 -2 8 -13 -5 -1 39 38 23 -19 -20 -7 -11 11 14 1 8 -20 -18 10 -20 -1 -20 -17 -20 -20 -20 -20 -20 -20 -18 -14 -8 4 7 -20 -11 -20 -20 -20 -20 -20 -20 -20 -20
29 7 -9 7 -10 29 38 39 22 -20 -20 4 -13 7 -11 -16 8 2 10 -1 -14 -4 -7 -17 5 -18 -18 -18 -20 -20 22 1 13 15 -17 -20 -20 -20 -20 -20 -20 -20 -20 -20 -20
17 19 11 -20 -15 36 38 34 9 -20 -20 -20 -20 4 -15 -0 -19 -19 -20 4 3 10 -2 -16 -20 2 -16 -19 -20 -17 -18 -11 -20 -20 -20 -20 -20 -20 -20 -20 -20 -20 -20 -20 -20
-20 13 16 10 14 29 40 24 -12 -20 -20 -20 -3 -13 2 7 -20 -5 -2 -18 -20 5 5 -20 -20 -20 -20 -20 -20 6 -3 -20 2 -20 12 -20 -20 -20 -20 -20 -20 -20 -20 -20 -20
19 18 -4 9 10 40 42 2 -6 -20 -20 -20 -20 -20 -20 -20 -15 -4 -9 -20 -20 -20 1 -18 -20 -20 -20 -14 -20 -1 5 -2 10 8 10 -20 -20 -20 -20 -20 -20 -20 -20 -20 -20
17 18 1 25 33 38 27 -7 -20 -20 -20 -20 -20 -20 -20 -20 -20 -20 -20 -20 -20 -20 -20 -20 -20 -20 -19 -8 -20 2 15 21 4 8 2 -20 -20 -20 -20 -20 -20 -20 -20 -20 -20
25 23 16 26 35 32 34 -20 -20 -20 -20 -20 -20 -20 -20 -20 -20 -20 -20 -20 -20 -20 -19 -20 -20 -20 -20 -20 -18 4 12 22 24 -4 6 -12 -20 -20 -20 -20 -20 -20 -20 -20 -20
34 14 19 28 25 28 27 -19 -20 -20 -20 -20 -20 -20 -20 -20 -20 -20 -20 -20 -20 -20 -20 -20 -20 -20 -20 -20 -8 9 3 25 33 30 18 0 -20 -8 -16 -20 -20 -20 -20 -20 -20
14 23 34 25 8 -5 -20 -20 -20 -20 -20 -20 -20 -20 -20 -20 -20 -20 -20 -20 -20 -20 -20 -20 -9 -20 1 18 26 22 23 30 29 23 7 11 -20 -11 -20 -20 13 8 -15 -17 -20
12 9 25 19 18 14 9 -8 -20 -20 -20 -20 -20 -19 -17 11 17 -12 -20 -20 -20 -20 -20 -20 -8 -3 6 -6 16 27 27 30 20 5 11 -16 -20 -20 -20 -18 10 -5 -14 21 -16
17 20 18 -19 -1 -7 -4 -11 -11 -20 -20 -20 -20 -20 6 8 -20 -20 -20 -20 -20 -20 -20 -1 -19 18 12 -20 17 28 19 0 10 -2 -14 -20 -20 -20 -20 -20 -20 -10 2 6 8
7 28 22 7 -0 -14 -20 -20 -20 -20 2 -20 -20 -20 7 16 -20 -16 -13 7 -12 -10 -12 7 9 25 -0 -16 21 16 -11 19 3 -20 -20 -20 -20 -12 -13 -17 0 29 37 7 10

GFSSW_prec_radar_030.txt.gz
Reflectivity
15 -7 22 -4 -20 -20 -20 -20 -20 -20 -5 -20 -20 3 -2 -20 -1 4 7 -20 -20 -20 -20 -20 -20 -20 -20 -20 -20 -20 -20 -20 -20 -20 -20 -20 -20 -20 -20 -20 -20 -20 -20 -20 -20
4 8 17 -17 15 -20 -20 -20 -20 -20 -20 -20 -20 -13 -20 -20 17 11 -20 -20 5 -20 -20 -20 -20 -20 -20 -20 -20 -20 -20 -20 -20 -20 -20 -20 -20 -20 -20 -20 -20 -20 -20 -20 -20
-5 -3 6 -17 25 -3 -20 -20 -20 -20 -20 -20 -17 -20 -20 -20 -18 -20 -20 -20 8 -9 -20 -20 -20 -20 -20 -20 -20 -20 -20 -20 -20 -20 -20 -20 -20 -20 -20 -20 -20 -20 -20 -20 -20
-20 2 -2 4 3 27 -19 -20 -20 -20 -20 -20 -20 -13 -20 -20 -20 -20 -20 -20 5 21 -16 -20 -20 -20 -20 -20 -20 -20 -20 -20 -20 -20 -20 -20 -20 -20 -20 -20 -20 -20 -20 -20 -20
9 -6 -12 5 -2 15 25 -20 -20 -20 -20 -20 -20 -20 -20 -20 -20 -20 -20 -20 -20 20 21 -20 -20 -20 -20 -20 -20 -20 -20 -20 -20 -20 -20 -20 -20 -20 -20 -20 -20 -20 -20 -20 -20
15 -10 -20 4 8 12 25 14 -20 -20 -20 -20 -20 -20 -20 -20 -20 -20 -20 -20 -20 7 17 1 -20 -20 -20 -20 -20 -20 -20 -20 -20 -20 -20 -20 -20 -20 -20 -20 -20 -20 -20 -20 -20
-7 10 -11 -19 7 13 24 24 -19 -20 -20 -20 -20 -20 -20 -20 -20 -20 -20 -20 -20 19 13 -1 -20 -9 -20 -5 -20 -20 -20 -20 -20 -20 -20 -20 -20 -20 -20 -20 -20 -20 -20 -20 -20
-13 -19 10 -20 13 15 14 28 13 -18 -20 -20 -18 -20 -20 -20 -20 -20 -20 -20 -17 -20 -16 23 -14 10 8 -20 -20 -20 -20 -20 -20 -20 -20 -20 -20 -20 -20 -20 -20 -20 -20 -20 -20
-19 -4 11 0 2 5 23 27 26 1 -20 -20 -20 -20 -20 -20 -20 -20 -20 -20 -20 -11 -20 -1 11 18 7 -20 -20 -20 -20 -20 -20 -20 -20 -20 -20 -20 -20 -20 -20 -20 -20 -20 -20
13 -20 10 -20 8 13 28 24 25 21 19 17 -13 -20 -20 -20 -20 -20 -20 -20 -6 -20 -20 -20 -20 -20 -20 -20 -20 -20 -20 -20 -20 -20 -20 -20 -20 -20 -20 -20 -20 -20 -20 -20 -20
8 -18 -17 15 8 19 20 37 36 31 10 -20 -20 -20 -20 -20 -20 -20 -20 -20 -20 -20 -2 -1 -5 -20 -20 -20 -20 -20 -20 -20 -20 -20 -20 -20 -20 -20 -20 -20 -20 -20 -20 -20 -20
19 1 -18 -5 16 14 27 44 26 -6 -2 3 -20 -20 -20 -20 -20 -20 -20 -20 -20 -7 -20 -20 -20 -20 -20 -20 -20 -18 -14 -19 -20 -20 -20 -20 -20 -20 -20 -20 -20 -20 -20 -20 -20
-19 -8 -20 -12 -18 -17 28 39 27 -10 -20 -19 -20 -20 -20 -20 -20 -20 -20 -20 -20 -20 -20 -20 -20 -20 -20 -20 -20 -20 -20 -16 -20 -20 -20 -20 -20 -20 -20 -20 -20 -20 -20 -20 -20
15 2 9 10 -9 -17 21 25 37 31 26 -20 -20 -20 -20 -20 -20 -20 -20 -20 -20 -20 -20 -19 -20 -20 -20 -20 -20 -20 -20 -20 -20 -5 -10 -20 -20 -20 -20 -20 -20 -20 -20 -20 -20
20 22 -11 19 16 -20 2 24 38 35 5 -20 -12 -12 -19 -20 -20 -11 -20 -20 -10 -20 -20 -20 -20 -20 -4 -20 -20 -5 -20 -20 -20 -8 -19 -16 1 -20 -20 -20 -20 -20 -20 -20 -20
26 31 22 15 22 -19 22 40 37 32 -20 -8 8 12 8 -3 -6 -5 4 6 -20 -4 -20 -20 -20 -20 -20 -20 -20 -15 -12 -11 2 6 8 -20 -16 -20 -20 -20 -20 -20 -20 -20 -20
29 25 12 9 8 9 23 41 31 17 -20 8 -7 16 -4 1 5 -1 11 0 3 8 11 -11 2 -20 -20 -16 -20 -7 14 1 11 9 -20 -20 -20 -20 -20 -20 -20 -20 -20 -20 -20
24 -5 -16 -2 -20 16 27 34 26 -10 -11 -20 4 8 11 -18 9 -3 9 12 2 2 -0 -3 -20 -4 -20 -19 -7 -14 8 -3 -20 -20 -20 -20 -20 -20 -20 -20 -20 -20 -20 -20 -20
30 -0 15 9 -12 26 21 21 20 -20 -20 -19 2 5 -3 -17 -20 0 -2 -18 -20 -20 -10 1 -20 -20 -20 -20 -11 8 -7 -17 10 3 13 -20 -20 -20 -20 -20 -20 -20 -20 -20 -20
18 17 2 7 9 19 33 32 10 -20 -20 -20 -20 -20 -20 -20 -16 -20 -20 -20 -20 -20 -20 -1 -10 -20 -20 -16 -19 -17 -12 7 2 -0 -5 -20 -20 -20 -20 -20 -20 -20 -20 -20 -20
32 18 23 23 -3 31 34 34 -0 -4 -2 -20 -20 -20 -20 -15 -20 -20 -20 -20 -20 -20 -20 -15 -20 -20 -1 1 -20 -5 7 14 4 8 3 -7 -20 -20 -20 -20 -20 -20 -20 -20 -20
29 36 11 -20 19 -1 23 23 -15 -12 -20 -20 -20 -20 -20 -20 -20 -20 -20 -20 -20 -20 -19 -20 -3 -6 -19 -20 -20 -20 -19 -3 17 12 19 12 6 -10 -20 -20 -20 -20 -20 -20 -20
29 29 10 4 6 22 22 12 -6 -18 -20 -20 -20 -20 -20 -20 -20 -20 -20 -20 -20 -20 -20 -11 8 -18 -20 -20 -19 -20 -20 1 21 26 18 14 9 8 5 -19 -20 -20 -20 -20 -20
25 26 27 25 8 6 23 15 -16 -20 -20 -20 -20 -20 -20 -20 -20 -20 -20 -20 -20 -20 -20 -20 -2 -20 -20 -20 4 11 -20 24 27 20 -8 9 -14 10 15 -14 -20 -20 -20 -20 -20
17 -12 -15 12 3 15 11 12 -5 -20 -20 -20 -20 -20 -20 -20 -19 -12 -20 -20 -20 -20 -20 -18 -7 -20 -20 -20 -20 -20 -20 -15 17 15 14 -1 2 -20 -18 -12 -20 -20 -20 -20 -20
25 13 7 -3 14 20 10 -6 -20 -20 -20 -20 -20 -20 -20 -20 -20 -20 -20 -20 -20 -20 -20 7 -12 4 -5 -20 -20 -10 4 10 6 7 -2 4 2 -20 -20 -18 -6 -20 -20 -20 -20
-15 0 15 -3 9 9 -20 -20 -20 -20 -20 -20 -20 -20 -20 -20 4 -6 -12 -20 1 -15 -20 -8 -9 1 -2 -19 -8 8 31 13 -9 -11 -20 4 -20 -20 -20 -20 -20 -17 -3 -20 -20

GFSSW_prec_radar_033.txt.gz
Reflectivity
-20 -13 11 8 15 20 -20 -20 -20 -20 -20 -20 -20 -20 -20 4 -11 10 5 -11 -20 -20 -20 -20 -20 -20 -20 -20 -20 -20 -20 -20 -20 -20 -20 -20 -20 -20 -20 -20 -20 -20 -20 -20 -20
-20 -20 -5 9 10 23 -14 -20 -20 -20 -20 -20 -20 -20 -20 -20 12 6 -20 -20 -20 -20 -20 -20 -20 -20 -20 -20 -20 -20 -20 -20 -20 -20 -20 -20 -20 -20 -20 -20 -20 -20 -20 -20 -20
-0 -20 -5 -8 11 4 28 -10 -20 -20 -20 -20 -20 -20 -20 -20 12 -16 -20 -20 -6 -11 -20 -20 -20 -20 -20 -20 -20 -20 -20 -20 -20 -20 -20 -20 -20 -20 -20 -20 -20 -20 -20 -20 -20
-20 0 -6 -9 13 9 20 22 -19 -20 -20 -20 -20 -20 -20 -18 7 -20 -20 -20 12 7 -15 -20 -20 -20 -20 -20 -20 -20 -20 -20 -20 -20 -20 -20 -20 -20 -20 -20 -20 -20 -20 -20 -20
-20 -20 9 12 -20 5 8 9 25 -20 -20 -20 -20 -20 -20 -10 -20 -20 -20 -20 -20 21 -1 -5 -20 -20 -20 -20 -20 -20 -20 -20 -20 -20 -20 -20 -20 -20 -20 -20 -20 -20 -20 -20 -20
-20 -20 -13 8 -20 -20 -5 2 25 6 -20 -20 -20 -20 -20 -20 -20 -20 -20 -20 -20 11 4 -12 -16 -20 -20 -20 -20 -20 -20 -20 -20 -20 -20 -20 -20 -20 -20 -20 -20 -20 -20 -20 -20
-20 -20 -20 -18 -3 -20 -9 13 20 29 -14 -20 -20 -20 -20 -20 -20 -20 -20 -20 -20 -20 7 4 -20 -20 -20 -20 -20 -20 -20 -20 -20 -20 -20 -20 -20 -20 -20 -20 -20 -20 -20 -20 -20
-20 -20 -9 -16 -2 -12 9 -0 18 26 11 -20 -20 -20 -20 -20 -20 -20 -20 -20 -20 -7 -20 -11 -20 -20 -17 -20 -20 -20 -20 -20 -20 -20 -20 -20 -20 -20 -20 -20 -20 -20 -20 -20 -20
-20 -12 -4 -14 -12 10 -17 3 13 32 18 2 -16 -20 -20 -20 -20 -20 -20 -20 -20 -20 -20 5 11 -2 -6 7 -16 -20 -20 -20 -20 -20 -20 -20 -20 -20 -20 -20 -20 -20 -20 -20 -20
-20 -20 -14 -20 -20 -19 5 -12 6 40 32 16 6 -20 -20 -20 -20 -20 -20 -20 -20 -12 9 -7 6 -5 -20 8 -17 -20 -20 -20 -20 -20 -20 -20 -20 -20 -20 -20 -20 -20 -20 -20 -20
-15 4 -20 -20 23 -3 13 9 27 42 33 8 -20 -20 -20 -20 -20 -20 -20 -20 -20 -15 -20 -20 -15 -20 -20 -20 -20 -20 -20 -20 -20 -20 -20 -20 -20 -20 -20 -20 -20 -20 -20 -20 -20
-6 -14 -3 -14 -10 -16 24 23 34 36 24 -5 -20 -20 -20 -20 -20 -20 -20 -20 -14 -12 -20 -10 -10 -20 -20 -20 -20 -20 -20 -20 -20 -20 -20 -20 -20 -20 -20 -20 -20 -20 -20 -20 -20
9 -4 19 -18 18 -20 9 10 30 35 35 -5 -20 -20 -20 -20 -20 -20 -20 -20 -2 -3 -20 -12 -20 -20 -20 -20 -20 -20 -20 -20 -20 -20 -20 -20 -20 -20 -20 -20 -20 -20 -20 -20 -20
-20 11 29 16 -16 2 3 19 35 41 31 14 1 -20 -20 -20 -20 -20 -20 -20 -20 -18 -20 -3 -20 -20 -20 -20 -20 -20 -20 -20 -20 -20 -20 -20 -20 -20 -20 -20 -20 -20 -20 -20 -20
13 19 25 37 12 18 24 20 38 37 19 16 6 -20 -20 -20 -20 -7 -20 -19 -20 -20 -20 -20 -20 -20 -20 -20 -20 -20 -20 -20 -20 -20 -8 -20 -20 -20 -20 -20 -20 -20 -20 -20 -20
17 31 27 24 23 -20 15 34 38 29 26 6 7 0 -19 -20 -20 0 -12 -11 -20 -12 -12 -20 -20 -12 -20 -20 -20 -20 -20 -20 -20 -3 1 -20 -20 -20 -20 -20 -20 -20 -20 -20 -20
15 -18 21 5 12 -20 15 36 30 26 -4 9 -4 8 0 -19 -3 8 -8 4 -12 3 -3 -8 -20 -20 -20 -18 -16 -7 -4 -16 -6 5 -20 -20 -20 -20 -20 -20 -20 -20 -20 -20 -20
18 -14 26 -16 -14 3 18 35 24 20 -16 -20 9 9 6 -20 -1 -14 -18 9 -1 -20 -20 -19 -13 -20 -20 -19 -19 -20 3 -20 -20 -20 -20 -20 -20 -20 -20 -20 -20 -20 -20 -20 -20
28 -18 24 25 19 -0 16 18 29 -17 -20 -18 12 11 9 3 -12 1 2 0 -3 -20 -20 -20 -20 -20 -20 -20 -20 -6 -6 -20 -4 -20 -14 -20 -20 -20 -20 -20 -20 -20 -20 -20 -20
28 2 21 -1 20 2 17 14 33 -12 -18 -8 -9 -17 4 4 1 -7 -19 -20 -20 -20 -20 -11 -13 -20 -20 -12 -20 -20 -20 -9 -0 -1 -20 -20 -20 -20 -20 -20 -0 -20 -20 -20 -20
8 19 17 13 -2 22 -7 -3 16 -8 -17 -7 -20 -20 -20 -14 -8 -15 -20 -20 -20 -20 -20 -20 -16 -20 -19 -16 -20 -14 2 1 -12 9 -2 -20 -20 -16 -20 -20 -20 -14 -20 -20 -20
23 29 25 -3 3 27 28 28 9 22 -19 -20 -13 -20 -20 -20 -3 -20 -20 -20 -20 -20 -19 -20 -20 -4 -20 -20 -20 -20 -20 -13 11 -20 12 -1 -9 -20 -20 -13 -19 -6 -20 -20 -20
3 17 22 18 15 16 30 20 3 -1 -19 -20 -20 -20 -20 -20 -5 -15 -20 -20 -20 -20 -20 -20 -2 -20 -20 -16 -20 -20 -20 -10 11 22 11 11 -10 -20 -20 -13 4 -16 -13 -20 -20
14 16 7 7 2 11 27 20 5 8 -20 -20 -20 -20 -20 -20 -20 -20 -20 -20 -20 -20 -20 -18 -7 -20 -20 -20 -20 -19 -14 -1 26 21 -7 -3 -13 -20 -17 -0 -19 -13 -20 -20 -14
2 7 -1 -19 22 -10 17 17 20 4 -20 -20 -20 -20 -20 -20 -20 -20 -20 -20 -20 -20 -20 -15 -1 -8 -20 -20 -20 -20 -2 4 20 24 20 2 -17 -20 -20 -16 -4 -14 -15 -17 -20
9 13 7 6 -10 11 -20 14 9 -20 -20 -20 -20 -20 -20 -20 -20 -15 -20 -20 -11 -20 -20 -3 2 3 -20 -20 -20 -20 -3 23 7 5 8 1 -5 -20 -20 -20 -20 -13 -20 -20 -20
-10 -4 5 0 8 -8 -20 -7 5 -20 -20 -20 -20 -20 -20 -20 -20 -20 -20 -20 -20 -12 -6 4 9 -2 -20 -20 -19 -11 16 8 3 30 22 21 -20 -20 -14 6 -9 -4 -17 -20 -8

GFSSW_prec_radar_036.txt.gz
Reflectivity
-20 -20 -20 -20 -4 2 22 15 -20 -20 -20 -20 -20 -20 -20 -20 -20 3 -8 -20 -20 -20 -20 -20 -20 -20 -20 -20 -20 -20 -20 -20 -20 -20 -20 -20 -20 -20 -20 -20 -20 -20 -20 -20 -20
-20 -20 -20 -20 -20 7 3 19 -20 -20 -20 -20 -20 -20 -20 -18 -11 -3 -20 3 2 -20 -20 -20 -20 -20 -20 -20 -20 -20 -20 -20 -20 -20 -20 -20 -20 -20 -20 -20 -20 -20 -20 -20 -20
-20 -20 -20 -20 -20 -10 2 7 22 -3 -20 -20 -20 -20 -20 -18 2 -20 -20 -20 -20 -20 -20 -20 -20 -20 -20 -20 -20 -20 -20 -20 -20 -20 -20 -20 -20 -20 -20 -20 -20 -20 -20 -20 -20
-17 -20 -20 -20 -16 10 13 -1 1 24 -16 -20 -20 -20 -20 -20 -11 -20 -20 -19 13 25 -20 -18 -20 -20 -20 -20 -20 -20 -20 -20 -20 -20 -20 -20 -20 -20 -20 -20 -20 -20 -20 -20 -20
-20 -7 -19 -20 -20 11 11 10 5 19 24 -20 -20 -20 -20 -6 -20 -20 -20 -20 -8 24 -20 7 -20 -20 -20 -20 -20 -20 -20 -20 -20 -20 -20 -20 -20 -20 -20 -20 -20 -20 -20 -20 -20
-6 -20 7 -20 -9 -11 6 8 -9 6 26 14 -20 -20 -20 -20 -20 -20 -20 -20 -20 -20 6 7 -20 -20 -20 -20 -20 -20 -20 -20 -20 -20 -20 -20 -20 -20 -20 -20 -20 -20 -20 -20 -20
-18 -10 1 3 -15 -20 9 8 -4 -8 29 22 -20 -20 -20 -20 -20 -20 -20 -20 -20 -20 24 6 -15 -20 -20 -20 -20 -20 -20 -20 -20 -20 -20 -20 -20 -20 -20 -20 -20 -20 -20 -20 -20
-20 -20 4 -20 4 -7 0 -1 -3 11 28 25 23 -18 -17 -20 -20 -20 -20 -20 -14 -12 -20 21 -1 -4 -19 -16 -20 -20 -20 -20 -20 -20 -20 -20 -20 -20 -20 -20 -20 -20 -20 -20 -20
-4 -17 4 14 1 -2 16 -20 -6 -1 15 31 19 -7 -19 -20 -20 -20 -20 -20 -20 -20 -12 -9 -4 -4 -19 -9 4 -20 -20 -20 -20 -20 -20 -20 -20 -20 -20 -20 -20 -20 -20 -20 -20
21 -14 -20 2 -4 -18 -20 4 -20 8 20 36 17 -1 -20 -20 -20 -20 -20 -20 -20 -20 16 28 -15 1 9 7 -14 -20 -20 -20 -20 -20 -20 -20 -20 -20 -20 -20 -20 -20 -20 -20 -20
-14 -19 -20 -10 -11 22 20 -20 15 16 37 32 9 -20 -20 -20 -20 -20 -20 -20 -20 -2 14 -6 -17 5 -20 -20 -20 -20 -20 -20 -20 -20 -20 -20 -20 -20 -20 -20 -20 -20 -20 -20 -20
-4 -14 8 -10 -13 17 17 6 14 14 37 27 2 -17 -20 -20 -20 -20 -20 -20 -3 9 6 -20 -20 -20 -20 -20 -20 -20 -20 -20 -20 -20 -20 -20 -20 -20 -20 -20 -20 -20 -20 -20 -20
5 -20 5 22 12 -20 -20 -17 10 29 36 32 1 -3 -20 -20 -20 -20 -20 -20 -17 -0 -3 -12 -20 -20 -20 -20 -20 -20 -20 -20 -20 -20 -20 -20 -20 -20 -20 -20 -20 -20 -20 -20 -20
-18 4 15 22 12 4 -5 17 16 36 26 26 29 17 -20 -20 -20 -20 -20 -19 -19 -3 2 4 -20 -20 -20 -20 -20 -20 -20 -20 -20 -20 -20 -20 -20 -20 -20 -20 -20 -20 -20 -20 -20
-8 1 19 22 38 5 23 13 20 37 15 21 25 14 -20 -20 -20 -20 -20 -20 -20 -20 1 -20 -20 -20 -20 -20 -20 -20 -20 -20 -20 -20 -20 -20 -20 -20 -20 -20 -20 -20 -20 -20 -20
12 15 16 -9 18 1 -20 25 28 30 23 34 33 -4 2 9 -8 -20 -20 -20 -20 -20 -10 -20 -20 -20 -20 -20 -20 -20 -20 -20 -20 -20 -20 -20 -20 -20 -20 -20 -20 -20 -20 -20 -20
-15 11 -15 21 -9 -20 6 19 27 15 25 12 15 7 -5 5 9 -20 -12 -20 -20 -20 -20 -20 -20 -20 -20 -20 -20 -20 -19 -20 -14 -13 -20 -20 -20 -20 -20 -20 -20 -20 -20 -20 -20
11 3 19 -7 7 -7 -7 20 23 21 32 -1 3 2 -17 -16 9 -8 8 -3 -20 -20 -20 -20 -20 -20 -20 -20 -20 -20 -20 -20 -20 -20 -20 -20 -20 -20 -20 -20 -20 -20 -20 -20 -20
10 -18 5 24 -20 -8 17 -3 25 29 5 10 12 -13 -6 -20 -11 7 -3 -4 -20 -20 -20 -20 -20 -20 -20 -20 -20 -6 -20 -20 -20 -20 -20 -20 -20 -20 -20 -20 -20 -20 -20 -20 -20
20 -20 6 24 -20 -17 11 7 34 27 -12 -11 4 4 2 -17 -7 4 -19 -20 -20 -20 -20 -20 -17 -20 -2 -20 -20 -20 -20 -19 -17 -20 -20 -20 -20 -20 -20 -20 -20 -20 -20 -20 -20
-20 13 16 23 -12 0 8 6 26 23 0 21 -20 -20 -20 -13 -8 -18 -20 -20 -20 -20 -20 -20 -20 -20 -20 -20 -20 -20 -20 -15 -11 -20 -20 -20 -20 -20 -20 -20 -20 -20 -20 -20 -20
-19 -9 5 18 21 23 -5 5 29 34 -12 -20 -20 -20 -20 -20 -7 -20 -20 -20 -20 -20 -20 -6 -20 -20 -20 -20 -20 -20 -20 -20 -3 -20 -20 -20 -20 -20 -20 -20 -20 -20 -20 -20 -20
9 6 15 32 16 12 -5 34 30 -8 8 4 -9 -20 -20 -12 -20 -19 -20 -20 -20 -20 -20 -20 -20 -20 -20 -20 -20 -20 -20 -20 -17 -14 -16 -20 -20 -20 -14 -8 -20 -20 -20 -20 -20
3 -20 -19 3 22 33 32 22 23 7 -1 -20 -20 -20 -20 -20 -20 -20 -20 -20 -20 -20 -20 -20 -20 -20 -20 -20 -20 -20 -20 -20 -5 13 -18 -20 -20 -20 -19 -9 -20 -16 -20 -20 -20
14 -18 -18 -16 16 28 16 21 18 7 -20 -20 -1 3 -11 -20 -20 -20 -20 -20 -20 -20 -20 -20 -20 -20 -20 -20 -20 -20 -20 -18 22 5 12 -3 -20 -20 -16 -15 -18 -4 -11 -20 -20
-20 -4 3 -20 -18 8 28 33 12 -20 8 -20 -20 -20 -20 -20 -20 -20 -20 -20 -20 -20 -20 -8 -20 -7 -20 -20 -20 -20 -20 -20 -11 5 -0 -10 -13 -20 -5 32 27 13 11 7 -20
-20 -20 -2 2 -20 -4 -10 -20 -5 -10 -20 -20 -20 -19 -20 -20 -20 -20 -20 -20 -20 -20 -20 1 -20 -20 -20 -20 -20 -20 -20 -20 -20 -17 25 19 -13 11 13 16 27 27 29 11 -20

GFSSW_prec_radar_039.txt.gz
Reflectivity
-20 -20 -20 -20 10 9 1 2 9 4 -20 -20 -20 -20 -20 -20 -20 0 -19 -20 -20 -20 -20 -20 -20 -20 -20 -20 -20 -20 -20 -20 -20 -20 -20 -20 -20 -20 -20 -20 -20 -20 -20 -20 -20
0 -20 -20 -20 -20 -17 12 -11 -3 21 -16 -20 -20 -20 -20 -20 -20 -8 -20 -20 -20 -6 -20 -20 -20 -20 -20 -20 -20 -20 -20 -20 -20 -20 -20 -20 -20 -20 -20 -20 -20 -20 -20 -20 -20
-20 -20 -18 -14 -20 -20 11 -12 -14 -0 23 -20 -20 -20 -20 -20 -10 -20 -20 -20 -15 -9 -20 -20 -20 -20 -20 -20 -20 -20 -20 -20 -20 -20 -20 -20 -20 -20 -20 -20 -20 -20 -20 -20 -20
12 -19 8 4 -1 -20 -20 14 8 7 14 31 -20 -20 -20 -20 -20 -19 -18 -20 -18 -16 -20 -20 -20 -20 -20 -20 -20 -20 -20 -20 -20 -20 -20 -20 -20 -20 -20 -20 -20 -20 -20 -20 -20
10 -8 -20 -20 17 -2 -20 13 13 11 10 24 22 -20 -20 3 -20 -20 -20 -12 21 -14 -20 -20 -20 -20 -20 -20 -20 -20 -20 -20 -20 -20 -20 -20 -20 -20 -20 -20 -20 -20 -20 -20 -20
-16 14 -7 -19 -20 -2 -20 -20 14 10 8 25 22 10 -18 -20 -20 -20 -20 -20 7 16 9 7 -20 -20 -20 -20 -20 -20 -20 -20 -20 -20 -20 -20 -20 -20 -20 -20 -20 -20 -20 -20 -20
0 -15 -6 11 7 -20 -20 -20 10 1 11 20 24 14 1 -20 -20 -20 -20 -20 -20 -20 13 -20 -5 -20 -20 -20 -20 -20 -20 -20 -20 -20 -20 -20 -20 -20 -20 -20 -20 -20 -20 -20 -20
20 5 -20 2 -20 -3 3 1 -14 -20 5 11 31 16 -16 -20 -20 -20 -20 -20 -20 -20 -20 -9 -12 -20 -20 -20 -20 -20 -20 -20 -20 -20 -20 -20 -20 -20 -20 -20 -20 -20 -20 -20 -20
-14 -13 -17 -6 21 -11 -15 -8 -20 -20 5 9 33 -20 -20 -20 -20 -20 -20 -20 -20 -16 -20 10 15 -16 -10 -19 -11 -20 -20 -20 -20 -20 -20 -20 -20 -20 -20 -20 -20 -20 -20 -20 -20
20 -8 22 12 2 -10 -17 -20 -20 -20 -1 28 32 11 -20 -20 -20 -20 -20 -20 -20 6 9 29 24 34 19 10 -8 -20 -20 -20 -20 -20 -20 -20 -20 -20 -20 -20 -20 -20 -20 -20 -20
15 4 -20 6 12 -20 -20 -20 12 -13 -20 26 31 2 -20 -20 -20 -18 -20 -20 -20 -20 -20 17 15 12 -20 -20 -20 -20 -20 -20 -20 -20 -20 -20 -20 -20 -20 -20 -20 -20 -20 -20 -20
-13 7 -4 8 -20 -2 -6 -20 -17 8 -15 27 23 15 -20 -20 -20 -20 -20 -20 -20 -2 -20 -13 2 -15 -11 -19 -20 -20 -20 -20 -20 -20 -20 -20 -20 -20 -20 -20 -20 -20 -20 -20 -20
5 5 4 1 16 -7 -4 -20 -20 1 13 10 29 21 -20 -20 -20 -20 -20 -20 -20 1 -20 -20 -20 -18 -8 -19 -15 -20 -20 -20 -20 -20 -20 -20 -20 -20 -20 -20 -20 -20 -20 -20 -20
-5 -3 -11 20 10 13 -13 -20 -20 13 23 30 36 29 -20 -20 -20 -20 -20 -20 -20 10 -20 -20 -20 -20 -20 -20 -20 -20 -20 -20 -20 -20 -20 -20 -20 -20 -20 -20 -20 -20 -20 -20 -20
-20 10 -19 23 14 9 16 13 21 28 21 27 31 17 7 -20 -20 -13 -20 -19 -20 -20 -20 -20 -20 -20 -20 -20 -20 -20 -20 -20 -20 -20 -20 -20 -20 -20 -20 -20 -20 -20 -20 -20 -20
-20 -16 20 2 6 -9 3 15 21 24 21 34 23 12 12 -11 -16 -20 -9 -20 -20 -16 -20 -20 -20 -20 -20 -20 -20 -20 -20 -20 -20 -20 -20 -20 -20 -20 -20 -20 -20 -20 -20 -20 -20
-18 7 19 22 8 -20 -20 -8 17 -4 36 28 18 -9 -5 12 -14 -20 -19 -13 -20 -20 -20 -14 -20 -20 -20 -20 -20 -20 -20 -20 -20 -20 -20 -20 -20 -20 -20 -20 -20 -20 -20 -20 -20
-5 18 -20 23 -20 -13 -16 7 -4 27 33 21 2 9 8 -11 -19 -17 -20 -20 -20 -20 -20 -20 -20 -20 -20 -20 -20 -20 -20 -20 -20 -20 -20 -20 -20 -20 -20 -20 -20 -20 -20 -20 -20
9 -20 22 22 -20 -20 2 12 21 31 20 23 5 -0 10 -0 -4 7 7 -20 -20 -20 -20 -20 -20 -20 -20 -20 -20 -20 -20 -20 -20 -20 -20 -20 -20 -20 -20 -20 -20 -20 -20 -20 -20
-11 21 17 16 14 -11 26 18 20 30 7 -13 13 -12 -2 -1 -1 -12 0 -20 -20 -20 -20 -20 -20 -20 -12 -20 -20 -20 -20 -20 -20 -20 -20 -20 -20 -20 -20 -20 -20 -20 -20 -20 -20
-20 4 14 12 11 21 7 29 34 21 27 15 -20 -18 -20 -4 -6 -1 -20 -20 -20 -20 -20 -20 -20 -20 -20 -20 -20 -20 -19 -20 -20 -20 -20 -20 -20 -20 -20 -20 -20 -20 -20 -20 -20
-20 -20 -20 6 -6 -6 15 20 28 36 -9 -20 -20 -20 -20 -3 -20 -20 -20 -20 -20 -20 -20 -20 -20 -20 -20 -20 -20 -20 -20 -20 -20 -20 -20 -20 -20 -20 -20 -20 -20 -20 -20 -20 -20
-20 -17 4 -3 -8 11 6 18 14 12 13 0 -20 -20 -20 -20 -20 -20 -20 -20 -20 -20 -20 -20 -20 -20 -20 -20 -20 -20 -20 -20 -20 -20 -20 -18 -20 -20 -20 -20 -9 -10 -20 -20 7
-20 -20 -20 -17 -17 -7 22 37 25 7 7 -20 -20 -20 -9 -12 -20 -17 -20 -20 -20 -20 4 -20 -20 -20 -20 -20 -20 -20 -20 -20 -20 -2 -20 -20 -20 -20 -20 -3 5 9 -4 -12 12
-20 -20 -20 -20 23 3 -3 -18 7 -6 -20 -19 -1 -20 -13 -20 -20 -20 -20 -20 -20 -20 -20 -20 -20 -20 -20 -20 -20 -20 -20 -20 -20 -20 14 -19 -17 -20 -13 23 8 2 22 13 12
-20 -13 -20 -20 1 -18 -20 -20 -11 -20 -20 -20 -20 -20 -20 -20 -20 -20 -20 -20 -20 -20 -20 -20 -20 -20 -20 -20 -20 -20 -20 -20 -20 -20 -20 -13 -3 -20 14 15 -1 10 21 28 23
-20 -20 -7 -20 -19 1 -20 -20 -15 -20 -20 -20 -20 -20 -20 -20 -20 -20 -20 -20 -20 -20 -20 -20 -20 -20 -20 -20 -20 -19 -9 -20 -20 -19 -1 -13 -20 -20 8 12 3 -4 6 23 18

GFSSW_prec_radar_042.txt.gz
Reflectivity
-20 13 12 -20 -20 -20 3 -2 10 7 20 22 -20 -20 -20 -20 -9 -20 -19 -20 -20 -20 -20 -20 -20 -20 -20 -20 -20 -20 -20 -20 -20 -20 -20 -20 -20 -20 -20 -20 -20 -20 -20 -20 -20
-2 10 11 17 14 -3 -20 3 -0 -16 5 27 -7 -20 -20 -9 -4 0 -20 -20 -20 -10 -20 -20 -20 -20 -20 -20 -20 -20 -20 -20 -20 -20 -20 -20 -20 -20 -20 -20 -20 -20 -20 -20 -20
12 -20 -20 -20 -5 16 7 -20 -13 2 -20 -6 28 -20 -20 2 6 -20 -20 -20 -20 -6 -20 -20 -20 -20 -20 -20 -20 -20 -20 -20 -20 -20 -20 -20 -20 -20 -20 -20 -20 -20 -20 -20 -20
3 16 18 17 -20 11 -14 6 11 -13 -20 -5 21 26 -20 -20 -20 -20 -20 -20 -20 13 -20 -20 -20 -20 -20 -20 -20 -20 -20 -20 -20 -20 -20 -20 -20 -20 -20 -20 -20 -20 -20 -20 -20
11 12 16 2 2 -1 2 -20 -20 7 -20 10 -3 29 -9 -1 -14 -20 -20 -20 -7 16 -20 -20 -20 -20 -20 -20 -20 -20 -20 -20 -20 -20 -20 -20 -20 -20 -20 -20 -20 -20 -20 -20 -20
21 19 -5 -19 -19 -13 -20 -16 -19 -2 -20 -15 -5 33 1 -20 -8 -20 -20 5 -6 9 -20 -20 -8 -20 -20 -20 -20 -20 -20 -20 -20 -20 -20 -20 -20 -20 -20 -20 -20 -20 -20 -20 -20
-5 20 -4 26 23 -18 0 -20 -13 2 -15 -1 -13 24 8 -1 -20 -20 -20 10 1 -20 -20 -20 -19 -20 -20 -20 -20 -20 -20 -20 -20 -20 -20 -20 -20 -20 -20 -20 -20 -20 -20 -20 -20
19 -13 -20 -7 -15 -10 -20 -7 -20 -20 -20 -15 8 38 13 24 -15 -13 -20 -20 -20 -20 -20 -18 14 -20 -20 -20 -20 -20 -20 -20 -20 -20 -20 -20 -20 -20 -20 -20 -20 -20 -20 -20 -20
16 -17 1 22 -20 -17 -20 -20 -20 -20 -20 -13 13 32 10 -20 -3 -18 -20 -20 -20 -20 -7 -20 12 -2 -20 -20 -20 -20 -20 -20 -20 -20 -20 -20 -20 -20 -20 -20 -20 -20 -20 -20 -20
16 -5 15 15 7 14 -12 -20 -20 -20 -20 -7 18 28 17 -20 -4 3 -20 -20 -20 12 25 -8 27 23 8 -14 -15 -20 -20 -20 -20 -20 -20 -20 -20 -20 -20 -20 -20 -20 -20 -20 -20
24 10 11 8 19 -20 -20 -20 -20 -20 -17 12 19 19 -19 -20 -20 7 -20 -20 -20 27 4 23 13 28 18 -16 -20 -20 -20 -20 -20 -20 -20 -20 -20 -20 -20 -20 -20 -20 -20 -20 -20
-13 -20 6 8 22 16 -12 -6 -20 -4 -20 5 16 28 15 -20 -9 -20 -20 -20 -20 6 -11 13 3 6 31 19 -13 -20 -20 -20 -20 -20 -20 -20 -20 -20 -20 -20 -20 -20 -20 -20 -20
-18 4 -20 3 20 -20 -20 -10 -20 -20 -10 0 36 38 -2 -20 -20 -20 -0 -20 -20 -20 -20 -9 -20 -20 -20 -11 -1 -16 -20 -20 -20 -20 -20 -20 -20 -20 -20 -20 -20 -20 -20 -20 -20
-16 -0 -10 19 -10 17 1 9 -20 -15 -20 4 35 10 12 15 -20 -20 -20 -5 2 -1 -20 -20 -20 -19 1 -6 -18 -20 -20 -20 -20 -20 -20 -20 -20 -20 -20 -20 -20 -20 -20 -20 -20
-20 -20 -20 22 24 24 18 -20 4 -11 -20 -17 32 12 5 -6 -20 -7 -20 -20 -20 -4 -20 -20 -20 -20 -20 -20 -20 -20 -20 -20 -20 -20 -20 -20 -20 -20 -20 -20 -20 -20 -20 -20 -20
-8 2 15 24 -19 10 11 -12 -7 8 -9 18 20 17 11 -4 -20 -17 -9 -20 -20 -20 -20 -20 -20 -20 -20 -20 -20 -20 -20 -20 -20 -20 -20 -20 -20 -20 -20 -20 -20 -20 -20 -20 -20
29 15 23 7 35 10 -20 21 -11 -6 35 23 38 10 -18 0 -14 7 -7 -20 -20 -8 16 -20 -20 -20 -20 -20 -20 -20 -20 -20 -20 -20 -20 -20 -20 -20 -20 -20 -20 -20 -20 -20 -20
25 5 3 -12 -20 -19 -20 -0 17 27 34 19 7 3 1 3 10 9 -20 -20 -20 -20 -20 -20 -20 -20 -20 -20 -20 -20 -20 -20 -20 -20 -20 -20 -20 -20 -20 -20 -20 -20 -20 -20 -20
-20 -5 -13 -20 -20 -20 -18 10 20 26 36 8 6 12 20 6 -2 7 3 -20 -20 -20 -20 -20 -20 -20 -20 -20 -20 -20 -20 -20 -20 -20 -20 -20 -20 -20 -20 -20 -20 -20 -20 -20 -20
-20 -15 -17 6 -11 1 15 21 21 36 15 -20 13 6 -14 -8 -15 7 5 -20 -20 -20 -20 -20 -20 -20 -20 -20 -20 -20 -20 -20 -20 -20 -20 -20 -20 -20 -20 -20 -20 -20 -20 -20 -20
-20 -18 -20 -20 -20 -20 -2 15 25 20 27 -9 -20 -20 -20 -20 -19 6 -20 -20 -20 -20 -20 -20 -20 -20 -19 -20 -20 -20 -20 -20 -20 -20 -20 -20 -20 -20 -20 -20 -20 -20 -20 -20 -20
-20 -20 -7 -20 -10 9 26 33 33 25 -20 -20 -20 -20 -20 -20 -20 -20 -20 -20 -20 -20 -20 -20 -20 -20 -20 -20 -20 -20 -20 -20 -20 -20 -20 -20 -20 -20 -20 -20 -20 -20 -20 -20 -20
-20 -20 -20 -20 -15 -10 14 3 -11 4 -12 -20 -20 -20 -20 -20 -13 -18 -20 -20 -20 -20 -20 -20 -20 -20 -20 -20 -20 -20 -20 -20 -20 -20 -20 -20 -20 -20 -20 -20 -20 -4 -3 -11 -20
-20 -20 -20 -19 -7 27 35 22 -14 -13 -20 -20 -20 -20 -20 -20 -20 -20 -20 -20 -20 -20 -20 -20 -20 -20 -20 -20 -20 -20 -20 -20 -20 -12 -20 -20 -20 -20 -20 -20 6 11 -2 -16 -13
-20 -20 -20 -20 -20 -13 -15 -11 2 8 -19 -20 -20 -20 1 -20 -20 -20 -20 -20 -20 -12 -20 -20 -20 -20 -20 -20 -20 -20 -20 -20 -20 -20 -20 -20 -20 -20 -20 -3 20 18 -1 -1 4
-20 -20 -20 -20 -20 -20 -20 -20 -20 -20 -20 -20 -20 -20 -20 -20 -20 -20 -20 -20 -20 -20 -20 -20 -20 -20 -20 -20 -20 -20 -20 -20 -20 -20 -20 -20 -20 -20 5 14 8 11 1 -1 9
-2 -20 -2 -20 -20 -20 -20 -20 -20 -20 -20 -20 -20 -20 -20 -20 -20 -20 -20 -20 -20 -20 -20 -20 -20 -20 -20 -20 -20 -20 -20 -20 -20 -20 -20 -20 -20 -20 -14 11 -12 -7 4 11 4

GFSSW_prec_radar_045.txt.gz
Reflectivity
9 10 8 9 7 10 10 -0 -5 -12 -12 -18 27 17 -13 -20 5 6 -19 -19 -20 -20 -20 -20 -20 -20 -20 -20 -20 -20 -20 -20 -20 -20 -20 -20 -20 -20 -20 -20 -20 -20 -20 -20 -20
7 17 14 11 20 13 -0 6 13 -19 4 -1 -5 25 12 0 -11 -3 -20 -20 -20 -20 -4 -20 -20 -20 -20 -20 -20 -20 -20 -20 -20 -20 -20 -20 -20 -20 -20 -20 -20 -20 -20 -20 -20
14 -6 -8 -18 1 15 -19 17 -8 -0 -20 -19 -4 28 18 2 -2 -20 -20 -20 -20 -20 -5 -20 -20 -20 -20 -20 -20 -20 -20 -20 -20 -20 -20 -20 -20 -20 -20 -20 -20 -20 -20 -20 -20
-2 -3 1 -20 -20 -3 -20 -11 5 -3 -17 -3 -20 -1 35 -17 -20 -10 -20 -20 -20 -18 15 -20 -20 -20 -20 -20 -20 -20 -20 -20 -20 -20 -20 -20 -20 -20 -20 -20 -20 -20 -20 -20 -20
2 2 -17 -6 23 22 14 -4 -16 -20 3 -20 9 8 39 8 -20 -12 -7 -20 -9 12 13 -20 -20 -20 -20 -20 -20 -20 -20 -20 -20 -20 -20 -20 -20 -20 -20 -20 -20 -20 -20 -20 -20
14 11 4 -3 12 9 11 8 -13 -20 5 -20 2 -8 17 -8 -10 -19 4 -20 -16 3 -20 -12 -20 -20 -20 -20 -20 -20 -20 -20 -20 -20 -20 -20 -20 -20 -20 -20 -20 -20 -20 -20 -20
9 -1 3 -3 21 21 2 -5 21 -20 8 -20 -11 19 29 20 -11 -12 -9 -17 -20 2 -18 -19 -20 -20 -20 -20 -20 -20 -20 -20 -20 -20 -20 -20 -20 -20 -20 -20 -20 -20 -20 -20 -20
19 18 6 1 -11 1 -13 -1 -10 -20 -13 -20 5 32 26 14 24 -19 -19 -20 25 29 24 -14 -15 -20 -20 -20 -20 -20 -20 -20 -20 -20 -20 -20 -20 -20 -20 -20 -20 -20 -20 -20 -20
-1 9 -3 -6 -14 -9 15 -9 -14 3 -16 -15 6 30 22 -18 -2 -12 -20 -11 8 26 25 14 19 -1 -20 -8 -20 -20 -20 -20 -20 -20 -20 -20 -20 -20 -20 -20 -20 -20 -20 -20 -20
6 8 6 -17 1 -7 3 -15 -20 -20 -20 -2 -13 30 -8 -18 23 -17 -20 -19 -20 -18 21 10 25 14 -13 4 -15 -20 -20 -20 -20 -20 -20 -20 -20 -20 -20 -20 -20 -20 -20 -20 -20
12 7 -3 -20 -18 4 -9 -20 -2 -20 -20 -20 4 12 -14 11 -7 -16 -8 -20 -0 22 15 12 6 12 -20 -20 -20 -20 -20 -20 -20 -20 -20 -20 -20 -20 -20 -20 -20 -20 -20 -20 -20
16 -20 3 -20 13 6 -13 -17 -16 -17 -19 -20 14 3 -1 -6 24 -20 -20 -20 -6 2 13 -10 -8 25 -3 13 -20 -12 -20 -20 -20 -20 -20 -20 -20 -20 -20 -20 -20 -20 -20 -20 -20
-20 -20 -14 -15 8 -20 -20 -20 -20 -20 -6 -19 18 14 25 -7 19 -20 -20 -20 3 18 12 -11 -11 17 24 22 29 1 -20 -20 -20 -20 -20 -20 -20 -20 -20 -20 -20 -20 -20 -20 -20
7 8 -20 -5 -20 -0 18 20 -20 -19 -19 -19 13 33 15 -12 3 -20 -20 14 -16 26 -20 -20 -20 29 -1 -2 -20 -20 -20 -20 -20 -20 -20 -20 -20 -20 -20 -20 -20 -20 -20 -20 -20
15 28 23 26 -12 22 18 -20 -20 -19 -20 8 24 25 12 -20 -20 -9 17 -16 -20 -20 -18 6 -20 -20 -20 -16 -20 -20 -20 -20 -20 -20 -20 -20 -20 -16 -20 -20 -20 -20 -20 -20 -20
18 -2 19 22 33 14 22 -15 -20 -0 2 10 19 41 4 -8 -20 -15 -1 -20 -20 -20 -20 -20 -20 -20 -20 -20 -20 -20 -20 -20 -20 -20 -20 -20 -20 -20 -20 -20 -20 -20 -20 -20 -20
12 -10 11 22 9 5 13 9 -20 -12 9 35 36 27 20 13 6 13 -5 -17 -13 3 -13 -20 -20 -20 -20 -20 -20 -20 -20 -20 -20 -20 -20 -20 -20 -20 -20 -20 -20 -20 -20 -20 -20
-17 -20 -20 -20 -20 -20 -20 -15 -9 -12 22 28 26 1 14 10 18 4 -20 -20 -20 -18 -2 -11 -20 -20 -20 -20 -20 -20 -20 -20 -20 -20 -20 -20 -20 -20 -20 -20 -20 -20 -20 -20 -20
-20 -20 -20 -15 -10 -1 -18 -6 -10 -19 27 24 11 0 26 -7 25 9 -0 -20 -20 -20 -20 -20 -20 -20 -20 -20 -20 -20 -20 -20 -20 -20 -20 -20 -20 -20 -20 -20 -20 -20 -20 -20 -20
-20 -20 -20 3 9 13 10 22 26 34 27 8 7 -5 -12 -18 -5 -17 -19 -20 -20 -20 -20 -20 -20 -20 -20 -20 -20 -20 -20 -20 -20 -20 -20 -20 -20 -20 -20 -20 -20 -20 -20 -20 -20
-20 -20 -20 -20 -20 -14 2 22 30 28 10 -16 -20 -20 -20 -20 -20 -18 -20 -20 -20 -20 -20 -20 -20 -5 -20 -20 -20 -20 -20 -20 -20 -20 -20 -20 -20 -20 -20 -20 -20 -20 -20 -20 -20
-20 -20 -20 -20 -20 -20 4 23 0 -20 -20 -20 -20 -20 -20 -20 -20 -20 -20 -20 -20 -20 -20 -20 -20 -20 -20 -20 -20 -20 -20 -20 -20 -20 -20 -20 -20 -20 -20 -20 -20 -20 -20 -20 -20
-20 -20 -20 -20 -20 -16 -20 -19 -20 -20 -20 -20 -20 -20 -20 -20 -20 -20 -20 -20 -20 -20 -20 -20 -20 -20 -20 -20 -20 -20 -20 -20 -20 -20 -20 -20 -20 -20 -20 -20 -20 -20 -20 -20 -20
-20 -20 -20 -20 -19 6 -19 -20 -19 -20 -20 -20 -20 -20 -20 -20 -20 -20 -20 -20 -20 -20 -20 -20 -20 -20 -20 -20 -20 -20 -20 -20 -20 -20 -20 -20 -20 -20 -20 -20 -20 -20 -20 -20 -20
-20 -20 -16 -20 -20 -20 -17 -20 -9 -20 -20 -20 -20 -20 -20 -20 -20 -20 -20 -20 -20 -14 -20 -20 -20 -20 -20 -20 -20 -20 -20 -20 -20 -20 -20 -20 -20 -20 -20 -20 -20 4 -15 -20 -20
-20 -20 -19 -20 -20 -20 -20 -20 -20 -20 -20 -20 -20 -20 -20 -20 -20 -20 -20 -20 -20 -20 -20 -20 -20 -20 -20 -20 -20 -20 -20 -20 -20 -20 -20 -20 -20 -20 -20 -16 -20 20 -20 -20 -20
-20 -20 -12 -20 -20 -20 -20 -20 -20 -20 -19 -20 -20 -20 -20 -20 -20 -20 -20 -20 -20 -20 -20 -20 -20 -20 -20 -20 -20 -20 -20 -20 -20 -20 -20 -20 -20 -20 -20 -20 -20 -20 -20 -20 -20

GFSSW_prec_radar_048.txt.gz
Reflectivity
6 3 -19 17 17 -8 -13 14 3 -3 7 -20 4 4 27 6 -13 9 -18 -20 -12 -4 4 -15 -20 -20 -20 -20 -20 -20 -20 -20 -20 -20 -20 -20 -20 -20 -20 -20 -20 -20 -20 -20 -20
-12 -4 -1 -2 4 -8 3 19 -20 -6 -20 -20 -20 -19 24 30 4 -18 -20 -20 -20 -20 -3 -12 -20 -20 -20 -20 -20 -20 -20 -20 -20 -20 -20 -20 -20 -20 -20 -20 -20 -20 -20 -20 -20
16 17 4 11 -16 10 17 -18 21 20 -20 -20 -20 -19 17 27 0 -20 -20 -19 -20 -20 7 -4 -2 -20 -20 -20 -20 -20 -20 -20 -20 -20 -20 -20 -20 -20 -20 -20 -20 -20 -20 -20 -20
3 5 15 -16 -12 13 10 22 -17 -12 -20 -20 -20 2 3 0 17 -20 -4 -10 -20 -20 14 8 7 -20 -20 -20 -20 -20 -20 -20 -20 -20 -20 -20 -20 -20 -20 -20 -20 -20 -20 -20 -20
-20 9 9 4 10 17 18 -20 27 -7 -3 -20 -20 3 10 34 21 21 -1 -2 -20 -16 -1 15 -16 -20 -20 -20 -20 -20 -20 -20 -20 -20 -20 -20 -20 -20 -20 -20 -20 -20 -20 -20 -20
-2 -3 13 4 2 17 -7 24 -10 -10 -17 7 4 -5 17 13 -8 16 -10 6 -17 10 -7 13 -6 -20 -20 -20 -20 -20 -20 -20 -20 -20 -20 -20 -20 -20 -20 -20 -20 -20 -20 -20 -20
18 -11 -2 -18 -6 -1 23 24 14 4 1 4 -7 14 30 18 2 29 -20 25 -18 -19 6 -20 -20 -20 -20 -20 -20 -20 -20 -20 -20 -20 -20 -20 -20 -20 -20 -20 -20 -20 -20 -20 -20
-20 4 15 -15 3 -13 16 -15 -20 -7 1 2 -12 23 24 10 25 -18 -20 25 27 26 -12 -20 -20 -20 -20 -20 -20 -20 -20 -20 -20 -20 -20 -20 -20 -20 -20 -20 -20 -20 -20 -20 -20
-20 -9 11 -9 -8 12 -6 -20 -20 -8 -17 -19 2 2 -0 -16 -2 -12 -20 11 29 16 28 26 -13 -5 -20 -20 -20 -20 -20 -20 -20 -20 -20 -20 -20 -20 -20 -20 -20 -20 -20 -20 -20
5 -6 8 6 8 -6 13 -20 -20 -20 -20 -20 -9 18 18 -4 30 3 -20 17 8 23 26 22 20 12 -20 -6 -20 -8 -20 -20 -20 -20 -20 -20 -20 -20 -20 -20 -20 -20 -20 -20 -20
0 4 -20 -20 9 17 -18 -20 -20 -20 -20 -20 2 12 -0 -11 -17 13 -20 19 10 27 33 11 14 11 -20 -20 -20 -20 -20 -20 -20 -20 -20 -20 -20 -20 -20 -20 -20 -20 -20 -20 -20
17 -16 -14 -20 9 25 -14 -20 -20 -20 -16 -20 -20 16 12 3 -11 15 -6 -15 -2 22 31 40 18 -12 -20 -18 -20 -20 -20 -20 -20 -20 -20 -20 -20 -20 -20 -20 -20 -20 -20 -20 -20
24 24 -6 -20 -20 -20 -20 -20 -10 -20 -5 1 -15 18 27 10 30 -2 -19 -20 1 26 23 33 30 26 7 10 9 -13 -20 -20 -20 -20 -20 -20 -20 -20 -20 -20 -20 -20 -20 -20 -20
-19 14 24 14 -20 4 -12 11 -13 -19 -20 -18 -20 11 13 29 27 -4 -13 22 -4 -9 -0 1 -18 2 34 34 12 16 -4 -20 -20 -20 -20 -20 -20 -20 -20 -20 -20 -20 -20 -20 -20
-19 2 10 17 6 18 1 1 -13 -20 -20 -20 -7 13 20 5 21 -17 -19 21 3 14 -18 13 7 -20 34 21 9 -8 -20 -20 -20 -20 -20 -20 -20 -20 -20 -20 -20 -20 -20 -20 -20
-20 2 -2 -20 -17 19 -20 -20 -20 -20 -20 -20 19 39 29 -1 32 -3 18 -9 -12 2 24 -12 -16 -16 -3 5 -11 -20 -20 -20 -20 -20 -20 -20 -20 -20 -20 -20 -20 -20 -20 -20 -20
-20 -20 -20 -19 -20 -18 -20 -20 -20 -20 -11 23 27 29 12 11 12 14 -7 6 -17 -14 13 1 -19 -15 -20 -19 -14 -20 -20 -14 -20 -20 -20 -20 -20 -20 -20 -20 -20 -20 -20 -20 -20
-20 -15 -5 -8 -7 -17 -19 -20 -20 -18 20 5 26 13 21 11 14 0 27 -20 -12 -20 -20 -20 -11 -20 -20 -20 -20 -20 -20 -20 -20 -20 -20 -20 -20 -20 -20 -20 -20 -20 -20 -20 -20
-20 -20 -14 -20 -19 -20 -20 -20 -2 16 28 35 29 9 5 15 17 28 -20 -20 5 -20 -20 -20 -20 -20 -20 -20 -20 -20 -20 -20 -20 -20 -20 -20 -20 -20 -20 -20 -20 -20 -20 -20 -20
-20 -20 -20 -20 -11 -20 -20 -12 -0 31 34 24 19 10 -20 -2 -15 10 -20 -20 -20 -20 -20 -20 -20 -20 -20 -20 -20 -20 -20 -20 -20 -20 -20 -20 -20 -20 -20 -20 -20 -20 -20 -20 -20
-20 -20 -20 -20 -20 -20 -20 8 16 -18 -20 -20 -20 -20 -20 -7 -20 -20 -20 -20 -20 -20 -20 -20 -20 -9 -20 -20 -20 -20 -20 -20 -20 -20 -20 -20 -20 -20 -20 -20 -20 -20 -20 -20 -20
-20 -20 -20 -20 -20 -20 -4 1 -20 -20 -20 -20 -20 -20 -20 -20 -20 -20 -20 -20 -20 -20 -20 -20 -20 -20 -4 -20 -20 -20 -20 -20 -20 -20 -20 -20 -20 -20 -20 -20 -20 -20 -20 -20 -20
-20 -20 -20 -20 -20 -18 -20 -20 -20 -20 -20 -20 -20 -20 -20 -20 -20 -20 -20 -20 -20 -20 -20 -20 -20 -20 -20 -20 -20 -20 -20 -20 -20 -20 -20 -20 -20 -20 -20 -20 -20 -20 -20 -20 -20
-20 -20 -20 -20 -20 -18 -20 -11 -20 -20 -20 -20 -20 -20 -20 -20 -20 -20 -20 -20 -20 -20 -20 -20 -20 -20 -20 -20 -20 -20 -20 -20 -20 -20 -20 -20 -20 -20 -20 -20 -20 -20 -20 -20 -20
-20 -20 -16 -20 -20 -20 -20 -20 -20 -20 -20 -20 -20 -20 -20 -20 -20 -20 -20 -20 -20 -20 -20 -20 -20 -20 -20 -20 -20 -20 -20 -20 -20 -20 -20 -20 -20 -20 -20 -20 -20 -20 -20 -20 -20
-20 -9 -8 -20 -2 -20 -20 -20 -20 -20 -20 -20 -20 -20 -20 -20 -20 -20 -20 -20 -20 -20 -20 -20 -20 -20 -20 -20 -20 -20 -20 -20 -20 -20 -20 -20 -20 -20 -20 -20 -20 -20 -12 -20 -20
-17 -10 -8 -20 -20 -20 -20 -20 -20 -20 -18 -20 -20 -20 -20 -20 -20 -20 -20 -20 -20 -20 -20 -20 -20 -20 -20 -20 -20 -20 -20 -20 -20 -20 -20 -20 -20 -20 -20 -20 -20 -20 -20 -20 -20

GFSSW_prec_radar_051.txt.gz
Reflectivity
18 11 6 -8 -20 -14 -1 7 2 21 -12 -20 -20 -20 6 16 18 18 3 -20 -20 -2 10 -4 -7 16 -20 -20 -20 -20 -20 -20 -20 -20 -20 -20 -20 -20 -20 -20 -20 -20 -20 -20 -20
8 -2 0 -3 15 13 -11 8 -10 16 12 -20 -20 -20 -20 -1 16 13 -20 -20 -20 -20 -2 4 8 16 -20 -20 -20 -20 -20 -20 -20 -20 -20 -20 -20 -20 -20 -20 -20 -20 -20 -20 -14
12 2 -8 17 18 -18 20 12 -20 10 19 -20 -20 -20 -20 10 26 -3 -20 -5 -20 -20 -17 -8 -20 8 -20 -20 -20 -20 -20 -20 -20 -20 -20 -20 -20 -20 -20 -20 -20 -20 -20 -20 9
-20 -20 19 -1 -18 15 10 1 2 -3 20 22 -20 -20 -19 -6 17 -15 -18 -17 -11 -20 8 5 -17 13 -17 -20 -20 -20 -20 -20 -20 -20 -20 -20 -20 -20 -20 -20 -20 -20 -20 -20 -20
-20 -20 -11 -1 2 7 -1 13 -5 -20 -17 21 -15 -4 -1 21 5 6 -9 8 -12 -20 -20 11 -15 6 -13 -20 -20 -20 -20 -20 -20 -20 -20 -20 -20 -20 -20 -20 -20 -20 -20 -20 -20
-20 -16 -1 -12 -20 -20 -20 14 8 -6 -9 4 16 23 15 10 -2 15 -20 -18 1 -18 6 -7 -20 -20 -20 -20 -20 -20 -20 -20 -20 -20 -20 -20 -20 -20 -20 -20 -20 -20 -20 -20 -20
-20 5 22 -18 -9 -6 20 18 -20 -12 -20 -3 -8 19 14 -19 -14 -20 -20 -20 10 2 10 3 -20 -20 -20 -20 -20 -20 -20 -20 -20 -20 -20 -20 -20 -20 -20 -20 -20 -20 -20 -20 -20
19 11 -8 -14 5 2 -16 -9 -20 28 -17 -17 -20 5 5 3 -11 9 14 -13 1 2 11 11 -19 -20 -20 -20 -20 -20 -20 -20 -20 -20 -20 -20 -20 -20 -20 -20 -20 -20 -20 -20 -20
11 9 -15 23 -20 12 -19 -20 -20 -7 -7 1 -0 -20 13 8 9 -12 22 -15 3 24 26 29 22 21 -9 -20 -20 -20 -20 -20 -20 -20 -20 -20 -20 -20 -20 -20 -20 -20 -20 -20 -20
16 5 9 -2 -20 -7 3 -20 -20 -20 11 7 19 12 0 12 18 3 11 8 23 22 30 29 20 3 -2 -13 -20 -20 -20 -20 -20 -20 -20 -20 -20 -20 -20 -20 -20 -20 -20 -20 -20
23 20 16 15 -20 11 -20 -20 -20 -20 -20 -20 6 -20 16 20 2 11 -18 10 24 28 21 23 5 -3 -19 -20 -20 -20 -20 -20 -20 -20 -20 -20 -20 -20 -20 -20 -20 -20 -20 -20 -20
10 22 20 9 -0 8 -20 -20 -20 -20 -20 -20 -20 -8 10 14 21 5 -15 26 25 32 39 18 6 -10 -20 -5 -20 -20 -20 -20 -20 -20 -20 -20 -20 -20 -20 -20 -20 -20 -20 -20 -20
5 0 22 23 5 -20 -20 -20 -1 -19 -9 -13 12 8 23 30 10 13 12 24 18 33 39 25 13 12 -20 11 -3 -20 -20 -20 -20 -20 -20 -20 -20 -20 -20 -20 -20 -20 -20 -20 -20
5 -2 21 -12 -20 -11 -20 11 17 -20 -20 4 14 23 30 15 19 4 18 18 27 39 34 39 33 16 21 2 -17 -20 -20 -20 -20 -20 -20 -20 -20 -20 -20 -20 -20 -20 -20 -20 -20
-3 -10 -18 -16 9 17 -4 3 -20 -20 -20 -20 -13 19 18 7 -12 19 -3 12 17 28 27 11 34 36 33 27 -15 -15 -20 -20 -20 -20 -20 -20 -20 -20 -20 -20 -20 -20 -20 -20 -20
-19 -20 -20 -20 -20 -20 -20 -20 -20 -20 -20 -17 10 28 31 7 9 -9 -2 -8 28 17 -5 1 9 5 12 29 31 22 -20 -20 -20 -20 -20 -20 -20 -20 -20 -20 -20 -20 -20 -20 -20
-20 -20 -20 -20 -7 -20 -20 -20 -20 -17 -13 10 -3 16 15 22 9 -1 29 -5 -2 18 25 21 7 -10 9 20 16 -20 -20 -20 -20 -20 -20 -20 -20 -20 -20 -20 -20 -20 -20 -20 -20
-20 -20 -20 -20 -20 -20 -20 -20 -20 -14 18 31 29 19 9 25 16 -0 34 -19 -20 7 -17 13 12 -17 -17 -17 -19 -20 -20 -20 -20 -20 -20 -20 -20 -20 -20 -20 -20 -20 -20 -20 -20
-20 -20 -20 -20 -20 -20 -20 -20 -20 -12 3 36 25 -3 14 3 4 4 -6 -20 -20 -20 -20 -20 -20 -20 -20 -20 -20 -20 -20 -20 -20 -20 -20 -20 -20 -20 -20 -20 -20 -20 -20 -20 -20
-20 -20 -20 -20 -20 -20 -20 1 -10 16 -8 19 -15 -12 -20 -4 11 15 6 -20 -20 -20 -20 -20 -20 -20 -20 -20 -20 -20 -20 -20 -20 -20 -20 -20 -20 -20 -20 -20 -20 -20 -20 -20 -20
-20 -20 -20 -20 -20 -20 -20 -16 -7 -20 -20 -20 -20 -20 -19 -20 -20 -20 -20 -20 -20 -20 -20 -20 -20 -19 -20 -20 -20 -20 -20 -20 -20 -20 -20 -20 -20 -20 -20 -20 -20 -20 -20 -20 -20
-20 -20 -20 -20 -20 -20 -20 -20 -7 -20 -20 -20 -20 -20 -20 -20 -20 -20 -20 -20 -20 -20 -20 -20 -20 -20 -12 -20 -20 -20 -20 -20 -20 -20 -20 -20 -20 -20 -20 -20 -20 -20 -20 -20 -20
-20 -20 -20 -20 -20 -20 -20 -20 -20 -20 -20 -20 -20 -20 -20 -20 -20 -20 -20 -20 -20 -20 -20 -20 -20 -20 -16 -18 -20 -20 -20 -20 -20 -20 -20 -20 -20 -20 -20 -20 -20 -20 -20 -20 -20
-20 -20 -20 -20 -20 -20 -20 -20 -20 -20 -20 -20 -20 -20 -20 -20 -20 -20 -20 -20 -20 -20 -20 -20 -20 -20 -20 -20 -20 -20 -20 -20 -20 -20 -20 -20 -20 -20 -20 -20 -20 -20 -20 -20 -20
-20 -20 -17 -20 -20 -20 -20 -20 -20 -20 -20 -20 -20 -20 -20 -20 -20 -20 -20 -20 -20 -20 -20 -20 -20 -20 -20 -20 -20 -20 -20 -20 -20 -20 -20 -20 -20 -20 -20 -20 -20 -20 -20 -8 -18
-20 -7 -16 -20 -20 -20 -20 -20 -20 -20 -20 -20 -20 -20 -20 -20 -20 -20 -20 -20 -20 -20 -20 -20 -20 -20 -20 -20 -20 -20 -20 -20 -20 -20 -20 -20 -20 -20 -20 -20 -20 -20 -20 -17 -20
-18 1 7 -20 -20 -20 -20 -20 -20 -20 -20 -20 -20 -20 -20 -20 -20 -20 -20 -20 -20 -20 -20 -20 -20 -20 -20 -20 -20 -20 -20 -20 -20 -20 -20 -20 -20 -20 -20 -20 -20 -20 -20 -20 -20

GFSSW_prec_radar_054.txt.gz
Reflectivity
-7 -20 10 18 -11 18 2 -10 -20 -17 3 9 -20 -20 -20 -20 6 14 -1 -8 -20 -20 4 -18 -19 4 -20 -20 -20 -20 -20 -20 -20 -20 -20 -20 -20 -20 -20 -20 -20 -20 -20 -20 -20
-20 10 -10 -5 -6 -19 -14 7 14 -3 10 13 0 -20 -20 -20 -20 -20 -20 -17 -20 -20 15 -6 7 14 -20 -20 -20 -20 -20 -20 -20 -17 -14 -20 -20 -20 -20 -20 -20 -20 -20 -20 -20
-12 -2 -9 -6 -20 -15 -18 -20 -17 -10 4 -15 22 -18 -20 -20 -15 -3 10 -20 -20 -20 -20 1 9 -1 -2 -20 -20 -20 -20 -20 -20 -1 6 -14 -20 -20 -20 -20 -20 -20 -20 -20 -20
2 18 -18 -20 -20 -16 -20 -20 -20 3 -20 -20 -10 18 -17 -20 -12 -20 -19 -18 -19 -20 5 4 6 18 8 -17 -20 -20 -20 -20 -20 -9 2 -3 -20 -20 -20 -20 -20 -20 -20 -20 -20
19 19 3 2 -6 11 -14 -11 12 -3 -3 -20 0 -5 -16 -2 -12 8 -19 -20 -9 9 4 2 8 10 8 -15 -20 -20 -20 -20 -20 -16 -3 -8 -20 -20 -20 -20 -20 -20 -20 -20 -20
21 17 1 8 -18 -6 -18 -0 -19 -1 9 -20 -18 -4 9 0 -20 1 22 -3 -20 9 -1 6 -8 7 7 2 -20 -20 -20 -20 -20 -20 -20 -20 -20 -20 -20 -20 -20 -20 -20 -20 -20
18 12 19 -20 15 -15 19 2 -20 -20 -19 23 -10 -18 -4 -20 -20 -20 28 -20 5 -12 -2 5 -20 11 -19 4 -20 -20 -20 -20 -20 -20 -20 -20 -20 -20 -20 -20 -20 -20 -20 -20 -20
18 19 16 14 -14 16 15 -7 -20 4 -12 -20 -7 8 -16 -20 -18 -20 14 -20 -15 -20 -17 2 -16 4 -14 -20 -20 -20 -16 -20 -20 -20 -20 -20 -20 -20 -20 -20 -20 -20 -20 -20 -20
20 21 23 20 -16 -20 2 -20 -20 -20 -14 29 5 -11 -20 -20 13 -7 19 -17 8 -17 8 12 24 -9 -7 -20 -13 -20 -20 -20 -20 -20 -20 -20 -20 -20 -20 -20 -20 -20 -20 -20 -20
11 18 4 23 -20 -20 -12 -20 -20 -20 -20 18 24 1 -20 13 7 -1 19 -11 8 6 25 27 28 21 18 -7 -20 -20 -20 -20 -20 -20 -20 -20 -20 -20 -20 -20 -20 -20 -20 -20 -20
4 12 10 18 21 -14 -20 -20 -20 -20 -20 -20 -20 -20 -5 -20 21 -13 -20 -17 25 8 4 18 41 17 -19 -20 -20 -20 -20 -20 -20 -20 -20 -20 -20 -20 -20 -20 -20 -20 -20 -20 -20
5 9 -2 21 1 -20 -20 -20 -20 -20 -20 -20 -20 -20 12 35 27 36 27 31 10 12 14 16 27 -2 8 -10 -20 -20 -19 -20 -20 -20 -20 -20 -20 -20 -20 -20 -20 -20 -20 -20 -20
5 -19 9 -2 -20 -20 -20 -9 9 -11 -11 -20 -0 -20 -9 18 22 27 11 35 14 8 19 24 8 20 -1 -20 -20 -20 -6 -18 -20 -20 -20 -20 -20 -20 -20 -20 -20 -20 -20 -20 -20
-7 6 4 -20 -20 -16 -20 1 -19 -20 2 2 19 32 22 6 21 18 31 38 34 17 13 34 -8 9 11 -4 -20 -19 -20 -20 -20 -20 -20 -20 -20 -20 -20 -20 -20 -20 -20 -20 -20
-20 -20 -12 -20 -8 -19 -7 9 -20 -20 22 32 34 30 39 11 -19 16 4 41 16 20 34 33 25 8 6 -1 -1 7 -20 -20 -20 -20 -20 -20 -20 -20 -20 -20 -20 -20 -20 -20 -20
-4 -20 -20 -20 -6 -3 -20 -20 -19 -20 14 13 19 13 -5 -5 -3 7 20 24 28 30 30 31 40 29 16 -13 3 -20 -20 -20 -20 -20 -20 -20 -20 -20 -20 -20 -20 -20 -20 -20 -20
-9 -20 -20 -20 -20 -20 -20 -20 -20 -11 -20 -8 15 14 -11 11 10 10 -2 4 21 19 15 34 26 27 34 30 28 -20 -20 -3 -20 -20 -20 -20 -20 -20 -20 -20 -20 -20 -20 -20 -20
-20 -20 -20 -20 -20 -20 -20 -20 -20 -8 -14 3 24 10 5 16 19 1 10 -11 -19 22 18 17 5 29 33 12 17 15 -20 -20 -20 -20 -20 -20 -20 -20 -20 -20 -20 -20 -20 -20 -20
-20 -20 -20 -20 -20 -20 -20 -20 -7 -20 -13 23 20 -8 32 -20 7 17 21 -20 -20 9 22 26 3 7 -14 -15 -20 -20 -20 -20 -20 -20 -20 -20 -20 -20 -20 -20 -20 -20 -20 -20 -20
-20 -20 -20 -20 -20 -20 -12 -20 -19 -20 -9 -20 -20 -20 -8 -13 -20 14 -20 -20 -20 -13 -20 -4 -13 -20 -20 -20 -20 -20 -20 -20 -20 -20 -20 -20 -20 -20 -20 -20 -20 -20 -20 -20 -20
-20 -20 -20 -20 -20 -20 -11 2 -20 -20 -20 -20 -20 -20 -20 -20 -20 -20 -20 -20 -20 -20 -20 -20 -20 -9 -20 -20 -20 -20 -20 -20 -20 -20 -20 -20 -20 -20 -20 -20 -20 -20 -20 -20 -20
-20 -20 -20 -20 -20 -20 -20 -20 -5 -20 -20 -20 -20 -20 -20 -20 -20 -20 -20 -20 -20 -20 -20 -20 -20 -3 3 -20 -20 -20 -20 -20 -20 -20 -20 -20 -20 -20 -20 -20 -20 -20 -20 -20 -20
-20 -20 -20 -20 -20 -20 -20 -20 -20 -20 -20 -20 -20 -20 -20 -20 -20 -20 -20 -20 -20 -20 -20 -20 -20 -3 3 -15 -20 -20 -20 -20 -20 -20 -20 -20 -20 -20 -20 -20 -20 -20 -20 -20 -20
-20 -11 -20 -20 -20 -20 -20 -20 -20 -20 -20 -20 -20 -20 -20 -20 -20 -20 -20 -20 -20 -20 -20 -20 -20 -20 -20 -20 -20 -20 -20 -20 -20 -20 -20 -20 -20 -20 -20 -20 -20 -20 -20 -20 -20
-20 -20 -17 -20 -20 -20 -20 -20 -20 -20 -20 -20 -20 -20 -20 -20 -20 -20 -20 -20 -20 -20 -20 -20 -20 -20 -20 -20 -20 -20 -20 -20 -20 -20 -20 -20 -20 -20 -20 -20 -20 -20 -20 -20 -20
-20 -11 -20 -20 -20 -20 -18 -20 -20 -20 -20 -20 -20 -20 -20 -20 -20 -20 -20 -20 -20 -20 -20 -20 -20 -20 -20 -20 -20 -20 -20 -20 -20 -20 -20 -20 -20 -20 -20 -20 -20 -20 -20 -20 -20
-20 -20 3 -14 -20 -20 -20 -20 -20 -20 -20 -20 -20 -20 -20 -20 -20 -20 -20 -20 -20 -20 -20 -20 -20 -20 -20 -20 -20 -20 -20 -20 -20 -20 -20 -20 -20 -20 -20 -20 -20 -20 -20 -20 -20

GFSSW_prec_radar_057.txt.gz
Reflectivity
9 14 -13 0 -18 -14 -20 -20 -20 16 -4 7 -18 18 -20 -20 -20 3 -20 12 -20 -20 9 -20 -19 9 -20 -20 -20 -20 -13 -20 -20 -20 -20 -20 -20 -20 -20 -20 -20 -20 -20 -20 -20
10 5 3 16 -20 -20 -20 -20 -20 -20 -11 -13 -20 19 -8 -20 -20 -16 -20 -9 -20 -20 3 -20 -17 4 -20 -20 -20 -20 -20 -20 -20 -20 -20 -20 -20 -20 -20 -20 -20 -20 -20 -20 -20
-14 12 2 -5 -20 -5 -20 -20 -3 -20 -17 -5 -20 7 22 -20 -20 -20 -20 -1 -20 -20 -15 -20 -20 2 -6 -20 -20 -20 -20 -20 1 -16 -19 -20 -20 -20 -20 -20 -20 -20 -20 -20 -20
-20 -6 -11 1 -9 7 -12 -19 -20 17 12 -20 -2 -20 22 -0 -20 -16 -20 -20 -20 -20 -20 -7 -20 12 13 -20 -20 -20 -20 -20 -14 -2 12 9 -20 -20 -20 -20 -20 -20 -20 -20 -20
10 1 -1 -0 2 16 9 -15 -9 -4 -13 -16 -20 -2 -7 12 -20 -20 -20 -20 -3 27 -20 7 -20 -7 4 -12 -17 -20 -20 -20 -20 11 15 8 -19 -20 -20 -20 -20 -20 -20 -20 -20
14 11 18 -18 3 5 4 13 -11 -17 -11 24 24 6 -20 -6 -20 -20 7 -15 13 22 -20 -20 -20 -20 -20 -7 -18 -20 2 -20 -20 3 13 1 -20 -20 -20 -20 -20 -20 -20 -20 -20
18 19 19 22 18 2 18 19 -3 -11 -20 -20 23 -0 10 -20 -20 10 12 -20 -16 17 -20 -20 -20 -13 -20 -20 -18 -20 5 -20 -20 -19 -10 -16 -20 -20 -20 -20 -20 -20 -20 -20 -20
11 21 7 20 24 2 -20 -20 -20 -14 -8 -11 17 22 5 -20 -20 -20 2 17 -2 21 -20 -20 -12 -9 -19 -20 -20 1 -7 -18 -20 -16 -20 -20 -20 -20 -20 -20 -20 -20 -20 -20 -20
21 -3 21 2 26 -6 -20 -20 -20 -9 -20 -2 4 20 -14 -20 -20 -20 39 39 16 26 -20 -20 22 -4 -1 11 14 9 -7 -20 10 -20 -20 -20 -20 -20 -20 -20 -20 -20 -20 -20 -20
-1 7 11 9 24 -20 -20 -20 -20 -20 -17 -15 27 20 -20 -20 -20 -20 -2 -6 17 23 19 27 29 26 19 18 -1 -20 -20 -20 -19 -20 -20 -20 -20 -20 -20 -20 -20 -20 -20 -20 -20
9 -4 -8 -20 -20 -20 12 -20 -2 24 -5 20 18 -20 13 -20 8 -12 25 17 31 6 6 19 10 27 -20 -20 -20 -20 -19 -11 -17 -20 -20 -20 -20 -20 -20 -20 -20 -20 -20 -20 -20
11 -2 13 -20 -20 -20 -20 1 -15 -8 13 -20 -20 -20 -18 33 8 29 -18 15 28 5 2 29 -9 11 -20 -20 -20 -20 -20 -20 -13 -20 2 -20 -20 -20 -20 -20 -20 -20 -20 -20 -20
12 7 -20 8 -20 -15 -12 -12 -20 -20 10 -17 16 -10 11 30 42 27 21 -2 17 -13 11 4 19 19 21 -20 -20 -20 -20 -20 -16 -20 -20 -20 -20 -20 -20 -20 -20 -20 -20 -20 -20
7 -6 -20 -20 4 3 -11 -20 -20 -14 21 -20 9 13 33 25 -3 -16 -9 32 28 8 15 -18 16 35 31 7 -20 -20 -20 -20 -9 -16 -20 -20 -20 -20 -20 -20 -20 -20 -20 -20 -20
7 3 -20 -20 -9 -19 -11 -20 9 9 16 19 27 13 26 32 33 19 15 21 -18 -15 11 -19 -2 37 13 13 -20 0 -20 -20 -20 -3 -20 -20 -20 -20 -20 -20 -20 -20 -20 -20 -20
9 -18 -20 -4 -20 -20 -20 -19 -18 3 24 33 32 34 37 30 36 36 34 7 -17 -13 -13 9 -4 27 23 -3 -16 -12 -20 -20 -20 -20 -20 -20 -20 -20 -20 -20 -20 -20 -20 -20 -20
13 -20 -20 -20 -14 -20 -1 8 -3 12 24 17 11 19 7 15 23 33 37 30 18 30 32 30 22 21 2 -17 11 -20 9 9 -14 -5 -13 -20 -20 -20 -20 -20 -20 -20 -20 -20 -20
-20 -20 -20 -20 -20 2 -10 -20 -20 -5 -2 -7 -9 -5 10 10 3 16 31 19 21 11 32 30 28 33 34 -19 -9 -19 13 15 -1 -4 -20 -20 -20 -20 -20 -20 -20 -20 -20 -20 -20
-20 -20 -20 -20 -20 -6 -20 -20 -19 -11 -2 -18 2 -17 4 8 -11 -19 2 1 -18 -20 3 7 16 27 24 30 12 27 -16 -20 -20 -20 -20 -20 -20 -20 -20 -20 -20 -20 -20 -20 -20
-20 -20 -20 -20 -20 -20 -1 -5 -18 -20 -20 -20 -15 -20 -20 -0 -18 -20 2 -20 -20 -20 -19 -20 19 22 29 32 35 27 1 -17 -20 -20 -20 -20 -20 -20 -20 -20 -20 -20 -20 -20 -20
-20 -20 -20 -20 -20 -20 -9 4 -16 -20 -19 -20 -20 -20 -11 -7 -19 -18 -20 -20 -20 -20 -20 -20 -4 6 -20 -17 -7 -14 -18 -2 -16 -20 -20 -20 -20 -20 -20 -20 -20 -20 -20 -20 -20
-20 -11 -20 -20 -2 -20 -2 -19 -20 -20 -20 -20 -20 -20 -2 -20 -20 -20 -20 -20 -20 -20 -20 -20 -20 -1 6 -20 -20 -20 -20 -20 -20 -20 -20 -20 -20 -20 -20 -20 -20 -20 -20 -20 -20
-20 -20 -20 -20 -16 -20 -20 -20 -20 -20 -20 -20 -20 -20 -20 -20 -18 -20 -20 -20 -20 -20 -20 -20 -20 -10 -8 -18 -20 -20 -20 -20 -20 -20 -20 -20 -20 -20 -20 -20 -20 -20 -20 -20 -20
-20 -12 -18 -20 -20 -6 -20 -20 -20 -20 -20 -20 -20 -20 -20 -20 -20 -20 -20 -20 -20 -20 -20 -20 -20 -20 -20 -20 -20 -20 -20 -20 -20 -20 -20 -20 -20 -20 -20 -20 -20 -20 -20 -20 -20
-20 -20 -17 -14 -5 -20 -20 -20 -20 -20 -20 -20 -20 -20 -20 -20 -20 -20 -20 -20 -20 -20 -20 -20 -20 -20 -20 -20 -20 -20 -20 -20 -20 -20 -20 -20 -20 -20 -20 -20 -20 -20 -20 -20 -20
-20 -2 -12 -18 -20 -20 4 -20 -20 -20 -20 -20 -20 -20 -20 -20 -20 -20 -20 -20 -20 -20 -20 -20 -20 -20 -20 -20 -20 -20 -20 -20 -20 -20 -20 -20 -20 -20 -20 -20 -20 -20 -20 -20 -20
-20 1 6 -20 -20 -17 -4 8 -2 -20 -20 -20 -20 -20 -20 -20 -20 -20 -20 -20 -20 -20 -20 -20 -20 -20 -20 -20 -20 -20 -20 -20 -20 -20 -20 -20 -20 -20 -20 -20 -20 -20 -20 -20 -20

GFSSW_prec_radar_060.txt.gz
Reflectivity
8 -20 13 22 -5 11 -20 15 -20 -20 0 -8 -3 -20 6 -10 -20 -20 -20 7 -20 -17 -20 -7 -20 0 1 -10 -18 3 31 -10 -20 -15 -20 -8 2 -20 -20 -20 -20 -20 -20 -20 20
-10 -0 -20 18 -4 16 15 -20 -14 -14 -20 -0 -20 -20 -20 20 -20 -20 -20 -19 -20 12 -20 -20 -9 -15 16 -14 -20 -19 -20 -20 -20 -20 -19 -11 21 -20 -20 -20 -20 -20 -20 -20 -20
-20 9 1 -9 1 6 -9 2 -20 1 -20 -1 -20 -20 -10 -17 8 -20 -20 -20 -20 25 -20 -10 -18 -20 10 -0 -8 -20 -20 -20 -20 12 15 -3 5 -20 -20 -20 -20 -20 -20 -20 -20
10 19 18 15 13 8 15 -12 -8 4 -19 21 -17 1 -20 11 11 -19 -20 -20 -20 -19 -20 20 -20 -4 12 -16 -12 -20 -20 -20 -1 7 8 -2 -20 -20 -20 -20 -20 -20 -20 -20 -20
9 10 18 23 12 20 -13 9 -1 -7 4 -20 -13 -2 -20 12 -9 -20 -20 -20 -20 -10 -3 14 -20 -4 -4 -20 -20 -20 -20 -20 0 -7 -20 -6 -5 -6 -20 -20 -20 -20 -20 -20 -20
7 10 20 20 -6 26 -6 -20 -7 -6 25 28 16 -20 -9 -20 -20 -20 -20 -6 17 18 31 -17 -20 -5 -20 -0 -20 -20 -16 3 -16 -20 -20 -8 16 -9 -20 -20 -20 -20 -20 -20 -20
8 9 16 8 22 -6 -18 -2 15 6 15 -20 -20 -20 -2 -20 -16 -20 -20 -20 3 11 19 -20 -20 -20 -20 8 -20 -20 8 9 3 -20 -13 6 6 -20 -20 -20 -20 -20 -20 -20 -20
15 11 11 17 20 26 18 -20 -20 -20 -20 -20 7 5 -16 -20 -20 -20 -20 12 -3 23 21 -20 -20 -20 -11 -15 6 7 -17 -14 -0 -20 7 -17 -20 -20 -20 -20 -20 -20 -20 -20 -20
9 6 7 5 -20 -20 -20 -20 -20 -20 -20 -3 3 -2 -18 -20 -20 -20 -20 6 -8 16 -20 -20 -20 -8 -15 3 8 16 -20 -20 -20 -13 12 -11 -20 -20 -20 -20 -20 -20 -20 -20 -20
3 9 5 -20 -20 -20 -20 -20 -20 -20 -12 -4 16 23 -20 -17 -20 -20 -20 5 18 19 27 28 16 -2 8 26 -11 -15 -20 -20 -20 -20 8 -10 -20 -20 -20 -20 -20 -20 -20 -20 -20
-11 8 -20 -19 -20 -20 -20 -20 -5 2 -16 -18 9 -8 -11 -20 -20 -10 1 22 24 22 42 4 13 -20 -20 -20 -20 -20 -20 -20 -20 -4 -9 -3 -20 -20 -20 -20 -20 -20 -20 -20 -20
-5 7 -20 -20 -20 -20 -20 -12 -4 -20 -16 -20 -20 -20 -20 -20 -16 -20 29 37 15 30 8 19 -11 -20 -20 -20 -19 -20 -20 -20 -20 -20 -10 -20 -20 -20 -20 -19 -17 -20 -20 -20 -20
6 -10 -12 -20 -20 -6 -20 -20 -20 -9 -11 0 0 -8 -18 -18 5 17 39 39 45 37 0 -4 -6 -20 -6 -20 -8 -20 -20 -20 -20 -20 -20 -17 -19 -20 -20 -18 -1 -20 -20 -20 -20
13 10 -19 -20 -16 -17 -19 -20 -20 -7 8 13 13 20 7 -6 -1 13 24 28 33 22 9 21 -13 -20 -2 -15 -20 5 -20 -20 -20 -20 -18 -13 -20 -20 -20 -20 -20 -20 -20 -20 -20
13 12 -20 -20 4 -20 -20 -16 -20 -13 -1 4 7 10 34 39 23 29 9 -0 25 8 -20 17 17 -15 10 -15 -17 -19 -20 -20 -20 -20 -4 -17 -20 -20 -20 -20 -20 -20 -20 -20 -20
-8 15 -20 -20 -1 -20 -20 -12 -5 -14 19 34 16 32 35 9 1 -17 -20 0 17 -20 -20 -9 -9 6 24 32 12 -4 -20 -20 -20 -20 -18 -20 -20 -20 -20 -20 -20 -20 -20 -20 -20
-20 -10 -20 -20 -3 -20 -18 -20 -5 -12 7 24 41 29 24 3 -12 -7 9 18 19 -13 4 4 -12 21 34 38 12 17 -20 -9 14 2 -20 -20 -20 -20 -20 -20 -20 -20 -20 -20 -20
-20 -20 -20 -20 -20 -19 -20 -4 -20 -11 -16 -8 17 8 9 33 36 34 27 1 5 -20 -18 -19 -4 13 32 20 13 10 -13 -20 -20 -3 -20 -20 -20 -20 -20 -20 -20 -20 -20 -20 -20
-20 -20 -20 -20 -20 -1 -4 -20 -20 -20 -19 -20 -12 7 29 -11 1 26 12 2 26 24 28 22 9 12 29 30 -20 -13 -20 -20 -20 -20 -20 -20 -20 -20 -20 -20 -20 -20 -20 -20 -20
-20 -20 -20 -20 -20 -20 -18 4 -20 -20 -20 -20 5 -7 -19 -20 -20 4 4 -20 -20 -9 6 4 -8 26 25 17 -5 -20 -20 -20 -20 -20 -20 -20 -20 -20 -20 -20 -20 -20 -20 -20 -20
-20 -20 -20 -20 -20 -20 -20 -19 -20 -20 -20 -20 -16 -20 -20 -20 -17 -16 -14 -20 -20 -20 -20 -2 9 24 16 32 26 27 9 -20 -20 -20 -20 -20 -20 -20 -20 -20 -20 -20 -20 -20 -20
-20 -8 -20 -20 -20 -8 -20 -20 -20 -20 -20 -20 -20 -20 -19 -20 -20 -20 -19 -20 -20 -20 -20 -20 -13 1 -3 -17 -3 24 -0 8 -15 -20 -20 -20 -20 -20 -20 -20 -20 -20 -20 -20 -20
-20 -20 -20 -20 -16 -13 -20 -20 -20 -20 -20 -20 -20 -20 -20 -20 -19 -20 -20 -20 -20 -20 -20 -20 -20 -9 -20 -20 -16 -20 3 -0 -8 4 2 -16 -20 -20 -20 -20 -20 -20 -20 -20 -20
-20 -20 -20 -1 -20 -20 -20 -20 -20 -20 -20 -20 -20 -20 -20 -20 -20 -20 -20 -20 -20 -20 -20 -20 -20 -20 -20 -14 -18 -20 -20 -20 -20 -20 -17 -20 -20 -20 -20 -20 -20 -20 -20 -20 -20
-20 -19 -15 -20 -20 -20 -20 -15 -20 -20 -20 -20 -20 -20 -20 -20 -20 -20 -20 -20 -20 -20 -20 -20 -20 -20 -20 -20 -20 -20 -20 -20 -20 -20 -20 -20 -20 -20 -20 -20 -20 -20 -20 -20 -20
-20 2 -20 -5 -20 -20 -4 -12 -20 -20 -20 -20 -20 -20 -20 -20 -20 -20 -20 -20 -20 -20 -20 -20 -20 -20 -20 -20 -20 -20 -20 -20 -20 -20 -20 -20 -20 -20 -20 -20 -20 -20 -20 -20 -20
-20 -20 -1 -20 -20 -11 -3 7 -16 -20 -20 -20 -20 -20 -20 -20 -20 -20 -20 -20 -20 -20 -20 -20 -20 -20 -20 -20 -20 -20 -20 -20 -20 -20 -20 -20 -20 -20 -20 -20 -20 -20 -20 -20 -20

GFSSW_prec_radar_063.txt.gz
Reflectivity
-20 -20 -20 -19 -3 5 -8 -0 -20 -10 -20 -20 -20 16 -17 -13 9 -20 -20 -6 -20 6 -20 -20 -4 8 11 6 12 1 38 10 10 26 -3 -15 5 -20 -20 -20 -20 -20 -20 -20 -20
12 17 16 21 12 -2 -12 -20 -9 -13 -20 -16 5 -16 10 -19 -10 -20 -20 -20 -20 -20 20 -20 -15 6 12 7 10 12 19 27 -19 -19 21 21 -9 10 -20 -20 -20 -20 -20 -20 -20
10 9 11 14 24 -20 -13 -15 -12 5 7 -20 -18 -7 -20 0 -5 -19 -20 -20 -20 -15 18 -20 -20 1 20 21 22 5 -20 5 19 17 24 30 11 9 -20 -20 -20 -20 -20 -20 -20
9 4 10 14 15 9 23 21 -10 -9 11 -4 -20 -20 13 30 -14 -20 -20 -17 -13 -20 21 -18 -20 -11 5 -4 3 -16 2 0 10 34 16 25 -4 6 -20 -20 -20 -20 -20 -20 -20
-0 11 0 3 5 10 -0 30 -20 -16 -19 -20 -20 7 -18 1 -20 12 -18 -19 11 0 4 -15 -20 -8 -19 -20 -9 2 8 5 6 7 8 14 17 -16 -20 -20 -20 -20 -20 -20 -20
11 14 9 12 14 12 17 29 2 16 13 10 -20 -20 -10 1 -12 23 -19 -20 6 22 23 13 -20 -20 -19 -3 -20 -2 -9 14 9 -20 -20 -19 -1 -20 -20 -20 -20 -20 -20 -20 -20
11 17 3 4 7 -12 -20 -16 -20 -18 -8 -17 -20 -20 -16 11 -20 -6 -19 -10 -2 19 4 21 -20 -20 -20 -20 -20 -19 5 11 9 -20 -20 -20 -20 -20 -3 -20 -20 -20 -20 -20 -20
7 10 4 -7 -20 -20 -20 -20 -20 -20 -20 -20 -17 -20 -20 -20 -20 15 14 -20 0 3 16 -20 1 -20 16 3 -17 11 -20 5 -20 -20 -20 -14 -20 -20 8 -20 -20 -20 -20 -20 -20
6 9 -10 -19 -20 -20 -20 -20 -20 -20 -20 -12 -3 -20 -20 -20 -20 -20 -20 12 -0 13 17 -16 11 -20 -20 -12 16 22 -20 -20 -20 -20 -20 9 4 -20 -20 -20 -20 -20 -20 -20 -20
14 4 -20 -15 -20 -20 -20 -20 -20 -20 -20 -20 3 -20 -20 -13 -20 -20 -20 12 5 -12 14 27 19 -16 6 -3 -15 -11 -20 -20 -20 -20 -20 -11 -19 -20 -20 -20 -20 -20 -20 -20 -20
14 12 5 -20 -20 -20 -20 -20 -20 -20 -20 -20 -20 -20 -20 -20 -20 -20 -20 9 30 8 29 21 -9 -8 -20 -20 -20 -20 -20 -20 -20 -20 -20 2 -11 5 -20 -20 -20 -20 -20 -20 -20
13 14 -2 -20 -20 -20 -20 -20 -20 -20 -20 -20 -20 -20 -20 -20 -20 -20 -20 -16 29 33 46 21 -9 -20 -20 -20 -20 -20 -20 -20 -20 -20 -20 -11 -18 6 -20 -20 -20 -20 -20 -20 -20
1 14 1 -20 -20 -20 -20 -20 -20 -15 -2 17 -2 -2 -20 -20 -20 4 -20 -20 19 40 28 -14 -20 -20 -20 -20 -20 -20 -20 -20 -20 -20 -20 -20 -20 -20 -20 -20 -20 -20 -20 -20 -20
-8 -8 -6 -20 -20 -20 -20 -20 -20 -20 2 31 26 13 5 1 15 -0 -20 -8 9 35 34 7 -20 -20 3 -20 -20 -20 -20 -20 -20 -20 -20 -20 -20 -20 -20 -20 -20 -20 -20 -20 -20
-18 15 -14 -20 -20 -20 -20 -20 -20 -17 14 5 1 15 11 27 17 40 32 21 6 28 -5 -17 -19 -20 12 -19 -20 -20 -20 -20 -20 -20 -20 -20 -20 -20 -20 -20 -20 -20 -20 -20 -20
-20 13 -6 -20 -20 -20 -20 -20 -20 -6 23 24 5 32 16 15 35 25 28 43 28 36 -20 -11 -20 -20 -20 -20 -20 -20 -18 -20 -20 -20 -20 -20 -20 -20 -20 -20 -20 -20 -20 -20 -20
-20 -6 -20 -20 -20 -20 -17 -20 -20 -15 3 28 35 -1 -20 -6 -14 -1 39 9 15 -19 7 21 -5 -13 -12 -19 -20 -20 -8 -20 -2 -19 -20 -20 -20 -20 -20 -20 -20 -20 -20 -20 -20
-20 -20 -20 -20 -20 -20 -20 -20 -20 -20 -20 -19 20 -8 17 28 6 11 10 -2 -20 -20 -20 -19 12 18 -20 4 17 -19 -19 -20 -20 -20 -20 -20 -20 -20 -20 -20 -20 -20 -20 -20 -20
-20 -20 -20 -20 -20 -20 -20 -20 -20 -20 -20 -20 -13 1 -16 17 35 23 15 -19 -20 -20 -20 -20 -16 4 23 19 24 22 -4 -20 -20 -20 -20 -20 -20 -20 -20 -20 -20 -20 -20 -20 -20
-20 -20 -20 -20 -20 -20 -20 -20 -20 -20 -20 -20 -14 -20 -20 -14 -5 -20 -19 -17 -20 -20 -20 -20 -13 -14 -11 29 23 -2 6 -11 -20 -20 -20 -20 -20 -20 -20 -20 -20 -20 -20 -20 -20
-20 -20 -20 -20 -20 -20 -20 -20 -20 -20 -20 -20 -20 -20 -20 -20 -17 -20 -20 -20 -20 -20 -20 -20 -20 20 -5 20 25 18 -8 -20 -20 -20 -20 -20 -20 -20 -19 -11 -20 -20 -20 -20 -20
-20 -20 -20 -20 -20 -20 -20 -20 -20 -20 -20 -20 -20 -20 -20 -20 -20 -20 -20 -20 -20 -20 -20 -19 -20 -13 21 -19 -19 -20 -12 -18 -20 -20 -20 -20 -20 -20 -20 -20 -20 -20 -20 -20 -20
-20 -20 -20 -20 -18 -19 -20 -20 -20 -20 -20 -20 -20 -20 -20 -20 -20 -20 -20 -20 -20 -20 -20 -20 -11 -17 3 15 0 18 -20 -20 -20 -20 -20 -20 -20 -20 -20 -20 -20 -20 -20 -20 -20
-20 -20 -20 -11 -19 -3 -18 -20 -14 -20 -20 -20 -20 -20 -20 -20 -20 -20 -20 -20 -20 -20 -20 -20 -20 -20 -20 -20 -20 -20 -12 -20 -3 -3 -10 -20 -20 -20 -20 -20 -20 -20 -20 -20 -20
-20 -20 -15 -19 -20 -20 -20 -15 -20 -20 -20 -20 -20 -20 -20 -20 -20 -20 -20 -20 -20 -20 -20 -20 -20 -20 -20 -20 -20 -20 -20 -20 -20 -9 -20 -20 -20 -20 -20 -20 -20 -20 -20 -20 -20
-20 -20 -20 -20 -20 -20 -11 -20 -6 1 -20 -20 -20 -20 -20 -20 -20 -20 -20 -20 -20 -20 -20 -20 -20 -20 -20 -20 -20 -20 -20 -20 -20 -20 -20 -20 -20 -20 -20 -19 -13 -20 -20 -20 -20
-20 -20 -14 -20 -20 -20 -12 -20 -20 -7 -20 -20 -20 -20 -20 -20 -20 -20 -20 -20 -20 -20 -20 -20 -20 -20 -20 -20 -20 -20 -20 -20 -20 -20 -20 -20 -20 -20 -20 -20 -20 -20 -20 -20 -20

GFSSW_prec_radar_066.txt.gz
Reflectivity
-20 7 9 9 16 9 -20 -20 -20 -20 -20 -20 -20 -15 -18 -8 17 9 -20 -20 -20 -20 13 -20 -20 -20 -20 8 24 13 -8 -11 -18 13 5 -19 -20 -20 -20 -20 -20 -20 -20 -20 -20
7 5 9 3 -3 -6 -11 30 0 -20 -20 -20 -16 -20 -4 -17 -20 -20 11 3 -15 -3 8 -20 -20 -20 -8 -6 -0 20 23 12 -20 12 17 -20 -20 -20 -20 -20 -20 -20 -20 -20 -16
11 -16 13 16 18 3 1 21 29 16 20 -20 -20 -20 -18 3 -20 -20 -14 12 -20 -5 24 -20 -20 -20 1 -8 -4 -5 9 -12 3 17 30 -8 -20 -20 -20 -20 -20 -20 -20 -20 -20
9 15 13 11 9 12 -7 -12 29 -17 -20 -20 -15 -20 -20 5 -20 -0 -1 3 4 -20 27 6 -20 -18 12 -13 -20 -4 9 3 18 35 37 28 3 -20 -20 -20 -20 -20 -20 -20 -20
7 10 9 15 9 12 -11 -20 4 25 -20 3 -20 -20 -20 -20 -20 -20 -20 -16 7 -17 -12 16 -20 -15 7 -20 -2 -4 9 18 22 25 25 36 33 6 -20 -20 -20 -20 -20 -20 -20
15 11 5 2 -4 1 -5 -20 -7 -20 -20 -20 -20 -20 -20 -20 -20 -18 26 -20 5 12 -20 16 -10 -20 0 -12 5 -15 14 19 28 -10 19 28 30 3 -20 -20 -20 -20 -20 -20 -20
17 10 3 -4 -20 -20 -20 -20 -20 -20 -20 -20 -20 -20 -20 -20 -20 -20 24 -8 -7 8 -13 18 -20 -20 -20 -20 -20 -8 18 11 5 10 14 -20 27 23 9 -20 -20 -20 -20 -20 -20
14 10 7 -19 -20 -20 -20 -20 -20 -20 -20 -20 -20 -15 -20 -20 -20 8 14 15 -16 6 7 28 23 -20 -20 -20 15 21 13 9 11 -4 11 -4 -20 -20 21 -16 -20 -20 -20 -20 -20
11 10 5 -20 -20 -20 -20 -20 -20 -20 -20 -19 -20 -20 -20 -20 -19 1 12 -10 -20 -19 20 23 29 -20 20 3 1 25 4 -20 8 -8 4 -2 -20 -20 5 -20 -20 -20 -20 -20 -20
14 12 8 -19 -20 -20 -20 -20 -20 -20 -20 -4 -20 -20 -20 -20 -20 -18 4 -16 7 15 23 30 27 -19 8 -8 -12 -20 -20 -20 -12 0 -20 -13 -20 -12 14 -7 -20 -20 -20 -20 -20
-0 13 15 -8 -20 -20 -20 -20 4 -20 -20 -20 -20 -20 -20 -20 -20 -0 6 -20 19 25 38 36 24 -20 -20 -20 -20 -20 -11 -20 -20 -2 -20 -20 -2 8 -19 -20 -20 -20 -20 -20 -20
1 5 -1 -20 -20 -20 -20 -20 14 -20 -2 -20 -20 -20 -20 -20 -20 12 -8 -18 17 33 26 39 -20 -20 -20 -20 -20 -20 -20 -20 -20 -4 0 -14 -19 -1 9 -20 -20 -20 -20 -20 -20
-5 14 8 -20 -20 -20 -20 -20 -20 -20 -17 -20 -14 1 -20 -20 -15 11 -10 6 30 25 37 15 -17 -20 -20 -20 -20 -20 -20 -20 -20 -20 -20 -20 -20 -20 -15 -20 -20 -20 -20 -20 -20
-7 -11 12 -20 -20 -20 -20 -20 -20 -20 -10 29 18 -15 -2 -20 -19 -6 -20 -17 13 8 34 10 -20 -20 -20 -20 -20 -20 -20 -20 -20 -20 -20 -20 -20 -20 -20 -20 -20 -20 -20 -20 -20
-20 -14 -17 -20 -20 -20 -20 -20 -20 -15 5 8 12 20 20 21 2 -20 -19 6 -0 -4 34 30 -20 -20 -20 -20 -20 -20 -20 -20 -20 -20 -20 -20 -20 -20 -20 -20 -20 -20 -20 -20 -20
-20 -10 -11 -20 -20 -13 -20 -20 -17 -16 -8 19 11 17 20 -6 13 16 23 24 30 40 28 -20 -20 -20 -20 -20 -4 -20 -20 -20 -20 -20 -13 -20 -20 -20 -20 -20 -20 -20 -20 -20 -20
-20 -20 -8 -20 -20 -20 -20 -20 -20 -20 -0 -7 30 1 27 34 19 28 19 22 22 32 22 3 -13 -20 -20 -20 -8 -20 -20 -20 4 -5 -20 -20 -20 -20 -20 -20 -20 -20 -20 -20 -20
-20 -20 -20 -20 -20 -20 -20 -20 -20 -20 -20 -15 20 34 8 4 30 38 36 35 -7 -13 -3 -18 14 -20 -20 -20 -0 9 -20 -20 -20 -20 -20 -20 -20 -20 -20 -20 -20 -20 -20 -20 -20
-20 -20 -20 -20 -20 -20 -20 -20 -20 -20 -20 -20 -20 7 34 0 22 9 -2 -20 -20 -20 -20 -20 -20 -16 -20 -20 -20 -13 -20 -20 -20 -20 -20 -20 -20 -20 -20 -20 -20 -20 -20 -20 -20
-20 -20 -20 -20 -20 -20 -20 -20 -20 -20 -20 -20 -20 -20 -3 -19 -7 -20 -20 -20 -20 -20 -20 -20 -20 -6 -18 -19 3 -18 -20 -20 -20 -20 -20 -20 -20 -20 -20 -20 -13 -12 -20 -20 -20
-20 -20 -20 -20 -20 -20 -20 -20 -20 -20 -20 -20 -20 -20 -20 -20 -20 -20 -20 -20 -20 -20 -20 -20 -20 -1 6 13 7 31 -10 -20 -20 -20 -20 -20 -20 -20 -20 -20 -2 11 2 -20 -20
-20 -20 -20 -20 -20 -20 -20 -20 -20 -20 -20 -20 -20 -20 -20 -20 -20 -20 -20 -20 -20 -20 -20 -20 -20 6 11 -16 -14 -8 -20 -20 -20 -20 -20 -20 -20 -20 -20 -20 -20 -0 -11 -20 -20
-20 -20 -20 -20 -17 -20 -20 -20 -20 -20 -20 -20 -20 -20 -20 -20 -20 -20 -20 -20 -20 -20 -20 -20 -20 -20 -17 -20 -11 10 -20 -20 -20 -20 -20 -20 -20 -20 -20 -20 -20 -7 7 -0 -20
-20 -20 -20 -20 -8 -17 -20 -11 -20 -20 -20 -20 -20 -20 -20 -20 -20 -20 -20 -20 -20 -20 -20 -20 -20 -20 -20 -20 -20 -20 -20 -20 -20 -20 -20 -20 -20 -20 -20 -20 -20 -20 -18 -11 -20
-20 -20 -20 -20 -20 -12 -20 -9 -19 -15 -20 -20 -20 -20 -20 -20 -20 -20 -20 -20 -20 -20 -20 -20 -20 -20 -20 -20 -20 -20 -20 -20 -20 -10 -18 -20 -20 -3 -20 -20 -20 -20 -20 -20 -20
-20 -20 -20 -20 -20 -20 -20 -20 9 -9 -20 -20 -20 -20 -20 -20 -20 -20 -20 -20 -20 -20 -20 -20 -20 -20 -20 -20 -20 -20 -20 -20 -20 -20 -20 -20 -20 10 -20 -20 -20 -20 -20 -20 -20
-20 -20 -20 -20 -20 -20 -20 -20 -12 -10 -20 -20 -20 -20 -20 -20 -20 -20 -20 -20 -20 -20 -20 -20 -20 -20 -20 -20 -20 -20 -20 -20 -20 -20 -20 -20 -20 -20 -20 -20 -20 -20 -20 -20 -20

GFSSW_prec_radar_069.txt.gz
Reflectivity
8 3 -19 2 10 9 -20 15 -9 27 29 -20 -20 -17 -20 -20 15 -2 7 -20 -20 -20 10 -20 -20 -20 -20 9 -9 7 17 -10 -20 10 -3 -20 -20 -20 -20 -20 -20 -20 -20 -20 -20
15 14 5 10 -6 13 -16 -11 1 -2 6 -20 -15 -0 -7 -20 -18 12 14 -6 4 -20 0 -20 -20 -20 17 -20 -6 34 19 -20 -20 10 4 -20 -20 -20 -20 -20 -20 -20 -20 -20 -20
15 13 8 12 13 12 11 6 5 22 -11 -20 -20 -0 10 -20 -20 -19 17 23 3 2 -20 15 -20 -20 -16 2 -13 29 23 -20 -20 20 10 -20 -9 -20 -20 -20 -20 -20 -20 -20 -20
12 11 5 18 7 11 1 1 -15 4 26 -15 -20 -11 -20 -20 -20 -20 5 5 19 19 -14 16 -20 -20 14 -17 -20 -14 -5 -16 14 15 9 6 -3 -20 -20 -20 -20 23 -2 28 -20
11 14 11 19 4 9 -13 -20 -20 17 -13 -20 -20 -20 -20 -20 -20 -4 -15 7 1 6 2 6 -20 -20 -3 2 -12 -19 20 7 21 26 25 10 26 9 -20 -20 -20 -20 3 -3 -20
14 12 13 -5 1 -2 9 -20 -20 -20 -20 -20 -20 -20 -20 -20 -20 -20 -20 4 -7 16 -1 -12 -20 -20 -18 -20 11 -19 -20 13 19 26 20 24 9 7 -20 -20 -20 -20 -20 -20 -20
11 14 12 -17 -4 -20 -19 -4 -5 -20 -20 -20 -20 -20 -20 -20 -20 -20 -20 -19 -6 12 2 -11 -3 -20 -20 -16 -20 -20 -20 -0 -14 24 22 22 31 31 -20 -20 -20 -20 -17 -20 -20
10 14 11 11 -16 -19 -20 -20 -20 -20 -20 5 -8 -20 -20 -20 -20 -20 -20 -1 -20 1 12 6 7 -20 -19 -20 -20 6 7 -4 -9 26 27 30 30 32 22 -20 -20 -19 -20 -20 -20
2 11 14 4 -0 -20 -7 7 -20 -20 -20 -18 -20 -20 -20 -20 -20 -20 7 20 24 17 13 20 26 -20 -19 -20 -20 10 -20 -20 7 24 17 23 14 31 21 10 -20 -20 -20 -20 -20
-19 14 13 15 1 -20 -20 -20 -20 -20 -20 -20 -4 -20 -20 -20 -20 -20 7 29 28 -13 23 26 33 -20 -20 -4 -16 -20 -20 -20 1 6 9 -2 10 21 20 9 -0 -7 -20 -20 -20
-20 -20 13 15 1 -20 -20 -20 -20 -20 -20 -20 -20 -20 -20 -20 -20 24 10 25 2 6 20 7 32 -12 -20 -20 -20 -20 -20 -20 -4 2 11 12 12 28 5 -19 -17 -20 -20 -20 -20
-4 -6 12 13 -20 -20 -20 -20 -20 -20 -20 -20 -20 -20 -20 -20 -20 -19 1 -13 20 16 26 22 29 0 -20 -20 -20 -20 -20 -20 -4 9 1 13 10 20 12 -15 -20 -20 -20 -20 -20
-1 -14 12 8 -20 -20 -20 -20 -20 -20 -17 -5 -20 -20 -20 -20 -13 -20 -11 -20 13 17 12 22 20 13 -20 -20 -12 -20 -20 -20 -20 -9 -15 -0 8 12 -10 -19 -20 -20 -20 -20 -20
-1 -3 15 -11 -20 -20 -20 -20 -20 -20 -20 28 4 -20 2 -20 -2 -4 -20 3 27 32 1 24 27 -20 -20 -8 -20 -20 -20 -20 -20 -18 -20 -20 -20 1 -20 -20 -20 -20 -20 -20 -20
-20 -2 15 4 -20 -20 -20 -20 -20 -19 -19 19 9 2 -17 13 7 -11 -20 9 18 35 39 33 -13 -20 -20 -20 -20 -20 -20 -20 -20 -20 -20 -20 -20 -20 -20 -20 -20 -20 -20 -20 -20
-20 7 10 -20 -20 -20 -16 -20 -20 -16 -20 31 12 15 11 14 -8 -20 -5 1 11 28 32 14 -17 -20 -20 -20 -20 -20 -20 -20 -20 -20 -20 -20 -20 -20 -20 -20 -20 -20 -20 -20 -20
-20 -20 4 -20 -20 -14 -7 -20 -20 -20 -20 9 22 27 -19 13 22 24 6 6 34 21 25 9 -19 -20 -20 -20 -20 -20 -20 -20 -3 -9 -20 -20 -20 -20 -20 -20 -20 -20 -20 -20 -20
-20 -20 -20 -20 -20 -20 -5 -20 -20 -20 -20 -14 22 8 6 8 0 -2 -20 3 10 31 29 8 14 -20 -20 -20 -20 -20 -20 -20 -20 -20 -20 -20 -20 -20 -20 -20 -20 -20 -20 -20 -20
-20 -20 -20 -20 -20 -20 6 -20 -20 -20 -20 -20 -18 -13 -2 17 34 12 14 -1 -20 2 7 -13 -11 -18 -20 -20 -20 -20 -20 -20 -20 -20 -20 -20 -20 -20 -20 -20 -20 -20 -20 -20 -20
-20 -20 -20 -20 -20 -16 -20 -20 -20 -20 -20 -20 -20 -20 -20 -8 -1 -20 6 -15 -15 -7 -10 -19 -9 -20 -20 -20 -20 -20 -20 -20 -20 -20 -20 -20 -20 -20 -20 -20 -20 -20 -20 -20 -20
-20 -20 -20 -20 -20 -20 -20 -20 -20 -20 -20 -20 -20 -19 -20 -20 -20 -20 -20 -16 -20 -20 -20 -20 -20 -18 -8 2 -14 -20 -20 -20 -20 -20 -20 -20 -20 -20 -20 -20 -20 -20 -20 -20 -20
-20 -20 -20 -20 -20 -20 -20 -20 -20 -20 -20 -20 -20 -20 -20 -20 -20 -20 -20 -20 -20 -20 -20 -20 -20 -20 -13 -20 -19 -11 -10 -20 -20 -20 -20 -20 -20 -20 -20 -20 -20 -20 -20 -20 -20
-20 -20 -20 -20 -20 -20 -20 -20 -20 -20 -20 -20 -20 -20 -20 -20 -20 -20 -20 -20 -20 -20 -20 -20 -20 -20 -20 -20 -16 12 -1 -10 -20 -20 -20 -20 -20 -20 -20 -20 -20 -20 -20 -20 -20
-20 -20 -20 -20 -20 -20 -20 -20 -20 -20 -20 -20 -20 -20 -20 -20 -20 -20 -20 -20 -20 -20 -20 -20 -20 -20 -20 -20 -20 -9 4 -7 -20 -20 -20 -20 -20 -20 -20 -20 -20 -20 -20 -20 -20
-20 -20 -20 -20 -20 -20 -20 -20 -20 -20 -20 -20 -20 -20 -20 -20 -20 -20 -20 -20 -20 -20 -20 -16 -3 -20 -20 -20 -20 -20 -20 -20 -20 -20 -20 -3 -20 -20 -20 -20 -20 -20 -20 -20 -20
-20 -20 -20 -20 -20 -20 -20 -20 -20 -20 -20 -20 -20 -20 -20 -20 -20 -20 -20 -20 -20 -20 -20 -20 -20 -20 -20 -20 -20 -20 -20 -20 -20 -20 -20 -20 -20 7 -4 -5 -7 -15 -20 -20 -20
-20 -20 -20 -20 -20 -20 -20 -20 -20 -20 -19 -20 -20 -20 -20 -20 -20 -20 -20 -20 -20 -20 -20 -20 -20 -20 -20 -20 -20 -20 -20 -20 -20 -20 -20 -20 -6 -7 -20 -20 -20 -20 -20 -20 -20

GFSSW_prec_radar_072.txt.gz
Reflectivity
11 14 10 -0 14 13 13 14 -3 -12 -9 26 -11 -8 -20 -6 -20 -2 26 14 -20 -5 25 -20 -20 -20 -17 -20 13 33 -11 -20 -20 4 -19 -20 -20 -20 -20 -20 -20 -20 -20 -20 -20
9 4 13 -3 12 7 1 13 -20 -8 -16 25 21 -6 -20 -20 -20 -20 12 21 10 -20 -20 -9 -20 -20 8 -20 -9 21 -19 -20 -20 -2 11 -20 -20 -20 -20 -20 -20 -20 -20 -20 -20
7 -5 13 7 13 9 2 2 -2 -20 -20 23 22 16 -20 -20 -20 -20 6 27 8 -12 -20 -10 -20 -20 -20 -20 -20 -15 -7 -20 -10 14 17 -16 -20 -20 -20 -20 -20 -20 21 18 -20
8 -7 14 -5 16 7 0 2 -20 -20 -20 -20 -20 -15 -20 -20 -20 -20 -19 11 21 12 -20 -11 8 -20 -20 -13 -20 -20 9 -20 -19 12 19 4 -20 -20 -20 -20 -20 -20 16 23 -20
5 8 12 12 -18 -10 6 -12 -20 -20 -20 -20 -20 -20 -20 -20 -20 -1 -8 6 24 17 -0 10 11 -20 -4 13 -20 -20 18 5 6 17 14 -14 -19 -20 -20 -20 -20 -20 -20 22 6
12 9 9 14 3 -4 -20 -1 -20 -20 -20 -20 -20 -20 -20 -20 -20 -20 -20 18 16 16 8 15 1 -20 7 9 12 -19 -20 -4 34 21 19 11 -20 -20 -20 -20 -20 -20 -20 21 25
-20 9 15 9 10 8 3 -20 -15 -20 -20 -20 -20 -20 -20 -20 -20 -20 -20 22 22 9 15 -5 19 -18 -20 2 4 -20 16 13 8 30 27 26 27 -20 -20 -20 -20 -20 -20 -20 -20
6 2 15 9 10 7 3 14 -20 -20 -20 -20 -20 -20 -20 -20 -20 -20 -20 -19 -7 11 11 -2 25 -9 -20 -20 -20 22 -11 10 6 3 37 15 23 -20 8 -20 -20 -20 -20 -20 -20
15 4 12 16 4 11 -20 -20 -20 -20 -20 -20 -20 -20 -20 -20 -20 -20 -20 -20 -20 15 18 -1 35 -20 -19 -3 -12 14 -18 -20 -20 10 -3 4 -7 6 33 -17 -20 -20 -20 -20 -20
14 17 16 14 10 3 2 -20 -20 -20 -20 -20 -20 -20 -20 -20 -20 -20 -20 -20 -6 -1 21 22 34 -16 -20 -2 -20 -20 -20 -20 -20 -2 -4 -0 -14 3 19 21 -18 -20 -20 -20 -20
14 15 13 15 12 -9 -20 -20 -20 -20 -20 -20 -20 -20 -20 -20 -20 -20 16 24 3 33 12 9 31 18 -20 -20 -20 -20 -20 -20 -20 -20 -2 -2 6 8 17 32 6 -20 -20 -20 -20
15 15 17 15 10 -7 -20 -20 -20 -20 -20 -20 -20 -20 -20 -20 -20 8 10 12 33 15 6 15 28 18 -20 -20 -20 -20 -20 -20 -20 -20 -20 -2 -8 12 17 34 24 4 -20 -20 -20
17 18 12 15 -3 -20 -20 -20 -20 -20 -20 -20 -20 -20 -20 -20 -20 1 14 29 31 -14 21 10 28 23 -20 -11 -20 -20 -20 -20 -20 -20 -20 6 7 16 13 18 18 4 -20 -20 -20
5 0 16 13 -18 -20 -20 -20 -20 -20 -20 -10 -9 -14 7 -2 -20 -13 -18 11 -18 -8 14 8 -4 4 -20 -10 -20 -20 -20 -20 -20 -20 -19 -13 6 -20 5 9 8 12 -20 -20 -20
-3 14 14 14 -20 -20 -20 -20 -20 -20 -8 25 -18 3 -16 15 -18 -20 -20 -5 -19 27 13 16 16 6 12 9 -20 -20 -20 -20 -20 -20 -20 -20 -20 -20 -15 2 4 5 8 -20 -20
-12 13 13 -20 -20 -20 -17 -20 -20 -20 -20 26 13 7 -11 -10 -15 -20 3 -6 4 -20 -20 4 -0 31 8 -20 -20 -20 1 -20 -20 -20 -20 -20 -20 -20 -20 -20 -20 7 11 -13 -20
-15 -20 -20 -20 -20 4 -2 -20 -20 -20 -20 5 31 9 7 -4 -6 2 -9 -20 -20 -20 -20 20 26 26 -20 -7 -20 -20 -20 -14 -11 -20 -20 -20 -20 -20 -17 -20 -20 -19 2 -17 -20
-20 -20 -20 -20 -20 -2 -6 -20 -20 -20 -20 -6 1 19 33 26 23 7 4 -5 17 38 35 29 28 20 -20 -20 -17 -20 -20 -20 -20 -20 -20 -20 -20 -20 -20 -20 -20 -20 -20 -20 -20
-20 -20 -20 -20 -20 16 -5 -20 -20 -20 -20 -20 1 -20 9 3 7 -6 -20 -18 31 35 15 -3 -1 -2 -20 -20 -20 -20 -20 -20 -20 -20 -20 -20 -20 -20 -20 -20 -20 -20 -20 -20 -20
-20 -20 -20 -20 -20 5 -20 -20 -20 -20 -20 -20 -20 -20 -20 -20 -18 1 5 -18 -18 28 15 -18 -20 -20 -20 -20 -20 -20 -20 -20 -20 -20 -20 -20 -20 -20 -20 -20 -20 -20 -20 -20 -20
-20 -20 -20 -12 -6 -5 -20 -20 -20 -20 -20 -20 -20 -20 -20 -20 -20 -20 -20 -20 -20 -20 -20 -20 -20 -9 -20 -20 -20 -20 -20 -20 -20 -20 -20 -20 -20 -20 -20 -20 -20 -20 -20 -20 -20
-20 -20 -20 -20 -9 -20 -20 -20 -20 -20 -20 -20 -20 -20 -20 -20 -20 -20 -20 -20 -20 -20 -20 -20 -20 -19 -19 -20 -20 -20 -20 -20 -20 -20 -20 -20 -20 -20 -20 -20 -20 -20 -20 -20 -20
-20 -20 -20 -20 -20 -20 -20 -20 -20 -20 -20 -20 -20 -20 -20 -20 -20 -20 -20 -20 -20 -20 -20 -20 -20 -20 -19 -20 -20 -20 -20 -20 -20 -20 -20 -20 -20 -20 -20 -20 -20 -20 -20 -20 -20
-20 -20 -20 -20 -20 -20 -20 -20 -20 -20 -20 -20 -20 -20 -20 -20 -20 -20 -20 -20 -20 -20 -20 -20 -20 -20 -20 -20 -20 -12 -19 -7 -20 -19 -20 -20 -20 -20 -20 -20 -20 -20 -20 -20 -20
-20 -20 -20 -20 -20 -20 -20 -20 -20 -20 -20 -20 -20 -20 -20 -20 -20 -20 -20 -20 -20 -20 -20 -20 -20 -20 -20 -20 -20 -20 -20 -12 -5 -20 -16 -20 -20 -20 -20 -20 -20 -20 -20 -20 -20
-20 -20 -20 -20 -20 -20 -20 -20 -20 -20 -20 -20 -20 -20 -20 -20 -20 -20 -20 -20 -20 -20 -20 -20 -20 -3 7 -20 -20 -20 -20 -20 -20 -20 -20 -20 -20 -20 -9 -20 -20 -20 -20 -20 -20
-20 -20 -20 -20 -20 -20 -20 -20 -20 -20 -20 -20 -20 -20 -20 -20 -20 -20 -20 -20 -20 -20 -20 -20 -20 -20 -20 -20 -20 -20 -20 -20 -20 -20 -20 -20 -20 -20 -20 -2 -20 -20 -20 -20 -20

GFSSW_prec_radar_075.txt.gz
Reflectivity
-13 8 12 8 9 5 9 11 0 -4 -9 -20 -20 21 24 -7 -20 -20 11 5 7 16 11 -20 -20 -17 -20 -20 4 -20 13 -9 -20 -20 12 -4 -20 -20 -20 -20 -20 -20 -15 -20 -20
10 6 10 13 0 -9 0 2 -17 -9 -9 -20 -6 21 25 -20 -20 -20 -20 6 25 10 1 -20 -20 -20 1 -20 24 21 7 -20 -20 -20 11 14 -20 -20 -20 -20 -20 -20 -20 -6 8
18 11 8 6 -20 -9 8 6 -1 -20 -20 -20 24 23 -0 -20 -20 -20 -20 3 15 26 3 -19 -20 -20 11 -9 17 -18 -20 -20 -20 -9 14 18 -17 -20 -20 -20 -20 -20 -20 13 22
15 15 3 9 -20 -20 3 10 -20 -20 -20 10 21 17 -14 -20 -20 -20 -20 -18 25 29 1 -6 14 -20 8 8 -20 -14 -20 10 4 1 13 10 -17 -20 -20 -20 -20 -20 -20 2 2
-19 14 7 -11 3 -3 -20 6 -8 -20 -20 -20 -20 -20 -20 -20 -20 -20 -20 -20 28 30 7 14 19 -10 0 8 -20 -19 -4 19 -2 -5 -8 6 -17 -20 -20 -20 -20 -20 -20 29 -4
11 -16 16 4 11 -16 8 -20 3 -20 -20 -20 -20 -20 -20 -20 -20 -20 -20 4 14 33 -11 9 23 -20 -10 8 -2 -20 -20 12 6 19 28 5 -19 -20 -20 -20 -20 -20 -20 -20 -20
15 -7 -4 12 -8 12 -14 12 -20 -20 -20 -20 -20 -20 -20 -20 -20 -20 -20 20 -3 8 -13 5 22 10 -18 14 4 11 -20 7 -16 20 15 11 -11 -20 -20 -20 -20 -20 -20 -20 -20
15 17 -1 -11 16 -20 14 -20 -16 -20 -20 -20 -20 -20 -20 -20 -20 -20 -20 -12 25 8 14 7 18 2 -20 -20 16 12 13 -17 -20 -9 21 10 2 -20 1 -20 -20 -20 -20 -20 -20
15 15 14 12 14 -20 10 -20 -20 -20 -20 -20 -20 -20 -20 -20 -20 -20 -20 -20 22 8 13 18 29 6 1 12 -9 -8 -18 -16 1 -20 -17 17 8 -20 16 -8 -20 -20 -20 -20 -20
5 15 14 1 7 -7 13 -20 -20 -20 -20 -20 -20 -20 -20 -20 -20 -20 -20 -19 -7 7 16 19 14 21 -20 -3 -20 -20 -18 -20 -20 -19 -17 -20 6 14 28 13 -16 -20 -20 -20 -20
17 16 13 7 16 -2 -20 -20 -20 -20 -20 -20 -20 -20 -20 -20 -20 -20 -20 -20 -20 5 27 9 35 29 -20 -20 -20 -20 -20 -20 -5 -20 -20 -16 19 20 7 1 24 -16 -20 -20 -5
16 15 13 15 14 4 -20 -20 -20 -20 -20 -20 -20 -20 -20 -20 -20 9 -16 -20 -9 7 13 16 23 13 -20 -20 -20 -20 -20 -20 -20 -20 -20 -20 -4 -20 -20 -15 -0 -9 -20 -20 -17
14 16 16 15 9 -20 -20 -20 -20 -20 -20 -20 -20 -20 -20 -20 -20 23 16 -14 20 7 20 12 10 28 8 13 -3 -20 -20 -20 -20 -20 -20 -19 -20 -20 -20 -11 7 23 -20 -20 -20
18 16 16 12 -20 -20 -20 -20 -20 -20 -20 -20 -20 -20 -20 -20 -10 23 22 -20 34 20 7 -5 26 20 10 13 -2 -20 -20 -20 -20 -20 -20 -20 -20 -20 -14 -19 -4 9 11 -20 -20
15 17 14 -4 -20 -20 -20 -20 -20 -20 -20 25 5 -20 -20 -19 -19 -20 9 -18 10 -15 20 30 18 26 4 11 -20 -16 -20 -20 -20 -20 -20 -20 -20 -11 -6 -20 -20 -19 -18 -19 -20
9 17 13 -17 -20 -20 -20 -20 -20 -20 -20 21 28 0 -18 -20 -4 -20 -3 12 -20 -20 -3 -1 20 27 -20 -20 -20 -20 -20 -20 -20 -20 -11 -20 -4 -20 -2 -20 -20 -5 21 29 -1
-18 -17 -17 -20 -20 -20 -17 -20 -20 -20 -19 19 30 2 -18 -5 -20 -20 -7 -12 -20 -20 19 6 11 24 -17 0 -7 -20 -20 -20 -1 -19 -11 -20 -20 -19 -20 -20 -20 -20 -20 9 11
-20 -20 -20 -20 -5 -1 -20 -20 -20 -20 -20 4 7 30 17 2 11 -18 -20 -20 -20 -20 -14 -10 10 32 -6 21 -19 -20 -20 -20 -20 -20 -20 -20 -20 -20 -20 -20 -20 -20 -20 -20 13
-20 -20 -20 -20 -20 2 -17 -20 -20 -20 -20 8 -1 10 24 9 -0 9 -7 3 -20 -20 -20 -11 23 2 -20 -20 -20 -20 -20 -20 -20 -20 -20 -20 -20 -20 -20 -20 -20 -20 -20 -20 -20
-20 -20 -20 -16 -17 8 -11 -20 -20 -20 -20 -20 -20 -20 3 -10 -16 -18 -20 -9 34 6 -19 -18 7 -4 -9 -17 -20 -20 -20 -20 -20 -20 -20 -20 -20 -20 -20 -20 -20 -20 -20 -20 -20
-20 -20 -20 -5 -4 -14 -20 -20 -20 -20 -20 -20 -20 -20 -20 -16 -20 -20 -20 -20 14 30 -1 -15 -20 19 -19 -20 -20 -20 -20 -20 -20 -20 -20 -20 -20 -20 -20 -20 -20 -20 -20 -20 -20
-20 -20 -20 -20 -6 -20 -20 -20 -20 -20 -20 -20 -20 -20 -20 -20 -20 -20 -20 -20 -20 -20 -19 13 -13 -1 -9 -20 -20 -20 -20 -20 -20 -20 -20 -20 -20 -20 -20 -20 -20 -20 -20 -20 -20
-20 -20 -20 8 -20 -20 -20 -20 -20 -20 -20 -20 -20 -20 -20 -20 -20 -20 -20 -20 -20 -20 -20 -20 -20 -20 -20 -20 -20 -20 -20 -20 -20 -20 -20 -20 -20 -20 -20 -20 -20 -20 -20 -20 -20
-20 -20 -20 -20 -20 -20 -20 -20 -20 -20 -20 -20 -20 -20 -20 -20 -20 -20 -20 -20 -20 -20 -20 -20 -20 -20 -20 -20 -20 -20 -20 -20 -20 -20 -20 -20 -20 -20 -20 -20 -20 -20 -20 -20 -20
-20 -20 -20 -20 -20 -20 -20 -20 -20 -20 -20 -20 -20 -20 -20 -20 -20 -20 -20 -20 -20 -20 -20 -20 -20 -20 -20 -20 -20 -20 -20 -20 -20 -20 -20 -20 -20 -20 -20 -20 -20 -20 -20 -20 -20
-20 -20 -20 -20 -20 -20 -20 -20 -20 -20 -20 -20 -20 -20 -20 -20 -20 -20 -20 -20 -20 -20 -20 -20 -20 -20 -20 -20 -20 -20 -20 -20 -20 -20 -20 -20 -20 -16 -20 -20 -20 -20 -20 -20 -20
-20 -20 -20 -20 -20 -20 -20 -20 -20 -20 -20 -20 -20 -20 -20 -20 -20 -20 -20 -20 -20 -20 -20 -20 -20 -20 -20 -20 -20 -20 -16 -20 -20 -20 -20 -20 -20 -11 -12 -20 -20 -20 -20 -20 -20

GFSSW_prec_radar_078.txt.gz
Reflectivity
12 17 -14 14 -5 3 6 3 3 1 -5 2 -20 -20 17 -20 -2 -20 -20 -17 3 -20 1 -20 -15 3 -2 5 -18 -20 23 -1 -20 -20 -16 -8 -18 2 -20 -20 -20 -20 -20 -20 -8
11 15 11 9 -14 -20 7 3 -1 -20 -20 -20 -20 -20 -14 5 23 -20 -20 -20 13 16 7 7 -1 -20 12 24 23 7 18 -20 -20 -20 -20 3 1 5 -20 -20 -20 -20 -20 4 1
-15 10 2 6 11 -20 -20 8 -17 -20 -20 -20 -20 -20 -20 15 -2 -20 -20 8 25 27 -14 -5 14 15 7 17 19 -10 -20 -20 -20 -20 -20 7 11 -18 -8 -20 -20 -20 -20 -14 10
8 -20 5 3 14 -20 -20 3 6 -13 -20 -20 -20 -20 -20 -20 -20 -20 -20 -20 -4 19 29 -2 21 11 2 -4 9 15 -18 -20 -20 -20 -20 -10 7 -20 -18 -20 -20 -20 -20 -19 19
18 2 -18 10 7 -13 -16 -20 4 -11 -20 -20 -20 -20 -20 -20 -20 -20 -20 -20 -11 14 25 27 22 1 -3 8 10 19 18 -20 -14 -20 -20 -20 14 -10 -20 -20 -20 -20 -20 16 -16
13 0 -18 -20 6 -6 -20 13 -19 -20 -20 -20 -20 -20 -20 -20 -20 -20 -20 -20 13 21 24 28 28 -17 -12 -8 5 9 -8 -12 10 -20 -20 -20 -7 8 -20 -20 -20 -20 -20 -7 6
13 11 -2 3 10 -20 8 -18 -20 -20 -20 -20 -20 -20 -20 -20 -20 -20 -20 -20 16 34 22 35 17 22 -20 -14 -20 23 -20 -17 -3 17 12 -4 -1 8 -18 -20 -20 -20 -20 -20 -20
13 5 15 7 -7 4 -20 15 3 -20 -20 -20 -20 -20 -20 -20 -20 -20 -20 -20 23 24 18 26 25 14 -6 -20 -11 11 9 7 3 -19 -16 -7 -11 -20 -11 -20 -20 -20 -20 -20 -20
10 15 12 4 -15 9 -20 -14 -20 -20 -20 -20 -20 -20 -20 -20 -20 -20 -20 -1 19 15 9 10 34 23 -3 -19 10 12 -20 -20 14 -13 0 -20 -9 2 22 -20 -20 -20 -20 -20 -20
11 11 13 9 6 11 -14 -5 -20 -20 -20 -20 -20 -20 -20 -20 -20 -20 -20 -3 8 21 13 25 40 29 13 6 -13 -5 6 10 9 5 6 -20 -18 6 16 -5 -19 -20 -20 -20 -20
10 7 7 11 10 10 0 -20 -20 -20 -20 -20 -20 -20 -20 -20 -20 -20 -18 -1 15 21 16 25 13 -10 -20 -20 -20 4 6 9 7 -7 -17 -20 -20 -20 -8 -18 0 2 -20 -20 -20
-1 10 5 8 12 -7 -20 -20 -20 -20 -20 -20 -20 -20 -20 -20 -20 -18 -11 -7 8 25 32 31 13 12 8 -3 -20 -5 9 10 -20 -20 -0 -18 -20 -20 -20 -19 -20 -17 -20 -20 -20
15 5 12 14 8 -20 -20 -20 -20 -20 -20 -20 -20 -20 -20 -20 -6 -0 -6 2 1 10 16 12 23 13 -5 -2 -14 -6 -10 2 -20 -20 -3 -16 -20 -20 -20 -20 -20 -3 11 -19 -20
10 12 12 12 -18 -20 -20 -20 -20 -20 -16 -3 -15 -11 -17 -20 8 34 17 3 -7 17 23 12 20 -18 -11 5 -10 -14 -20 -20 -20 -20 -15 -20 -20 -20 -20 -20 -1 -20 -20 -20 -20
10 12 12 7 -20 -20 -20 -20 -20 -20 2 15 -2 -20 -20 6 -8 27 21 3 -10 17 16 15 23 24 -3 0 -20 -20 -20 -20 -20 -19 -20 -20 -14 -20 -20 -20 -20 -20 -20 -20 -9
13 11 9 -20 -20 -20 -20 -20 -20 -20 -16 10 4 -2 -20 -20 -20 -18 13 18 10 -1 -15 14 22 30 -13 15 -20 -20 -20 -20 -15 -2 3 -20 -14 -20 -20 -20 -20 -20 -20 -20 -16
-9 -14 -17 -20 -20 -20 -20 -20 -20 -20 -20 9 -1 1 -19 -18 -14 -17 4 -12 -2 16 36 22 34 15 -11 8 -20 -20 -20 9 0 2 -12 -20 -20 -20 -20 -20 -20 -20 -20 -20 -20
-20 -20 -20 -20 -20 -20 -20 -20 -20 -19 -17 2 6 -20 -13 -20 3 8 -17 -20 -17 -20 9 15 6 31 7 -5 -20 -3 -20 -20 -20 -1 -18 -20 -20 -20 -20 -20 -20 -20 -20 -20 -20
-20 -20 -20 -20 -20 -20 -20 -20 -20 -20 -20 -19 8 21 16 11 -12 2 6 -3 -20 -16 23 -17 -10 13 -17 -20 -20 -20 6 -20 -20 -20 -20 -20 -20 -20 -20 -20 -20 -20 -20 -20 -20
-20 -20 -20 -20 -20 -20 -20 -20 -20 -20 -20 -20 -20 -20 -3 8 -2 -15 -20 -20 -20 -20 -20 -20 2 -14 2 -7 -17 -6 -20 -9 -19 -20 -20 -20 -20 -20 -20 -20 -20 -20 -20 -20 -20
-20 -20 -20 -20 -20 -20 -20 -20 -20 -20 -20 -20 -20 -14 -19 -20 -20 -20 -1 7 -15 -20 -20 -20 -15 23 -9 10 -2 -20 -20 -20 -20 -20 -20 -20 -20 -20 -20 -20 -20 -20 -20 -20 -20
-20 -12 -20 -20 -16 -20 -20 -20 -20 -20 -20 -20 -20 -20 -20 -20 -20 -20 -20 -16 25 -19 -20 -20 -20 5 16 -20 -20 -20 -20 -20 -9 -19 -20 -20 -20 -20 -20 -20 -20 -20 -20 -20 -20
-20 -14 -16 -20 -17 -20 -20 -20 -20 -20 -20 -20 -20 -20 -20 -20 -20 -20 -20 -20 -20 -20 -20 -20 -20 1 -13 -20 -20 -20 -20 -20 -20 -20 -20 -20 -20 -20 -20 -20 -20 -20 -20 -20 -20
-20 -20 -20 -20 -20 -20 -20 -20 -20 -20 -20 -20 -20 -20 -20 -20 -20 -20 -20 -20 -20 -20 -20 -20 -20 -20 -20 -20 -20 -20 -20 -20 -20 -19 -20 -20 -20 -20 -20 -20 -20 -20 -20 -20 -20
-20 -20 -20 -20 -20 -20 -20 -20 -20 -20 -20 -20 -20 -20 -20 -20 -20 -20 -20 -20 -20 -20 -20 -20 -20 -20 -20 -20 -20 -20 -20 -20 -20 -20 -20 -15 -20 -20 -20 -20 -20 -20 -20 -20 -20
-20 -20 -20 -20 -20 -20 -20 -20 -20 -20 -20 -20 -20 -20 -20 -20 -20 -20 -20 -20 -20 -20 -20 -20 -20 -20 -20 -20 -20 -20 -20 -20 -20 -20 -20 -20 -20 -20 -20 -20 -20 -20 -20 -20 -20
-20 -20 -20 -20 -20 -20 -20 -20 -20 -20 -20 -20 -20 -20 -20 -20 -20 -20 -20 -20 -20 -20 -20 -20 -20 -20 -20 -20 -20 -20 -20 -20 -20 -20 -20 -20 -20 -20 -20 -20 -20 -20 -20 -20 -20

GFSSW_prec_radar_081.txt.gz
Reflectivity
12 -20 12 12 17 -9 -20 -1 -6 -15 -20 -20 -20 -20 -20 -20 -20 -20 -20 -19 -6 16 -16 -20 -9 1 -20 -1 20 9 36 11 -20 9 -1 -20 -20 -20 -12 -20 -20 -20 8 -4 3
-6 -20 -20 13 10 -20 -20 8 -8 -20 -20 -20 -20 -20 -20 -20 -20 -20 -18 -20 -20 20 17 -20 15 -1 6 3 23 33 34 19 -20 -20 -7 -20 -20 -20 -19 -20 -20 -20 -20 3 5
14 -18 -20 3 -7 7 -20 -20 7 -20 -20 -20 -20 -20 -20 -20 -20 -8 12 -20 -20 16 30 15 -0 11 7 -20 17 27 16 -20 -18 17 24 -8 -20 -20 -20 -14 -20 -20 -20 -20 14
10 10 -20 -20 8 14 6 -20 -4 -20 -20 -20 -20 -20 -20 -20 23 12 -19 -20 -20 -19 -0 7 20 15 8 -20 -20 -12 9 27 -18 15 29 -14 -20 -20 -20 -20 -20 -20 -20 2 17
-17 14 -17 -20 -20 1 -11 14 -13 -20 -20 -20 -20 -20 -20 -20 -20 -20 -20 -20 -20 12 10 16 25 16 1 -20 -20 -20 -5 -16 20 20 -16 21 -20 -20 -20 -20 -20 -20 -20 -20 2
10 13 -20 -13 -20 1 -20 12 -20 -20 -20 -20 -20 -20 -20 3 -20 -20 -20 -20 -9 26 36 14 7 -5 -20 -19 -16 -20 -19 -4 -6 -20 -20 -19 -20 -20 -20 -20 -20 -9 -20 -20 20
12 -6 -20 11 -19 -20 -5 11 3 -20 -20 -20 -20 -20 -20 -20 -20 -20 -20 -20 -20 16 20 19 3 28 5 -20 -6 -18 8 -13 25 -10 9 -20 15 -20 -20 -20 -20 -20 -8 -20 -20
9 12 -19 -1 1 -20 13 -18 14 -20 -20 -20 -20 -20 -20 -20 -20 -20 -20 -11 -20 16 31 25 40 23 -9 -2 -11 22 -6 26 22 18 16 2 0 -20 -20 -15 -3 -12 -20 -20 -19
-11 8 10 10 1 -6 10 -20 -20 -20 -20 -20 -20 -20 -18 -20 -20 -20 -20 -2 10 18 29 33 31 21 6 -4 18 26 -3 -9 23 -20 -3 -10 -20 -20 -11 -6 14 5 -5 -20 -20
1 11 -17 8 10 -6 9 9 -20 -20 -17 -20 -20 -18 -20 0 -20 -20 -20 -20 11 3 28 35 39 34 25 17 -3 -8 -16 -20 5 18 7 3 18 -20 31 -1 -15 -9 -3 -18 -20
6 9 10 4 7 10 7 5 -7 -15 -20 -20 -20 -20 -20 -20 -20 -17 -20 -20 -20 9 35 21 19 27 -20 -20 -20 -20 -20 -20 -20 11 -17 -12 7 -20 -20 -20 -20 6 -17 -20 -20
-14 7 3 9 12 10 -4 -20 -20 -20 -20 -20 -20 -20 -20 -20 -20 20 -20 -10 -9 29 32 26 23 32 19 -3 6 -18 9 -20 -20 -20 -20 -20 -20 -20 -20 -20 -20 -8 -12 -20 -20
2 3 6 9 4 -5 -18 -20 -20 -20 -20 -20 -20 2 -12 -20 8 -11 -9 -6 12 7 7 15 24 26 22 -18 5 -16 -20 -20 -20 -20 -20 -20 -20 -20 -20 -20 -20 -20 -20 -20 -20
3 4 3 5 -18 -18 -15 -20 -20 -20 11 1 -4 -12 -3 -20 27 -19 -19 -14 9 -2 -16 19 24 -0 9 -20 -20 6 6 -15 -20 -1 -16 -20 -20 -20 -20 -20 -20 -20 -20 -20 -20
1 2 4 -20 -5 -20 -20 -20 -20 -20 7 -15 6 -20 -17 -15 8 20 2 -12 10 1 9 10 7 -19 18 -20 -6 2 -20 -20 -20 -20 -18 -6 -20 -20 -20 -20 -20 -20 -20 -20 -20
-4 0 -11 -20 -10 -20 -20 -20 -20 -15 -9 -20 -8 -6 -0 -17 -5 -8 26 16 13 31 22 11 19 8 17 -10 9 -20 -20 -20 -20 -11 4 -20 -20 -20 -20 -20 -20 -20 -20 -20 -20
-20 -20 -20 -20 -1 -20 -20 -20 2 3 -20 -18 -15 -10 -18 -10 -7 19 27 21 13 7 10 11 24 -9 -3 12 -20 -16 -14 4 7 5 -11 -20 -20 -20 -20 -20 -20 -20 -20 -20 -20
-20 -20 -20 -20 -20 -20 -20 -10 -14 -17 -12 2 -20 -19 -1 -20 -13 -17 -20 12 -7 11 20 10 13 25 8 18 -6 -17 -9 -18 -20 -20 -20 -20 -20 -20 -20 -20 -20 -20 -20 -20 -20
-20 -20 -20 -20 -20 -20 -17 -11 -8 -20 -1 -1 -5 -18 -2 -15 -18 -20 -20 18 8 16 17 5 -5 -14 20 21 1 8 8 -20 -20 -20 -20 -20 -20 -20 -20 -20 -20 -20 -20 -20 -20
-19 -12 -13 -20 -20 -20 -9 -20 -20 -20 -20 -1 9 -5 -20 -3 -16 -13 -15 -20 -20 -20 -20 -1 6 12 5 -20 -20 -19 -15 -12 -20 -20 -20 -20 -20 -20 -20 -20 -20 -20 -20 -20 -20
-20 -15 -20 -20 -20 -10 -16 -11 -20 -20 -20 -20 -6 -20 -20 -16 -20 -20 -18 -20 -20 -20 -20 -16 18 3 12 -1 17 -20 -19 -20 -2 -20 -20 -20 -20 -20 -20 -20 -20 -20 -20 -20 -20
-5 -12 -20 -20 3 -10 -4 -20 -20 -20 -20 -20 -20 -20 4 -3 9 9 -18 -19 -20 -20 -20 -20 -1 3 10 -4 -20 -0 4 -3 4 -19 -20 -20 -20 -20 -20 -20 -20 -20 -20 -20 -20
-20 -14 -20 -20 -6 -3 -20 -20 -20 -20 -20 -20 -20 -20 -20 -20 -5 -20 -20 -20 -20 -20 -20 -20 -7 5 11 -14 -20 -20 -20 -20 -20 -20 -1 -20 -20 -20 -20 -20 -20 -20 -20 -20 -20
-20 -20 -9 -17 -20 -17 -12 -10 -20 -20 -20 -20 -20 -20 -20 -20 -20 -13 -20 -20 -20 -20 -20 -20 -12 5 -4 -10 -20 -20 -20 -20 -20 -10 -20 -20 -20 -20 -20 -20 -20 -20 -20 -20 -20
-20 -20 -20 -15 -20 -20 -20 -20 -6 -20 -20 -20 -20 -20 -20 -20 -20 -20 -20 -20 -20 -20 -20 -20 -9 -20 -20 -20 -20 -20 -20 -20 -16 -20 -20 -20 -20 -20 -20 -20 -20 -20 -20 -20 -20
-20 -20 -20 -20 -20 -20 -20 -4 2 -20 -20 -20 -20 -20 -20 -20 -20 -20 -20 1 -7 -20 -20 -20 -20 -20 -20 -20 -20 -20 -20 -20 -20 -20 -20 -20 -20 -20 -20 -20 -20 -20 -20 -20 -20
-20 -20 -20 -20 -20 -20 -20 -20 -20 -20 -20 -20 -20 -20 -20 -20 -20 -20 -20 -20 -20 -3 -20 -20 -7 -20 0 -20 -20 -20 -20 -20 -20 -20 -20 -20 -20 -20 -20 -20 -20 -20 -20 -20 -20

GFSSW_prec_radar_084.txt.gz
Reflectivity
8 9 -19 -20 11 12 -20 -20 10 -16 -20 -20 -20 -20 -20 -20 -20 -20 -20 -20 -3 -20 -11 -20 -20 -5 -20 -15 13 8 23 -7 -20 -20 19 -11 -20 5 3 -19 -20 -20 -4 33 16
-18 12 9 -20 5 13 -20 -20 7 -20 -20 -20 -20 -20 -20 -20 -20 -20 -20 7 -20 -20 -20 -20 6 13 8 -19 20 16 38 -20 -20 -20 16 -13 -20 -4 -2 -19 -14 -15 -20 -2 9
1 12 5 -20 -20 8 15 -20 -2 -20 -20 -20 -20 -20 -20 -20 -20 -16 -18 -8 -20 1 -20 12 8 25 10 -8 16 26 4 12 -20 16 22 16 -20 -20 -12 -8 -20 -11 -20 -14 14
-19 12 0 -12 -7 -18 10 -6 -20 -20 -20 -20 -20 -20 -20 -20 7 -15 -20 25 -20 -20 -18 22 23 -3 14 -11 -20 23 13 7 -18 -12 23 27 -11 -20 -20 -14 -20 -20 -10 -20 8
-20 13 -6 -19 -2 -20 7 -1 0 -20 -20 -20 -20 -20 -20 -11 5 -20 -18 6 -20 -20 -20 35 17 20 9 -20 -18 -16 -20 5 24 23 -8 4 -20 -20 -20 -20 -20 -20 -18 -20 -6
-18 13 4 11 8 -20 -19 -20 10 -20 -20 -20 -20 -20 -20 17 -20 -20 -20 -20 -20 -20 24 30 31 30 -1 -20 5 -20 10 -7 18 34 43 33 22 -20 -20 -20 -20 -20 -20 -17 -4
2 1 -13 11 5 -9 -20 9 -7 -20 -20 -20 -20 -20 -20 -18 -20 -20 -20 -20 -20 13 11 18 28 15 19 -20 -6 6 7 16 5 28 35 19 21 -20 -20 -20 -20 -20 -18 -20 -20
-7 -1 -19 9 11 3 -20 -20 -18 -20 -20 -20 -20 -20 -20 -20 -20 -20 -20 22 -3 22 36 4 7 25 0 -20 -20 4 10 4 22 28 36 27 -13 -20 -20 -20 -20 -20 -20 -20 -17
-20 -12 9 -18 -14 -1 -19 -20 -20 -20 -20 -20 -20 -13 3 -20 -20 -20 -20 -14 -19 11 33 31 10 23 -1 -20 12 15 8 -15 16 21 25 26 -20 -20 -20 -20 -20 -20 -20 -20 -20
-20 3 5 12 11 12 9 -20 -20 -20 -20 -20 -20 -20 -6 -0 -20 -20 -20 -20 11 9 26 21 25 32 1 4 8 -12 16 6 -9 5 19 -1 5 -19 2 -20 -20 -20 -20 -20 -20
-4 1 8 -13 -14 7 -13 -20 -20 -20 -20 -20 -20 -20 -20 -20 -20 -20 -20 -20 11 9 28 34 28 10 15 -20 -20 -20 -20 -20 -20 5 17 3 -9 -20 -20 -20 -20 -20 -20 -20 -20
-0 5 13 13 12 7 -20 -20 -20 -20 -16 -20 -20 -20 -20 -20 -20 0 -20 -5 6 23 37 24 27 4 17 -12 -14 2 2 15 11 -20 -9 12 -11 -20 -20 -20 -20 -20 -20 -20 -20
-2 9 6 10 8 -20 -20 -20 -20 -20 -20 -20 -20 -20 -20 -17 -14 -20 -20 -0 12 26 29 26 32 0 -15 7 26 14 -2 33 17 22 -10 -11 -20 -20 -20 -20 -20 -20 -20 -20 -20
-5 5 2 -2 -19 -20 -20 -20 -20 -20 5 -14 -3 -18 -20 -20 16 -15 -5 -19 -3 17 21 29 30 -16 10 -20 21 -12 -14 -18 -14 -20 -15 -18 -20 -20 -20 -20 -20 -20 -20 -20 -20
-10 5 8 -19 -14 -20 -20 -20 -20 -20 -20 -20 -3 -20 -20 -9 9 -5 -20 -0 -2 -18 3 32 32 30 22 25 22 12 16 6 -20 -20 -20 -20 -20 -20 -20 -20 -20 -20 -20 -20 -20
-20 7 -20 -20 -4 -13 -20 -20 -20 -9 -20 -20 -12 -8 8 -20 -16 9 16 17 11 8 -10 14 -15 -20 -20 9 -17 35 14 -19 -20 -20 -20 -20 -20 -20 -20 -20 -20 -20 -20 -20 -20
-20 -20 -20 -20 -20 -20 -20 -20 -13 -13 -20 -20 -20 -20 -20 -10 17 -4 11 -12 31 12 -17 -7 -17 -20 -20 -20 -20 -20 -20 -20 -20 -20 -20 -20 -20 -20 -20 -20 -20 -20 -20 -20 -20
-20 -20 -20 -18 -20 -20 -20 -20 -19 -11 -17 -20 -20 -20 -14 -17 -20 -20 -20 -7 -20 -17 -20 -20 -6 -20 -20 -20 -20 -20 -20 -20 -20 -20 -20 -20 -20 -20 -20 -20 -20 -20 -20 -20 -20
-20 -19 -9 -20 -20 -20 -20 -20 -20 -20 -19 -20 -20 -20 -20 -20 -20 -20 -20 -20 -20 -20 -20 -20 -0 -0 -17 -20 -20 -20 -19 -20 -20 -20 -20 -20 -20 -20 -20 -20 -20 -20 -20 -20 -20
-12 -8 -9 -20 -20 -20 -10 -20 -20 -20 -8 -20 -9 -15 -20 -20 -20 -20 -17 -20 -20 -20 -20 -12 -20 -13 10 -7 -20 -20 -20 -16 -20 -20 -20 -20 -20 -20 -20 -20 -20 -20 -20 -20 -20
-15 -7 -20 -20 -20 -13 -20 -20 -20 -20 -20 -11 2 -20 -20 -20 -20 -20 -18 -20 -20 -20 -20 -20 -20 1 20 0 -16 4 -20 -20 -20 -20 -20 -20 -20 -20 -20 -20 -20 -20 -20 -20 -20
-20 -13 -20 -20 -9 -20 -19 -20 -20 -20 -20 -20 -20 -13 -7 -20 -20 4 -20 -20 -20 -20 -20 -20 -20 -20 -20 -20 -20 -20 -20 -8 -20 -20 -20 -20 -20 -20 -20 -20 -20 -20 -20 -20 -20
-20 -20 -20 -20 -16 -18 -20 -20 -20 -20 -20 -20 -20 -20 -20 -15 3 -20 -20 -20 -20 -20 -20 -20 -8 -15 -10 -20 -20 -20 -20 -20 -20 -20 -20 -20 -20 -20 -20 -20 -20 -20 -20 -20 -20
-20 -18 -20 -20 -20 -20 -18 -20 -20 -20 -20 -20 -20 -20 -20 -20 -20 -20 -20 -20 -20 -20 -20 -20 -11 -14 -20 -20 -20 -20 -20 -20 -20 -20 -20 -20 -20 -20 -20 -20 -20 -20 -20 -20 -20
-20 -20 -20 -20 -20 -20 -20 -20 -13 -20 -20 -20 -20 -20 -20 -20 -20 -8 -20 -20 -20 -20 -20 -20 -20 -20 -20 -20 -20 -20 -20 -20 -20 -20 -20 -20 -20 -20 -20 -20 -20 -20 -20 -20 -20
-18 -20 -20 -20 -20 -20 -20 -20 -20 -20 -20 -20 -20 -20 -20 -20 -20 -20 -20 -20 -20 -20 -20 -20 -20 -20 -20 -20 -20 -20 -20 -20 -20 -20 -20 -20 -20 -20 -20 -20 -20 -20 -20 -20 -20
-13 -20 -20 -20 -20 -20 -20 -20 -20 -20 -20 -20 -20 -20 -20 -20 -20 -20 -20 -20 -20 -20 -20 -20 -20 -20 -20 -20 -20 -20 -20 -20 -20 -20 -20 -20 -20 -20 -20 -20 -20 -20 -20 -20 -20

GFSSW_prec_radar_087.txt.gz
Reflectivity
4 9 10 -15 -20 -20 14 -20 -15 -7 -3 -3 -20 -20 -20 -20 -20 -20 -20 -20 -11 -18 -20 -20 -20 -20 -7 -20 2 8 21 -20 -20 -20 -6 -20 -20 -11 -20 -20 -20 -3 10 -6 4
-0 1 13 5 -20 -20 3 15 -20 2 -20 -20 -20 -20 -20 -20 -20 -20 -20 -20 -2 22 -20 -20 -16 7 8 -20 7 20 26 -16 -5 12 0 -20 -20 -20 -20 -20 -20 -18 18 11 -20
-16 -18 15 8 -15 -20 -20 16 -1 -17 -20 -20 -20 -20 -20 -20 -20 -20 -20 -20 -20 -15 -20 -18 -19 20 12 9 13 38 19 -15 9 25 14 -20 -20 -20 -20 -20 -20 -20 -15 12 30
-3 -11 12 -17 -11 -20 -20 12 13 -20 -20 -20 -20 -20 -20 -20 -20 -20 -20 -20 -10 27 28 26 13 22 9 10 -19 31 23 -20 13 23 20 -16 -20 -20 -20 -20 -20 -20 -20 -6 -18
14 -1 15 -20 -0 6 -20 3 -10 -20 -20 -20 -20 -20 -20 -20 -14 -20 -20 -20 7 -11 26 13 25 27 13 -20 13 18 23 24 12 -10 20 -20 -20 -20 -20 -20 -20 -20 -20 4 -18
-4 7 6 11 -20 14 -20 -20 6 15 -20 -20 -20 -20 -20 -20 -20 -20 -20 -20 13 -20 3 7 33 8 -10 5 10 -20 -15 17 29 9 6 21 -20 -20 -20 -20 -20 -20 -20 -18 0
9 -10 -11 12 14 13 -16 -20 5 -5 -20 -20 -20 -20 -20 -20 -20 -20 -20 -20 -20 -12 20 25 31 25 29 22 -20 -20 -20 -9 27 14 27 19 -16 -19 -20 -20 -20 -20 -20 -20 6
-6 1 -13 10 -15 5 -20 -20 -20 -20 -20 -20 -20 -20 -20 -20 -20 -20 -20 -13 -20 -20 19 23 43 30 36 17 -20 -4 14 23 24 27 24 -17 -20 -17 -19 -20 -20 -20 -20 -20 -20
-13 -1 11 9 13 2 -20 -20 -20 -20 -20 -20 -20 -20 -20 -20 -20 -20 -20 -17 -20 -13 11 27 27 18 37 12 7 17 9 9 25 18 20 -19 26 22 17 7 -20 -20 -20 -20 -20
-6 -2 11 -8 -20 9 -20 -20 -20 -20 -20 -20 -20 -20 -20 -13 -20 -20 -20 -20 -2 10 -2 11 6 -4 30 15 4 -7 6 14 -5 6 32 20 31 38 28 1 -20 -20 -20 -20 -20
-16 3 16 4 0 -6 -20 -20 -20 -20 -20 -20 -20 -20 -20 -20 -20 -20 -20 -20 -7 5 3 29 14 28 23 -18 -20 -20 -7 -3 3 11 27 34 27 28 24 -20 -20 -20 -20 -20 -20
-19 6 11 11 7 12 -20 -20 -20 -20 -20 -20 -20 -20 -20 -20 -15 -16 -20 -20 12 20 32 26 -1 16 17 -9 -19 10 1 9 6 13 17 14 16 -2 -12 -20 -20 -20 -20 -20 -20
-20 2 11 2 -15 -20 -20 -9 -20 -20 -20 -20 -20 -20 -20 -10 -20 -20 -20 -20 3 25 30 2 14 11 -7 -10 -12 1 12 7 16 21 15 12 10 -20 -20 -20 -20 -20 -20 -20 -20
-20 -13 8 4 -20 -20 -2 -20 -20 -20 -20 -17 -3 -11 1 24 -20 -20 -20 -20 23 30 32 23 25 13 -20 -20 -20 -20 -20 -20 2 1 30 23 4 3 -20 -20 -20 -20 -20 -20 -20
-19 -12 7 -19 -20 -10 -16 -20 -20 -20 -20 -18 -20 -20 -20 -4 -20 -20 -20 -15 17 32 30 33 -7 -20 -20 -20 -20 -2 -20 -19 31 29 27 11 -8 -20 -20 -20 -20 -20 -20 -20 -20
-20 -20 -8 -20 -20 -20 -20 -20 -20 -20 -20 -20 -20 -20 -9 9 14 -19 -3 -20 14 18 18 19 -3 18 4 -20 9 -20 -11 8 27 21 -20 -20 -20 -20 -20 -20 -20 -20 -20 -20 -20
-20 -20 -20 -20 -5 -20 -20 -20 -20 -20 -20 -20 -20 -20 -20 -20 14 -19 -10 -19 -8 -9 25 22 34 5 -20 -20 -9 33 13 18 3 -20 -20 -20 -20 -20 -20 -20 -20 -20 -20 -20 -20
-20 -20 -20 -20 -20 -20 -20 -20 -20 -20 -20 -20 -20 -20 -20 -20 -20 -20 -20 -20 -20 -20 -17 -20 -20 -20 -20 -20 18 21 -18 -20 -20 -20 -20 -20 -20 -20 -20 -20 -20 -20 -20 -20 -20
-20 -20 -20 -20 -20 -20 -20 -20 -20 -20 -20 -20 -20 -20 -20 -20 -20 -20 -20 -20 -20 -20 -20 -20 -20 -20 -20 -20 -20 -20 -20 -20 -20 -20 -20 -20 -20 -20 -20 -20 -20 -20 -20 -20 -20
-20 -17 -20 -20 -20 -20 -20 -20 -20 -20 -20 -20 -14 -20 -20 -20 -20 -20 -20 -20 -20 -20 -20 -20 -19 -20 -20 -20 -20 -20 -20 -20 -20 -20 -20 -20 -20 -20 -20 -20 -20 -20 -20 -20 -20
-20 -1 -20 -20 -20 -20 -20 -20 -20 -20 -20 -20 -20 -20 -20 -20 -20 -20 -20 -20 -20 -20 -20 -20 -20 -19 -20 -20 -20 -20 -20 -20 -20 -20 -20 -20 -20 -20 -20 -20 -20 -20 -20 -20 -20
-20 -20 -20 -20 -20 -20 -20 -20 -20 -20 -20 -20 -20 -20 -20 -20 -20 -20 -20 -20 -20 -20 -20 -20 -20 -3 -20 -20 -20 -20 -20 -20 -20 -20 -20 -20 -20 -20 -20 -20 -20 -20 -20 -20 -20
-20 -20 -20 -20 -20 -20 -20 -20 -20 -20 -20 -20 -20 -20 -20 -20 -6 -20 -20 -20 -20 -20 -20 -20 -20 -20 -20 -20 -20 -20 -20 -20 -20 -20 -20 -20 -20 -20 -20 -20 -20 -20 -20 -20 -20
-20 -20 -13 -20 -20 -20 -20 -20 -20 -20 -20 -20 -20 -20 -20 -20 -20 -20 -20 -20 -20 -20 -20 -20 -20 -20 -20 -20 -20 -20 -20 -20 -20 -20 -20 -20 -20 -20 -20 -20 -20 -20 -20 -20 -20
-20 -20 -20 -20 -20 -20 -20 -20 -20 -20 -20 -20 -20 -20 -20 -20 -20 -20 -20 -20 -20 -20 -20 -20 -20 -20 -20 -20 -20 -20 -20 -20 -20 -20 -20 -20 -20 -20 -20 -20 -20 -20 -20 -20 -20
-20 -20 -20 -20 -20 -20 -20 -20 -20 -20 -20 -20 -20 -20 -20 -20 -20 -20 -20 -20 -20 -20 -20 -20 -20 -20 -20 -20 -20 -20 -20 -20 -20 -20 -20 -20 -20 -20 -20 -20 -20 -20 -20 -20 -20
-18 -20 -20 -20 -20 -20 -20 -20 -20 -20 -20 -20 -20 -20 -20 -20 -20 -20 -20 -20 -20 -20 -20 -20 -20 -20 -20 -20 -20 -20 -20 -20 -20 -20 -20 -20 -20 -20 -20 -20 -20 -20 -20 -20 -20

GFSSW_prec_radar_090.txt.gz
Reflectivity
-15 -2 -15 14 -18 -20 -3 13 -13 -14 -9 -3 2 -7 -18 -20 -20 -20 -20 -20 -20 -20 -7 -20 -20 -20 -20 -20 -13 33 30 -4 -20 -20 -20 -20 -20 7 -1 -20 -20 13 -16 8 9
-12 -20 -11 14 3 -20 -15 -20 17 -20 -13 -20 -20 -20 -20 -20 -20 -20 -20 -20 -5 -5 -20 -20 -18 -20 -20 -0 -1 19 23 25 -20 -20 -9 -20 -20 -4 -19 -19 -12 2 -13 5 -16
-20 -3 -8 13 3 -3 -19 -20 13 -6 -18 -20 -20 -20 -20 -20 -20 -20 -20 -20 -20 -20 -20 16 9 18 12 9 12 3 32 35 -11 -20 -4 -19 -20 -20 -20 -20 -8 -15 0 0 -16
-20 5 6 14 -19 13 -4 -20 12 16 -20 -4 -20 -20 -20 -20 -20 -20 -20 -20 -20 -20 -19 21 -9 23 13 -2 5 18 34 26 0 -12 -16 -17 7 -20 -20 -20 -20 1 7 -6 -12
-20 -15 2 -20 14 10 14 -20 -9 -1 -0 -20 -20 -20 -20 -20 -20 -20 -20 -20 -20 -20 6 22 -13 -5 15 -14 8 14 26 28 15 -20 24 -12 4 -20 -20 -20 -20 -9 14 -13 -13
-20 -16 -20 -14 6 13 6 -20 -20 10 21 -20 -15 -20 -20 -20 -20 -20 -20 -20 -20 3 15 23 -20 -20 15 -5 10 -18 9 27 44 12 22 17 -14 -20 -20 -20 -20 -20 -16 -18 -3
-19 -20 -20 -11 -15 -19 16 -20 -20 -7 4 -20 -20 -20 -20 -20 -20 -20 -20 -16 -20 -20 5 17 20 31 22 11 -20 -20 6 -19 7 31 17 18 15 -20 -20 -20 -20 -20 -4 -15 -12
-20 -20 -20 -1 -12 -7 -20 -20 0 -20 -20 -20 -20 -20 -20 -20 -20 -20 -20 -20 -20 -20 3 15 30 16 36 23 -20 -20 26 27 27 43 13 -5 -9 13 -20 -20 -19 -20 -20 -8 17
-20 -20 -20 -20 -20 -15 -20 -20 -20 -20 -20 -20 -20 -20 -20 -20 -20 -20 -20 -20 -20 11 -20 5 25 38 6 19 -0 5 12 23 34 30 27 22 -12 -2 -20 -20 -20 -20 -20 -20 -20
-20 -20 -20 -20 -20 -20 -20 -20 -20 -20 -20 -20 -20 -20 -20 -20 -20 -20 -20 -20 2 -4 12 25 28 36 16 13 10 -8 19 15 34 33 29 35 4 27 -14 -20 -20 -20 -20 -20 -10
-20 -20 -20 -20 -20 -20 -20 -20 -20 -20 -20 -20 -20 -20 -20 -20 -20 -20 -20 -20 -20 3 -20 13 -10 -8 21 35 -20 -20 -11 -4 -4 13 8 2 14 31 16 -20 -20 -20 -20 -20 -20
-19 -14 -20 -20 -20 5 -20 -20 -20 -20 -20 -20 -20 -20 -20 -20 -17 -13 -20 12 14 16 19 15 -1 28 31 22 8 19 -20 11 10 12 -19 6 19 -17 -20 -17 -20 -20 -20 -20 -20
-20 -7 -20 -20 -20 -20 -20 -20 -20 -20 -20 -20 -20 -20 -20 0 -20 -20 -9 19 28 27 20 -3 6 26 31 18 -3 12 -20 -9 23 35 12 8 2 -20 24 15 -0 -20 -20 -20 -20
-2 -0 -20 -20 -20 -20 -20 -20 -20 -20 -20 -20 -20 -20 -20 -20 -20 -13 -20 25 36 30 27 7 -12 -20 38 -5 -20 -20 -20 1 -16 15 30 13 -16 -12 -20 -1 -20 -20 -20 -20 -20
9 -4 -20 -20 -20 -20 -20 -20 -20 -20 -20 -20 -20 -20 -20 -3 -20 -20 12 15 22 23 6 21 8 3 -15 -17 -20 -11 -13 -15 -6 18 33 29 17 7 -19 -18 -20 -20 -20 -20 -20
9 -13 -20 -20 -20 -20 -20 -20 -20 -20 -20 -20 -20 -20 -20 -8 -20 -6 6 27 30 13 -6 -0 -20 -20 -20 -20 -20 6 17 19 -2 20 10 11 10 -1 -20 -20 -20 -20 -20 -20 -20
12 -20 -20 -20 -20 -20 -20 -20 -20 -20 -20 -20 -20 -20 -20 -20 -20 -20 -11 -11 18 -7 -15 -16 17 -15 -20 -14 -20 -1 -8 17 14 27 -13 -6 -18 -18 -6 -20 -20 -20 -20 -20 -20
9 -20 -20 -20 -20 -20 -20 -20 -20 -20 -20 -20 -20 -20 -20 -20 -20 -20 -20 28 -20 -20 -20 18 9 -2 -16 -19 23 -20 -15 -11 11 2 -20 -20 -19 -20 -19 -8 -20 -20 -20 -20 -20
2 -20 -20 -20 -20 -20 -20 -20 -20 -20 -20 -20 -20 -20 -20 -20 -20 -20 -20 -20 -20 -20 -20 -20 -20 -20 -20 -14 31 2 -13 -20 1 -20 -20 -20 -20 -20 -20 -20 -20 -20 -20 -20 -20
-8 -20 -20 -20 -20 -20 -20 -20 -20 -20 -20 -20 -20 -20 -20 -20 -20 -20 -20 -20 -20 -20 -20 -20 -20 -20 -20 -20 -20 -1 -9 -20 -20 -20 -20 -20 -20 -20 -20 -20 -20 -20 -20 -20 -20
-20 -20 -20 -20 -20 -20 -20 -20 -20 -20 -20 -20 -20 -20 -20 -20 -20 -20 -20 -20 -20 -20 -20 -20 -20 -20 -20 -20 -20 -20 -20 -20 -20 -20 -20 -20 -20 -20 -20 -20 -20 -20 -20 -20 -20
-20 -14 -20 -20 -20 -20 -20 -20 -20 -20 -20 -20 -20 -20 -20 -20 -20 -20 -20 -20 -20 -20 -20 -20 -20 -20 -20 -20 -20 -20 -20 -20 -20 -20 -20 -20 -20 -20 -20 -20 -20 -20 -20 -20 -20
-20 -15 -20 -20 -20 -20 -20 -20 -20 -20 -20 -20 -20 -20 -20 -20 -20 -20 -20 -20 -20 -20 -20 -20 -20 -20 -20 -20 -20 -20 -20 -20 -20 -20 -20 -20 -20 -20 -20 -20 -20 -20 -20 -20 -20
-20 -10 -10 -20 -20 -20 -20 -20 -20 -20 -20 -20 -20 -20 -20 -20 -20 -20 -20 -20 -20 -20 -20 -20 -20 -20 -20 -20 -20 -20 -20 -20 -20 -20 -20 -20 -20 -20 -20 -20 -20 -20 -20 -20 -20
-11 -20 -20 -20 -20 -20 -20 -20 -20 -20 -20 -20 -20 -20 -20 -20 -20 -20 -20 -20 -20 -20 -20 -20 -20 -20 -20 -20 -20 -20 -20 -20 -20 -20 -20 -5 -20 -20 -18 -20 -20 -20 -20 -20 -20
-8 -20 -20 -20 -20 -20 -20 -20 -20 -20 -20 -20 -20 -20 -20 -20 -20 -20 -20 -20 -20 -20 -20 -20 -20 -20 -20 -20 -20 -20 -20 -20 -20 -20 -20 -20 -20 -12 -20 -20 -20 -20 -20 -20 -20
-4 -20 -20 -20 -20 -20 -20 -20 -20 -20 -20 -20 -20 -20 -20 -20 -20 -20 -20 -20 -20 -20 -20 -20 -20 -20 -20 -20 -20 -20 -20 -20 -20 -20 -20 -20 -20 -20 -20 -20 -20 -20 -20 -20 -20

GFSSW_prec_radar_093.txt.gz
Reflectivity
-20 -20 -20 -20 9 -20 -20 -20 -14 -15 1 -20 -16 -1 -8 -20 -20 -20 -20 -20 -20 -20 -6 -20 -20 -20 -20 -20 -20 11 8 40 -18 -20 -20 -12 -0 -20 0 -20 -1 12 23 30 33
-20 -20 -13 -20 12 -20 -20 -20 -20 21 -15 -20 -20 -20 -20 -20 -20 -20 -20 -20 -9 8 -20 -20 -20 -20 -19 -20 -14 14 -3 37 -5 -20 -20 -6 -12 -20 3 -17 31 1 18 23 11
-20 -19 -17 -20 12 -10 -20 -20 -20 -1 -15 -20 -20 -20 -20 -20 -20 -20 -20 -20 -20 -20 -20 -20 -20 -20 10 6 -19 10 -3 18 1 17 -20 10 -3 -20 -9 -20 -20 -18 -18 -1 20
7 -20 -8 -18 -6 -5 -13 6 -20 15 19 -20 -20 -20 -20 -20 -20 -20 -20 -20 -20 -20 -20 -20 -20 -20 12 -20 -20 9 -1 14 30 5 24 -1 1 -20 -20 -20 -20 3 6 17 25
11 -20 -20 -20 -13 -0 -20 10 -20 -16 16 -20 -20 -20 -20 -20 -20 -20 -20 -20 -20 -20 -20 -20 4 -1 8 -20 -20 12 7 4 25 22 17 17 6 -20 -20 -20 -20 7 14 -4 -11
12 -20 -20 -20 -17 -13 -12 9 -20 -20 9 -3 -20 -20 -20 -20 -20 -20 -20 -20 -20 10 -20 12 -16 -18 -0 5 11 -20 -20 9 3 40 15 19 -12 20 -8 -20 -20 17 3 32 30
19 10 -20 -20 -20 -20 -20 -18 -20 -20 -14 18 -20 -20 -20 -20 -20 -20 -20 -20 -20 -20 15 -7 24 25 -20 -9 -20 -18 7 8 6 35 35 17 19 -20 16 -20 -20 -13 34 30 -15
26 13 -19 -20 -20 -20 -4 -12 -20 -20 -20 -3 -20 -20 -20 -20 -20 -20 -20 -20 -20 -20 -20 -20 8 21 10 7 18 -15 -13 5 25 38 45 21 6 5 -20 -20 -20 -20 -9 -4 28
23 21 -15 -20 -20 -20 -20 -20 -20 -7 -20 -20 -20 -20 -20 -20 -20 -20 -20 -20 -20 -20 2 -3 15 15 9 28 23 13 10 -17 21 34 32 23 20 -20 -20 -20 -20 -20 -17 16 9
23 23 17 -19 -7 -20 -20 -20 -20 -20 -20 -20 -20 -20 -20 -20 -20 -20 -20 -20 -20 -17 14 11 34 26 27 18 13 5 11 4 15 25 41 37 10 21 -20 -20 -20 -20 -20 -17 -13
27 21 21 -11 -0 -20 -20 -20 -20 -20 -20 -20 -20 -20 -20 -20 -20 -20 -20 -20 -20 -14 24 7 21 14 41 -4 10 -20 -20 -14 3 13 31 24 42 -14 23 -20 -20 -20 -20 -20 -20
28 20 30 12 -13 -20 -20 -20 -20 -20 -20 -20 -20 -20 -20 -20 -20 -20 -18 -16 -2 15 14 16 21 16 25 30 -20 -20 12 -13 8 27 27 30 43 4 -20 -20 -20 -20 -20 -20 -20
17 32 29 20 -20 -20 -20 -20 -20 -20 -20 -20 -20 -20 -20 -20 -20 9 17 4 16 17 26 -2 2 -20 -19 19 -12 -20 19 -9 13 34 7 20 35 19 -8 -20 -20 -20 -20 -20 -20
29 32 24 12 -20 -20 -20 -20 -20 -20 -20 -20 -20 -20 -20 -20 -20 -18 24 30 35 26 21 14 9 28 36 19 -20 -20 8 23 -1 3 -3 9 19 32 5 -6 -20 -20 -20 -20 -20
29 32 22 -16 -20 -20 -20 -20 -20 -20 -20 -20 -20 -20 -20 -20 -20 4 20 17 25 16 6 21 23 34 32 13 12 -20 -20 -6 -2 -14 31 25 1 9 8 -12 -20 -20 -20 -20 -20
33 31 20 -18 -20 -20 -20 -20 -20 -20 -20 -20 -20 -20 -20 -20 3 24 27 9 1 15 21 21 22 21 12 -9 5 -20 -20 -7 -11 -10 20 -4 -20 10 -20 -12 -19 -20 -20 -20 -20
32 28 13 -20 -20 -20 -20 -20 -20 -20 -20 -20 -20 -20 -20 -20 -20 -14 -2 17 25 -0 16 -8 -19 16 15 2 0 19 -11 -7 -8 4 -10 -17 -17 -3 -20 -20 -20 -20 -20 -20 -20
34 30 7 -20 -20 -20 -20 -20 -20 -20 -20 -20 -20 -20 -20 -20 -20 -20 -20 -20 -20 -20 -20 -11 -20 -7 -19 6 21 19 -20 -20 -19 -19 -20 -20 -20 -20 -20 -20 -20 -20 -20 -20 -20
31 22 -8 -20 -20 -20 -20 -20 -20 -20 -20 -20 -20 -20 -20 -20 -20 -20 -20 -20 -20 -20 -20 -20 11 -16 -20 -17 -8 -20 -20 0 -19 -20 -20 -20 -17 -20 -20 -20 -20 -20 -20 -20 -20
31 17 -20 -20 -20 -20 -20 -20 -20 -20 -20 -20 -20 -20 -20 -20 -20 -20 -20 -20 -20 -20 -20 -20 -20 -20 -20 1 -0 -20 -20 -20 -20 -20 -20 -20 -20 -20 -20 -15 -11 -20 -20 -20 -20
32 6 -14 -20 -20 -20 -20 -20 -20 -20 -20 -20 -20 -20 -20 -20 -20 -20 -20 -20 -20 -20 -20 -20 -20 -20 -20 -20 -0 -18 -20 -20 -20 -20 -20 -20 -20 -20 -20 -20 -20 -20 -20 -20 -20
24 -6 -20 -20 -20 -20 -20 -20 -20 -20 -20 -20 -20 -20 -20 -20 -20 -20 -20 -20 -20 -20 -20 -20 -20 -20 -20 -20 -20 -20 -20 -20 -20 -20 -20 -20 -20 -20 -20 -20 -13 -20 -20 -20 -20
28 -2 -20 -20 -20 -20 -20 -20 -20 -20 -20 -20 -20 -20 -20 -20 -20 -20 -20 -20 -20 -20 -20 -20 -20 -20 -20 -20 -20 -20 -20 -20 -20 -20 -20 -20 -20 -20 -20 -20 -20 -20 -20 -20 -20
12 -3 -4 -20 -20 -20 -20 -20 -20 -20 -20 -20 -20 -20 -20 -20 -20 -20 -20 -20 -20 -20 -20 -20 -20 -20 -20 -20 -20 -20 -20 -20 -20 -20 -20 -20 -20 -20 -20 -20 -20 -20 -20 -20 -20
5 -20 -20 -20 -15 -20 -20 -20 -20 -20 -20 -20 -20 -20 -20 -20 -20 -20 -20 -20 -20 -20 -20 -20 -20 -20 -20 -20 -20 -20 -20 -20 -20 -20 -20 -4 -15 -20 -20 -20 -20 -20 -20 -20 -20
-2 -20 -20 -20 -20 -20 -20 -20 -20 -20 -20 -20 -20 -20 -20 -20 -20 -20 -20 -20 -20 -20 -20 -20 -20 -20 -20 -20 -20 -20 -20 -20 -20 -20 -20 -20 -20 -20 -20 -20 -20 -20 -20 -20 -20
-19 -20 -20 -20 -20 -20 -20 -20 -20 -20 -20 -20 -20 -20 -20 -20 -20 -20 -20 -20 -20 -20 -20 -20 -20 -20 -20 -20 -20 -20 -20 -20 -20 -20 -20 -20 -20 -20 -20 -20 -20 -20 -20 -20 -20

GFSSW_prec_radar_096.txt.gz
Reflectivity
19 8 -6 -15 1 9 -20 -20 -20 -20 -7 -20 -20 -3 -0 -20 -20 -20 -20 -20 -20 -20 11 -20 -20 -20 -20 -20 -20 6 14 10 9 16 -20 -18 -19 -20 -20 -20 -6 17 14 33 13
21 15 3 4 -3 10 -20 -20 -20 -20 15 -20 -20 -0 -19 -20 -20 -20 -20 -20 -20 8 -20 -20 -20 -20 -19 -9 -16 13 -17 -17 -20 -19 -20 -11 12 -16 -20 -20 2 7 14 21 33
19 24 18 8 2 11 2 -20 -20 -20 7 -20 -20 -20 -20 -20 -20 -20 -20 -20 -20 -20 -20 -20 -20 -20 -1 11 -13 -14 -9 -20 -9 -20 -20 13 22 8 -16 -12 -19 -19 13 23 28
26 27 25 13 5 5 -14 -20 -20 -20 -1 -0 -20 -20 -20 -20 -20 -20 -20 -20 -20 -20 -20 -20 -20 -20 -20 1 -20 -2 -20 -12 -20 1 -20 -1 2 -20 -20 -20 -9 -6 14 17 34
25 25 28 17 11 5 -5 -20 -20 -12 -20 9 -8 -14 -20 -20 -20 -20 -20 -20 -20 -20 -20 -20 -20 2 0 -19 -20 9 -20 -7 -20 -20 -16 27 -1 -15 -20 -13 -4 19 16 18 7
22 14 26 24 28 8 -20 -4 -3 -20 -20 -8 -20 -20 -20 -20 -20 -20 -20 -20 -20 -20 -20 -20 -20 -20 7 -20 -7 -20 -20 -20 -20 1 22 34 3 17 -20 -20 8 9 7 7 8
29 28 21 31 29 11 -20 2 -14 -20 -20 -7 -3 -20 -20 -20 -20 -20 -20 -20 -20 -20 -20 9 11 25 14 20 -20 -17 6 -20 -20 -6 23 38 27 8 14 -20 29 27 -8 35 3
31 12 25 11 31 15 -1 -1 -20 -20 -20 -20 -5 -20 -20 -20 -20 -20 -20 -20 -20 -20 -20 15 5 27 1 -1 24 -16 -13 13 -20 15 21 36 18 -20 -20 23 26 -16 10 33 -10
31 26 21 19 31 5 10 -20 -20 -20 -20 -20 -20 -20 -20 -20 -20 -20 -20 -20 -20 -20 -20 6 -3 25 -14 14 7 20 -15 -8 -10 9 33 38 41 20 16 14 1 -20 5 22 33
20 34 33 29 34 19 -0 -20 -20 -20 -20 -20 -20 -20 -20 -20 -20 -20 -20 -20 -20 -20 -0 25 32 11 4 6 -5 -9 5 -4 -2 10 29 35 30 9 21 18 11 -20 -14 8 26
29 29 26 32 32 20 -10 -20 -20 -20 -20 -20 -20 -20 -20 -20 -20 -20 -20 -20 -20 -20 4 31 28 4 -19 -8 0 -11 -20 4 21 26 22 33 41 28 15 18 14 -20 -20 -16 -2
26 13 32 28 31 12 -20 -20 -20 -20 -20 -20 -20 -20 -20 -20 -20 -20 -20 -20 -7 -18 -16 5 -7 -2 -0 -2 21 -16 19 17 14 -13 27 26 37 46 18 -20 -20 -20 -20 -20 -1
27 17 37 33 30 3 -20 -20 -20 -20 -20 -20 -20 -20 -20 -20 -20 -17 -5 -20 -20 3 -4 4 -2 -20 19 20 23 -20 1 4 -5 14 27 19 7 26 32 -20 -20 -20 -20 -20 -20
26 21 32 31 28 -8 -20 -20 -20 -20 -20 -20 -20 -20 -20 -20 -20 -20 -5 19 22 11 22 29 -4 3 41 15 6 -20 -19 23 -6 38 16 24 -3 18 11 -7 -20 -20 -20 -20 -20
26 21 30 35 31 -12 -20 -20 -20 -20 -20 -20 -20 -20 -20 -18 15 8 10 19 6 24 30 32 18 -2 25 11 20 -20 21 15 -5 2 6 12 -8 -20 -6 13 -20 -20 -20 -20 -20
30 21 33 35 17 -18 -20 -20 -20 -20 -20 -20 -20 -20 -20 -20 -10 -12 -17 -1 33 23 28 43 30 39 8 -13 -10 -20 -16 7 4 2 10 3 -20 -20 18 34 10 -20 -20 -20 -20
32 23 33 35 14 -20 -20 -20 -20 -20 -20 -20 -20 -20 -20 -20 -20 -20 -14 -18 -9 -16 -20 22 13 14 19 -1 14 25 -20 -20 -20 -5 -2 -20 -20 1 -3 16 -12 -20 -20 -20 -20
31 32 33 36 -1 -20 -20 -20 -20 -20 -20 -20 -20 -20 -20 -20 -20 -20 -20 -20 -20 -20 -20 -19 16 3 -15 -19 21 -17 -20 -20 -20 -20 -17 -20 -4 -20 -20 10 -17 -20 -20 -20 -20
29 35 32 27 -10 -20 -20 -20 -20 -20 -20 -20 -20 -20 -20 -20 -20 -20 -20 -20 -20 -20 -20 -20 15 -18 15 -2 24 14 -20 -20 -20 -20 -13 -20 -20 -20 -6 -13 -7 -20 -20 -20 -20
32 32 38 12 -19 -20 -20 -20 -20 -20 -20 -20 -20 -20 -20 -20 -20 -20 -20 -20 -20 -20 -20 -20 -17 -13 -8 -5 -15 -19 -20 -20 -20 -20 -19 -20 -20 -20 -19 -11 -20 -20 -20 -20 -20
32 35 33 -9 -20 -20 -20 -20 -20 -20 -20 -20 -20 -20 -20 -20 -20 -20 -20 -20 -20 -20 -20 -20 -20 -20 -20 16 -20 -16 -20 -20 -20 -20 -20 -20 -20 -20 -20 -20 -20 -20 -20 -20 -20
28 32 21 -20 -19 -19 -20 -20 -20 -20 -20 -20 -20 -20 -20 -20 -20 -20 -20 -20 -20 -20 -20 -20 -20 -20 -20 -20 -20 -20 -20 -20 -20 -20 -20 -20 -20 -20 -20 -20 -20 -20 -20 -20 -20
28 32 8 -15 -20 -20 -20 -20 -20 -20 -20 -20 -20 -20 -20 -20 -20 -20 -20 -20 -20 -20 -20 -20 -20 -20 -20 -20 -20 -20 -20 -20 -20 -20 -20 -20 -20 -20 -20 -20 -20 -20 -20 -20 -20
26 29 -9 4 -20 -20 -20 -20 -20 -20 -20 -20 -20 -20 -20 -20 -20 -20 -20 -20 -20 -20 -20 -20 -20 -20 -20 -20 -20 -20 -20 -20 -20 -20 -20 -20 -20 -20 -20 -20 -20 -20 -20 -20 -20
26 13 -20 -13 -9 -20 -20 -20 -20 -20 -20 -20 -20 -20 -20 -20 -20 -20 -20 -20 -20 -20 -20 -20 -20 -20 -20 -20 -20 -20 -20 -20 -20 -20 -20 -20 -20 -20 -20 -20 -20 -20 -20 -20 -20
13 -20 -20 -20 -20 -20 -20 -20 -20 -20 -20 -20 -20 -20 -20 -20 -20 -20 -20 -20 -20 -20 -20 -20 -20 -20 -20 -20 -20 -20 -20 -20 -20 -20 -20 -20 -20 -20 -20 -20 -20 -20 -20 -20 -20
-3 -20 -20 6 -20 -20 -20 -20 -20 -20 -20 -20 -20 -20 -20 -20 -20 -20 -20 -20 -20 -20 -20 -20 -20 -20 -20 -20 -20 -20 -20 -20 -20 -20 -20 -20 -20 -20 -20 -20 -20 -20 -20 -20 -20

GFSSW_prec_radar_099.txt.gz
Reflectivity
-8 -2 10 18 16 0 14 1 -20 -20 -4 15 -20 -20 -20 -20 -20 -20 -20 -20 -20 -20 11 -20 -20 -20 -20 -20 -20 15 11 2 3 -3 -20 -20 -20 -20 -20 -20 -11 0 23 34 29
10 6 11 4 17 15 14 3 -7 -20 -17 11 -20 -20 -20 -20 -20 -20 -20 -20 -20 12 -20 -20 -20 -20 -20 -1 10 11 2 -20 -20 -20 -20 7 17 -20 6 -20 -20 9 17 30 37
33 13 21 18 11 19 18 12 -19 -20 -20 21 -20 -20 -20 -20 -20 -20 -20 -20 -20 -20 -20 -20 -20 -20 -20 4 11 9 -20 -20 -20 -20 14 19 21 -20 -1 -17 -20 4 4 23 25
3 24 30 14 15 -0 26 17 -13 -17 -20 15 -20 -20 -20 -20 -20 -20 -20 -20 -20 -20 -20 -20 -20 -20 -0 -20 -20 5 -20 -20 -20 -20 4 14 15 -19 -19 -20 -16 -4 20 29 24
-0 24 22 11 14 6 23 19 7 -5 -8 13 -18 -0 -20 -20 -20 -20 -20 -20 -20 -20 -20 -20 -20 -20 -20 -20 -20 -17 -20 -20 -20 -20 -20 -17 9 26 -3 -20 -16 2 15 7 -5
2 13 24 19 33 7 27 17 17 10 10 15 -20 -20 -20 -20 -20 -20 -20 -20 -20 -20 -20 -20 -20 -20 -20 -20 3 -20 -20 -20 -20 -4 -11 -20 5 21 13 -16 -17 29 2 -10 15
-20 -1 23 21 32 25 23 22 12 18 2 13 -18 -20 -20 -20 -20 -20 -20 -20 -20 -20 -20 -20 -20 -20 15 -20 -20 -20 11 10 -20 -18 14 -20 -5 29 -4 6 11 4 17 -1 -2
-18 11 29 26 22 23 32 25 17 14 9 12 -4 -20 -20 -20 -20 -20 -20 -20 -20 -20 -20 -20 -6 -5 9 13 -12 -19 -9 9 -20 -20 13 -13 -19 13 6 -13 17 21 6 12 23
-20 -3 19 22 26 35 30 30 21 13 -4 9 -20 -20 -20 -20 -20 -20 -20 -20 -20 -20 -20 -2 2 30 36 22 -3 24 15 7 -9 -20 -20 -19 9 1 28 -20 -1 22 28 31 19
-18 10 19 22 24 31 30 30 17 3 -20 -20 -20 -20 -20 -20 -20 -20 -20 -20 -20 -20 11 16 24 28 22 23 -7 25 -13 19 19 7 -20 -20 8 31 21 -20 0 17 24 14 16
-20 8 28 7 19 31 32 24 6 -1 -20 -20 -20 -20 -20 -20 -20 -20 -20 -20 -20 -9 -10 5 22 12 -20 -20 -3 35 -15 -20 5 28 5 -20 7 32 4 -3 14 23 19 29 14
0 -6 27 19 19 22 30 13 3 -20 -20 -20 -20 -20 -20 -20 -20 -20 -20 -20 7 -19 -20 4 6 1 -20 -20 -16 25 -19 17 22 16 -19 -9 -17 26 15 16 19 24 19 29 32
12 -11 27 21 19 33 34 5 2 -20 -20 -20 -20 -20 -20 -20 -20 -20 -17 -16 -15 -20 -10 5 20 14 31 0 20 -5 -20 20 -18 -11 -19 -17 16 28 24 26 -4 16 18 25 27
15 14 20 21 20 34 30 8 -3 -20 -20 -20 -20 -20 -20 -20 -20 -8 5 1 2 10 30 25 28 23 11 5 15 -19 7 -20 -20 -15 3 12 14 19 9 8 3 -14 -3 14 17
16 4 26 17 8 32 21 3 -20 -20 -20 -20 -20 -20 -20 -19 10 -6 8 4 23 32 34 23 28 23 17 -20 -1 -20 -15 28 8 -20 7 16 6 29 23 26 19 13 -20 -20 12
6 16 25 9 30 31 1 4 -20 -20 -20 -20 -20 -20 -20 -20 -1 -10 -19 6 19 40 26 25 10 15 -17 14 -20 -19 -20 20 13 -16 3 -0 14 17 9 24 34 -3 -17 -18 -8
-19 22 17 1 29 24 -5 -20 -20 -20 -20 -20 -20 -20 -20 -20 -20 -20 -20 -18 -19 17 12 33 21 2 5 11 -2 19 -20 -14 -20 -7 -1 9 13 -1 -0 18 -10 -20 -4 -11 16
15 27 22 17 28 22 -16 -20 -20 -20 -20 -20 -20 -20 -20 -20 -20 -20 -20 -20 -20 -20 -20 -3 23 18 23 3 -5 15 -20 -20 -20 9 5 7 2 10 10 13 14 -8 11 -7 -20
24 25 14 26 24 17 -20 -20 -20 -20 -20 -20 -20 -20 -20 -20 -20 -20 -20 -20 -20 -20 -20 -20 -13 27 -7 -20 -9 -20 -20 -20 -20 3 -20 -17 -20 -20 -17 13 -6 4 7 -20 -20
32 15 26 23 24 -10 -20 -20 -20 -20 -20 -20 -20 -20 -20 -20 -20 -20 -20 -20 -20 -20 -20 -20 10 23 9 35 -15 -10 -20 -20 -20 -20 -20 -20 -20 -20 -20 -8 -20 -13 5 -20 -20
17 24 29 22 19 -20 -20 -20 -20 -20 -20 -20 -20 -20 -20 -20 -20 -20 -20 -20 -20 -20 -20 -20 -16 -19 -20 -7 -20 -17 -20 -20 -20 -20 -20 -20 -20 -20 -20 -20 -20 -20 -20 -20 -20
19 31 28 16 7 -20 -20 -20 -20 -20 -20 -20 -20 -20 -20 -20 -20 -20 -20 -20 -20 -20 -20 -20 -20 -20 -20 -20 -20 -20 -20 -20 -20 -20 -20 -20 -20 -20 -20 -20 -20 -20 -20 -20 -20
22 25 28 22 -20 -20 -20 -20 -20 -20 -20 -20 -20 -20 -20 -20 -20 -20 -20 -20 -20 -20 -20 -20 -20 -20 -20 -20 -20 -20 -20 -20 -20 -20 -20 -20 -20 -20 -20 -20 -20 -20 -20 -20 -20
7 23 30 15 -20 -20 -20 -20 -20 -20 -20 -20 -20 -20 -20 -20 -20 -20 -20 -20 -20 -20 -20 -20 -20 -20 -20 -20 -20 -20 -20 -20 -20 -20 -20 -20 -20 -20 -20 -20 -20 -20 -20 -20 -20
7 -0 8 -17 -14 -20 -20 -20 -20 -20 -20 -20 -20 -20 -20 -20 -20 -20 -20 -20 -20 -20 -20 -20 -20 -20 -20 -20 -20 -20 -20 -20 -20 -20 -20 -20 -20 -20 -20 -20 -20 -20 -20 -20 -20
19 10 -20 -20 -20 -20 -20 -20 -20 -20 -20 -20 -20 -20 -20 -20 -20 -20 -20 -20 -20 -20 -20 -20 -20 -20 -20 -20 -20 -20 -20 -20 -20 -20 -20 -20 -20 -20 -20 -20 -20 -20 -20 -20 -20
6 -20 -20 5 -20 -20 -20 -20 -20 -20 -20 -20 -20 -20 -20 -20 -20 -20 -20 -20 -20 -20 -20 -20 -20 -20 -20 -20 -20 -20 -20 -20 -20 -20 -20 -20 -20 -20 -20 -20 -20 -20 -20 -20 -20

GFSSW_prec_radar_102.txt.gz
Reflectivity
-18 16 22 -0 5 4 2 -2 4 -20 -20 -18 -7 -20 -20 -20 -20 -20 -20 -20 -20 -20 10 -20 -20 -20 -20 -20 -0 -11 10 -2 -20 -20 -20 -20 -20 -20 -19 -16 -20 -20 -18 17 26
-20 5 21 14 20 12 -14 -8 -3 -20 -17 -20 0 -20 -20 -20 -20 -20 -20 -20 -20 10 -20 -20 -20 -20 -20 -8 -7 11 -12 -20 -20 -20 -20 -20 -20 -20 -19 17 -16 -20 -20 8 15
6 -12 -8 10 11 8 -11 4 -20 -20 -4 -20 14 -20 -20 -20 -20 -20 -20 -20 5 -20 -20 -20 -20 -20 -20 -20 -9 -16 -20 -20 -20 -20 -20 -20 -20 -20 -20 -11 -20 -20 -20 28 6
14 -18 -9 15 13 2 8 17 3 -16 8 -20 12 -20 -19 -5 -16 -20 -20 -20 -20 -20 -20 -20 -20 -20 -20 -20 -20 1 -20 -20 -20 -20 -20 -20 -16 8 20 -20 1 -19 -14 -20 13
-11 -14 6 19 10 19 21 -4 19 13 8 -20 11 3 -4 2 -16 -20 -20 -20 -20 -20 -20 -20 -20 -20 -20 -20 -20 -20 -20 -20 -20 -20 -20 -20 -3 -9 23 -12 28 1 -16 28 14
-18 7 11 9 20 16 20 27 12 12 1 1 14 4 -9 -20 -20 -20 -20 -20 -20 -20 -20 -20 -20 -20 -20 -20 -20 -20 -20 -20 -20 -20 -20 -20 -20 23 24 -20 -20 -20 -9 32 14
1 -5 12 13 21 19 16 17 13 25 7 13 18 -12 -20 -20 -20 -20 -20 -20 -20 -20 -20 -20 -20 -20 4 2 0 -20 -20 -17 -20 -20 -20 -20 5 -2 3 -5 -2 -20 -19 12 19
-17 -20 5 22 27 18 15 14 19 16 17 8 21 -20 -20 -20 -20 -20 -20 -20 -20 -20 -20 -20 -1 11 -4 -3 -19 20 -12 -7 -20 -20 -20 17 -20 -20 -2 -4 17 14 -12 2 35
-20 -20 -13 -12 19 -4 9 18 27 11 15 19 -20 -20 -20 -20 -20 -20 -20 -20 -20 -20 -20 -11 -0 -3 -20 13 16 16 -9 -6 -12 -20 -16 20 -17 21 -20 -1 10 8 -18 23 30
-20 -20 -20 16 20 5 20 22 8 16 8 -6 -20 -20 -20 -20 -20 -20 -20 -20 -20 -16 10 14 18 14 15 19 12 -11 16 16 1 -20 -5 6 -13 -20 -20 -11 -20 8 -20 7 26
-20 -20 32 29 11 4 7 10 25 14 -6 -20 -20 -20 -20 -20 -20 -20 -20 -20 -20 -20 -20 1 13 10 9 18 22 -14 18 21 22 -20 -16 3 -20 -20 -20 -1 6 3 -20 4 21
-19 -12 7 20 29 18 6 -8 12 12 2 -20 -20 -20 -20 -20 -20 -20 -20 -20 -18 -16 -5 15 3 13 8 -10 16 20 14 23 27 2 2 3 -20 -17 -20 -13 14 6 -10 7 10
-20 -20 -9 19 16 13 2 3 15 10 -2 -20 -20 -20 -20 -20 -20 -20 -20 -20 -20 -0 -12 17 24 26 15 5 10 20 6 19 12 25 -13 -5 -5 -16 -7 25 -12 -20 10 5 20
-0 -11 32 20 21 4 17 -2 15 2 -19 -20 -20 -20 -20 -20 -20 -20 -10 4 18 25 28 28 13 6 12 -2 -19 -6 -20 17 -20 -18 3 5 -4 1 -1 13 -20 -20 12 20 10
5 -13 29 20 -20 20 22 14 10 -18 -20 -20 -20 -20 -20 -20 -20 -20 -20 23 34 28 18 6 8 14 -11 -16 -20 11 -20 12 11 27 -1 -20 8 3 0 1 2 2 -1 16 11
8 -7 31 -20 -7 14 16 16 -10 -20 -20 -20 -20 -20 -20 -20 -20 -20 -20 11 31 20 5 -8 -11 -8 16 -17 -14 16 5 20 21 10 1 -14 3 14 28 30 17 32 8 23 18
-20 -20 27 -20 -6 18 14 6 -18 -20 -20 -20 -20 -20 -20 -20 -20 -20 -15 -18 8 21 19 16 8 -15 -1 17 18 17 36 9 15 14 10 10 11 16 8 10 32 -13 -11 -3 4
-20 25 24 3 6 27 5 -4 -20 -20 -20 -20 -20 -20 -20 -20 -20 -20 -20 -18 -20 27 -10 18 16 37 6 6 11 -10 1 7 4 3 -20 -15 17 26 3 -12 22 -1 -7 -6 -5
6 25 0 18 26 16 -2 -20 -20 -20 -20 -20 -20 -20 -20 -20 -20 -20 -20 -20 -20 -20 -20 11 13 -11 15 -20 -2 -16 -20 -20 -20 -20 -5 -3 12 15 4 1 -11 23 31 2 -20
26 11 18 20 25 2 -19 -20 -20 -20 -20 -20 -20 -20 -20 -20 -20 -20 -20 -20 -20 -20 -15 -6 23 2 1 -20 -20 -20 -20 -20 -20 -20 -20 -20 -12 -11 2 -4 -5 -3 -1 -20 -13
22 18 21 22 9 -20 -20 -20 -20 -20 -20 -20 -20 -20 -20 -20 -20 -20 -20 -20 -20 -20 -20 -20 -16 23 -19 -20 -20 -20 -20 -20 -20 -20 -20 -20 -20 -20 -20 -20 -20 -20 -20 -20 -20
12 16 26 3 -16 -20 -20 -20 -20 -20 -20 -20 -20 -20 -20 -20 -20 -20 -20 -20 -20 -20 -20 -20 -20 -18 -10 16 -20 -20 -20 -20 -20 -20 -20 -20 -20 -20 -20 -20 -20 -20 -20 -20 -20
25 21 22 -4 -20 -20 -20 -20 -20 -20 -20 -20 -20 -20 -20 -20 -20 -20 -20 -20 -20 -20 -20 -20 -20 -20 -20 -20 -20 -20 -20 -20 -20 -20 -20 -20 -20 -20 -20 -20 -20 -20 -20 -20 -20
4 9 22 1 -20 -20 -20 -20 -20 -20 -20 -20 -20 -20 -20 -20 -20 -20 -20 -20 -20 -20 -20 -20 -20 -20 -20 -20 -20 -20 -20 -20 -20 -20 -20 -20 -20 -20 -20 -20 -20 -20 -20 -20 -20
-2 5 -13 3 -4 -20 -20 -20 -20 -20 -20 -20 -20 -20 -20 -20 -20 -20 -20 -20 -20 -20 -20 -20 -20 -20 -20 -20 -20 -20 -20 -20 -20 -20 -20 -20 -20 -20 -20 -20 -20 -20 -20 -20 -20
-20 -20 -20 -20 -20 -20 -20 -20 -20 -20 -20 -20 -20 -20 -20 -20 -20 -20 -20 -20 -20 -20 -20 -20 -20 -20 -20 -20 -20 -20 -20 -20 -20 -20 -20 -20 -20 -20 -20 -20 -20 -20 -20 -20 -20
-20 -20 -20 -20 -20 -20 -20 -20 -20 -20 -20 -20 -20 -20 -20 -20 -20 -20 -20 -20 -20 -20 -20 -20 -20 -20 -20 -20 -20 -20 -20 -20 -20 -20 -20 -20 -20 -20 -20 -20 -20 -20 -20 -20 -20

GFSSW_prec_radar_105.txt.gz
Reflectivity
-5 5 13 -18 5 13 12 -20 -16 -20 -20 -20 -0 -20 -20 -20 -20 -20 -20 -20 -20 -20 -20 -20 -20 -20 -20 -20 -20 -20 7 -10 -20 -20 -20 -20 -20 -3 -19 -20 -20 10 17 24 12
4 -7 -12 -13 26 13 11 -17 -20 -7 -19 -20 -20 -20 -20 -20 -20 -20 -20 -20 -20 -20 -20 -20 -20 -20 -20 -20 -20 0 -8 -20 -20 -20 -20 -20 -20 -20 -10 13 -19 16 -5 -2 -5
-20 -16 8 5 15 5 13 1 -20 1 -20 -20 6 -20 -20 -20 -20 -20 -20 -20 -11 -20 -20 -20 -20 -20 -20 -20 -20 -20 -20 -20 -20 -20 -20 -20 -19 -5 12 -15 10 -19 -3 4 -3
-20 -9 7 7 7 18 18 22 -3 1 -13 -20 2 -20 -20 -20 -20 -20 -20 -20 -10 -20 -20 -20 -20 -20 -20 -20 -20 -20 -20 -20 -20 -20 2 -20 -20 -15 -20 -1 0 -20 16 1 -19
-20 4 6 9 -8 28 14 8 10 -15 -6 -20 -20 -20 -20 -20 -20 -20 -20 -20 -20 -20 -20 -20 -20 -20 -20 -20 -20 -20 -20 -20 -20 -20 -20 -20 -20 -20 -20 -20 -20 -20 9 -16 31
-20 -16 -19 3 2 28 8 -19 3 18 12 -19 -20 -20 -7 -8 -20 -20 -20 -20 -20 -20 -20 -20 -20 -20 -20 -20 -20 -20 -20 -20 -20 -20 -20 -20 -20 -20 -20 -20 -20 -1 -20 -9 -5
-20 -20 -20 -4 9 11 18 -1 -1 28 -17 -20 -20 -8 -19 -20 -20 -20 -20 -20 -20 -20 -20 -20 -20 -20 -20 -20 -20 -20 -20 -20 -20 -20 -20 -20 -20 -20 -20 -20 -20 -18 -20 7 -20
-20 -20 -20 -20 32 19 16 19 18 22 -20 -20 -0 -7 -15 -20 -20 -20 -20 -20 -20 -20 -20 -20 -20 -20 3 1 1 9 8 9 -20 -20 -20 -9 -13 -20 -20 -20 -20 -20 -20 -20 -20
-20 -20 -20 -20 12 17 24 -3 -20 -16 -20 -14 8 -4 -20 -20 -20 -20 -20 -20 -20 -20 -20 -20 -2 9 10 11 11 -3 4 15 -20 -20 -20 -13 -17 -20 -20 -20 -20 -20 -20 -20 -20
-20 -20 -20 -20 18 3 10 29 9 -4 -5 -5 0 -20 -20 -20 -20 -20 -20 -20 -20 -20 9 3 13 9 3 6 4 17 16 -20 -17 -20 -4 9 -5 -20 -20 -20 -20 -20 -20 6 -18
-20 -20 5 31 9 3 19 12 -15 -13 0 -2 -15 -20 -20 -20 -20 -20 -20 -20 -20 2 3 6 7 6 -19 10 13 10 16 13 21 -20 23 -20 -13 -20 -20 -20 -20 -12 -20 -20 -13
-20 -20 -10 30 27 24 31 -19 -11 -8 14 -3 -20 -20 -20 -20 -20 -20 -20 -8 -7 -8 10 18 -10 -20 13 14 18 27 -20 -20 -7 16 -10 -20 17 -20 -20 -20 -20 -1 2 -20 -6
-20 -20 -20 9 24 38 9 3 -20 -12 -2 -3 -20 -20 -20 -20 -20 -11 -20 -19 3 20 32 15 1 -10 16 -1 -20 -20 -19 16 39 -0 3 -20 7 -20 -20 -20 -3 9 7 -20 1
-20 -20 -20 14 6 -15 11 25 -19 7 -4 -20 -20 -20 -20 -20 -17 -20 -20 -13 9 8 21 18 -11 7 9 -5 -20 -20 13 38 26 17 5 -20 18 18 -19 -10 -10 -12 -18 -9 5
-20 -10 34 12 23 11 23 3 -0 3 -13 -20 -20 -20 -20 -8 -7 -19 -20 11 23 7 10 10 -12 6 12 -0 -20 -17 -1 7 25 25 29 -3 31 24 -1 0 10 -16 -20 10 18
-20 -7 38 -11 24 25 11 7 -5 -18 -20 -20 -20 -20 -20 -20 -20 -20 -18 -1 -10 -19 -5 -2 -19 7 -17 -1 -14 -20 9 13 34 30 -1 22 21 26 6 6 7 -13 -4 13 17
-20 -20 21 -16 17 26 -4 -18 -8 -20 -20 -20 -20 -20 -20 -20 -20 -20 -5 18 1 8 7 7 11 -2 -2 18 29 19 27 25 21 18 2 -3 -7 30 1 4 14 12 9 15 27
-20 -20 -15 -16 28 25 -17 2 -20 -20 -20 -20 -20 -20 -20 -20 -20 -20 3 21 17 -18 9 -2 12 -18 6 29 38 36 13 8 20 11 -1 14 9 27 28 33 29 6 5 16 13
-11 -4 -1 10 27 27 4 1 -20 -20 -20 -20 -20 -20 -20 -20 -20 -20 -20 -7 -12 -2 16 22 -3 -20 -16 -5 2 12 3 11 16 1 -10 15 25 19 14 16 37 26 4 5 23
-1 18 21 25 27 18 -2 -20 -20 -20 -20 -20 -20 -20 -20 -20 -20 -20 -7 -20 -20 -20 16 -20 -13 -20 -20 -12 -0 -8 -18 -16 -20 -14 -1 18 18 25 11 23 30 31 10 3 6
-0 4 24 19 22 -3 -9 -14 -20 -20 -20 -20 -20 -20 -20 -20 -20 -20 -20 -20 -20 -20 -18 14 -5 -20 -20 -20 -18 -20 -20 -20 -20 -20 -20 -20 -18 -16 -15 -14 -3 15 11 9 -11
-14 7 14 17 10 -19 -20 -20 -20 -20 -20 -20 -20 -20 -20 -20 -20 -20 -20 -20 -20 -20 -20 -20 4 -2 -20 -20 -20 -20 -20 -20 -20 -20 -20 -20 -20 -20 -20 -20 -20 -19 -14 -12 -20
-4 17 15 -1 1 -20 -20 -20 -20 -20 -20 -20 -20 -20 -20 -20 -20 -20 -20 -20 -20 -20 -20 -9 -20 -15 -20 -20 -20 -20 -20 -20 -20 -20 -20 -20 -20 -20 -20 -20 -20 -20 -20 -20 -20
-18 1 -1 -11 -20 -20 -20 -20 -20 -20 -20 -20 -20 -20 -20 -20 -20 -20 -20 -20 -20 -20 -20 -20 -20 -20 -20 -20 -20 -20 -20 -20 -20 -20 -20 -20 -20 -20 -20 -20 -20 -20 -20 -20 -20
-20 -12 -15 -6 -20 -20 -20 -20 -20 -20 -20 -20 -20 -20 -20 -20 -20 -20 -20 -20 -20 -20 -20 -20 -20 -20 -20 -20 -20 -20 -20 -20 -20 -20 -20 -20 -20 -20 -20 -20 -20 -20 -20 -20 -20
-20 -20 -20 -20 -20 -20 -20 -20 -20 -20 -20 -20 -20 -20 -20 -20 -20 -20 -20 -20 -20 -20 -20 -20 -20 -20 -20 -20 -20 -20 -20 -20 -20 -20 -20 -20 -20 -20 -20 -20 -20 -20 -20 -20 -20
-20 -20 -20 -20 -20 -20 -20 -20 -20 -20 -20 -20 -20 -20 -20 -20 -20 -20 -20 -20 -20 -20 -20 -20 -20 -20 -20 -20 -20 -20 -20 -20 -20 -20 -20 -20 -20 -20 -20 -20 -20 -20 -20 -20 -20

GFSSW_prec_radar_108.txt.gz
Reflectivity
11 -20 -20 -20 11 24 14 20 12 -11 -20 -20 -20 -17 -20 -20 -20 -20 -20 -20 -20 -20 -20 -20 -20 -20 -20 -20 -20 -20 0 -8 -20 -20 -20 -20 -20 -20 6 -14 -20 -20 -20 4 -20
9 9 -20 -20 1 16 16 19 3 -6 -19 -20 -20 -17 -20 -20 -20 -20 -20 -20 -20 -20 -20 -20 -20 -20 -20 -20 -20 -20 4 -13 -20 -20 -20 -20 -20 -20 -19 -0 -20 -20 -20 -19 -20
-10 16 7 13 -4 10 20 17 4 -17 -20 -20 -20 -20 -20 -20 -20 -20 -20 -20 -20 -20 -20 -20 -20 -20 -20 -20 -20 -20 -3 -20 -20 -20 -20 -20 -20 -20 -20 -20 2 -20 -20 -20 -20
-3 8 -12 11 9 4 27 10 8 -20 10 -20 -20 -20 -20 -20 -20 -20 -20 -20 -20 -20 -20 -20 -20 -20 -20 -20 -20 -20 -20 -20 -20 -20 -20 -20 -20 -20 -20 -20 -20 -14 -20 -20 -20
-13 -4 -20 -20 4 8 29 6 -19 9 9 19 -20 -20 -20 -20 -20 -20 -20 -20 -20 -20 -20 -20 -20 -20 -20 -20 -20 -20 -20 -20 -20 -20 -20 -20 -20 -20 -20 -20 -20 -9 -7 -20 -20
-11 2 -20 -20 6 -10 27 8 -1 3 -18 -20 -20 -20 -20 -20 -20 -20 -20 -20 -20 -20 -20 -20 -20 -20 -20 -20 -20 -20 -20 -20 -20 -20 -20 -20 -20 -20 -20 -20 -20 -20 -20 -20 -20
3 -8 -20 -20 -20 3 5 24 2 11 -20 -20 -20 -20 -20 -20 -20 -20 -20 -20 -20 -20 -20 -20 -20 -20 -20 -20 -20 -20 -20 -20 -20 -20 -20 -20 -20 -20 -20 -20 -20 -20 -20 -20 -20
8 2 -20 -20 13 31 11 16 9 -5 -7 -20 -20 -20 -20 -20 -20 -20 -20 -20 -20 -20 -20 -20 -20 -20 -20 -20 -19 -18 -14 -12 -20 -20 -20 -20 -20 -20 -20 -20 -20 -20 -20 -20 -9
3 -18 -20 -20 -11 21 34 28 16 -15 -16 -20 -7 -20 -20 -20 -20 -20 -20 -20 -20 -20 -19 -20 -20 8 -7 -20 -1 -20 -20 -20 -20 -20 -20 -20 -20 -20 -20 -20 -20 -20 -20 -20 -20
-20 -20 -20 -20 -20 21 24 27 -4 -9 7 -13 -20 -20 -20 -20 -20 -20 -20 -20 -20 -20 -20 6 9 9 -14 -5 -20 -20 -2 19 -18 -20 -6 -20 -20 -20 -20 -20 -20 -20 -20 -20 -20
-20 -20 -10 17 5 5 -1 23 15 -2 -20 -20 -20 -20 -20 -20 -20 -20 -20 -20 -20 -20 -20 4 11 -20 -20 -20 -20 -20 13 -3 -20 -15 -2 -20 -0 -20 38 32 -20 -20 -20 -20 -20
-20 -20 14 41 -3 10 26 32 -20 -20 -20 -20 -20 -20 -20 -20 -20 -20 -20 -20 -20 -20 14 20 -7 -20 -20 -9 -6 10 4 -8 -20 -20 -20 -9 -20 -11 -5 -20 -20 -20 -20 -20 -20
-20 -20 -15 15 24 18 19 26 -20 -20 -20 -20 -20 -20 -20 -20 -20 -20 -20 -18 13 21 20 24 8 -19 -14 -14 5 -3 -6 -20 -20 10 -20 -0 23 5 -20 -20 -20 -20 -20 -20 -20
-20 -20 -20 3 1 25 23 19 -20 -20 -17 -20 -20 -20 -20 -20 -20 -20 -8 11 18 2 14 8 -20 2 12 -5 5 0 5 -19 -20 9 19 -5 -18 -6 -0 1 -16 -20 -20 -20 -20
-20 17 21 -20 -1 -15 28 24 -20 -20 -14 -20 -20 -20 -20 -20 -20 -4 -2 2 13 5 18 10 5 -19 -19 -20 -11 -20 20 24 -8 9 11 -13 25 14 21 11 -2 9 -4 -20 -20
-20 -5 5 10 20 20 17 -20 -14 -20 -20 -20 -20 -20 -20 -20 -20 -20 8 -3 -13 -14 -15 -7 -9 -15 -20 -9 13 1 21 28 35 36 31 9 28 27 27 21 11 17 11 5 21
-20 -20 24 0 15 24 -3 -20 -20 -15 -20 -20 -20 -20 -20 -19 -20 -18 3 -4 -0 -10 -20 -8 -18 -20 -16 1 12 13 23 25 18 11 16 33 22 24 19 14 12 -10 -18 23 22
-20 -20 -15 -9 13 7 -19 -20 -20 -20 -20 -20 -20 -20 -20 -20 -20 -20 -20 6 -20 -20 -19 -3 -20 -20 8 28 37 -4 32 11 2 17 18 7 10 35 29 31 17 -7 24 29 9
-3 -20 -18 -5 -3 -20 -20 1 -10 -20 -20 -20 -20 -20 -20 -20 -20 -20 -20 -17 -20 -20 1 18 -12 -20 -9 -3 22 24 26 18 17 27 -4 20 33 24 31 23 25 25 24 15 29
-20 -20 5 -19 -20 -20 -10 -20 -20 -20 -20 -20 -20 -20 -20 -20 -18 -20 -17 -20 -20 -20 -20 -14 -13 -20 -12 17 12 -3 -1 18 17 17 16 10 12 18 37 36 13 23 22 35 35
-20 -6 1 -18 -20 -20 -1 -20 -20 -20 -20 -20 -20 -20 -20 -20 -20 -20 -20 -20 -20 -20 -20 -20 -4 -20 -8 -20 -20 -20 -20 -20 -20 -19 -17 -18 19 31 30 36 33 9 10 4 3
-17 -20 -20 -20 -11 -20 -20 -20 -20 -20 -20 -20 -20 -20 -20 -20 -20 -20 -20 -20 -20 -20 -20 -20 -19 -20 -20 -20 -20 -20 -20 -20 -20 -20 -20 -20 13 13 9 9 1 4 8 5 -3
-19 4 -20 -20 -20 -20 -20 -20 -20 -20 -20 -20 -20 -20 -20 -20 -20 -20 -20 -20 -20 -20 -20 -20 -20 -20 -20 -18 -20 -20 -20 -20 -20 -20 -20 -20 8 7 -20 -20 -20 -18 -16 -4 -6
-20 -13 -14 -20 -20 -20 -20 -20 -20 -20 -20 -20 -20 -20 -20 -20 -20 -20 -20 -20 -20 -20 -20 -20 -20 -20 -20 -20 -20 -20 -20 -20 -20 -20 -20 -20 -19 -20 -20 -20 -20 -20 -20 -20 -11
-20 -20 -20 -20 -20 -20 -20 -20 -20 -20 -20 -20 -20 -20 -20 -20 -20 -20 -20 -20 -20 -20 -20 -20 -20 -20 -20 -20 -20 -20 -20 -20 -20 -20 -20 -20 -20 -20 -20 -20 -20 -20 -20 -20 -20
-20 -20 -20 -20 -20 -20 -20 -20 -20 -20 -20 -20 -20 -20 -20 -20 -20 -20 -20 -20 -20 -20 -20 -20 -20 -20 -20 -20 -20 -20 -20 -20 -20 -20 -20 -20 -20 -20 -20 -20 -20 -20 -20 -20 -20
-20 -20 -20 -20 -20 -20 -20 -20 -20 -20 -20 -20 -20 -20 -20 -20 -20 -20 -20 -20 -20 -20 -20 -20 -20 -20 -20 -20 -20 -20 -20 -20 -20 -20 -20 -20 -20 -20 -20 -20 -20 -20 -20 -20 -20

GFSSW_prec_radar_111.txt.gz
Reflectivity
10 10 -5 -20 -2 -1 14 3 9 11 3 -20 -20 -20 -20 -20 -20 -20 -20 -20 -20 -20 -20 -20 -20 -20 -20 -20 -20 -20 -20 -8 -20 -20 -20 -20 -20 -20 -20 -20 -20 -20 -20 -20 -20
10 12 9 6 -20 12 -5 25 14 -7 -14 -20 -20 -20 -20 -20 -20 -20 -20 -20 -20 -20 -20 -20 -20 -20 -20 -20 -20 -20 -20 -20 -20 -20 -20 -20 -20 -20 -20 -20 -20 -20 -20 -20 -20
-20 -14 12 -2 6 11 -1 24 22 -11 -20 -20 -20 -20 -20 -20 -20 -20 -20 -20 -20 -20 -20 -20 -20 -20 -20 -20 -20 -20 -20 -20 -20 -20 -20 -20 -20 -20 -20 -20 -20 -20 -20 -20 -20
9 4 9 2 1 5 16 25 18 9 -16 -20 -20 -20 -20 -20 -20 -20 -20 -20 -20 -20 -20 -20 -20 -20 -20 -20 -20 -20 -20 -20 -20 -20 -20 -20 -20 -20 -20 -20 -20 -20 -20 -20 -20
19 4 8 9 8 7 11 25 11 -19 9 5 -20 -20 -20 -20 -20 -20 -20 -20 -20 -20 -20 -20 -20 -20 -20 -20 -20 -20 -20 -20 -20 -20 -20 -20 -20 -20 -20 -20 -20 -20 -20 -20 -20
-2 3 -0 11 7 9 9 22 28 4 9 -20 -20 -20 -20 -20 -20 -20 -20 -20 -20 -20 -20 -20 -20 -20 -20 -20 -20 -20 -20 -20 -20 -20 -20 -20 -20 -20 -20 -20 -20 -20 -20 -20 -20
18 5 -20 3 15 7 7 20 28 -18 2 -20 -20 -20 -20 -20 -20 -20 -20 -20 -20 -20 -20 -20 -20 -20 -20 -20 -20 -20 -20 -20 -20 -20 -20 -20 -20 -20 -20 -20 -20 -20 -20 -20 -20
19 -1 -20 -9 7 20 0 22 -1 -10 -8 6 -17 -20 -20 -20 -20 -20 -20 -20 -20 -20 -20 -20 -20 -20 -20 -20 -20 -20 -20 -20 -20 -20 -20 -20 -20 -20 -20 -20 -20 -20 -20 -20 -20
11 -20 -20 -20 18 21 29 2 25 8 -6 -20 -20 -20 -20 -20 -20 -20 -20 -20 -20 -20 -20 -20 -20 -20 -20 -20 -20 -20 -20 -20 -20 -20 -20 -20 -20 -20 -20 -20 -20 -20 -20 -20 -20
-0 -20 -20 -20 9 24 25 28 8 -2 -20 -15 -20 -20 -20 -20 -20 -20 -20 -20 -20 -20 -20 -20 -20 -20 -20 -13 -20 -20 -7 -18 -20 -20 -20 -20 -20 -20 -20 -20 -20 -20 -20 -20 -20
-20 -20 0 12 0 -10 24 16 16 -6 -16 -20 -20 -20 -20 -20 -20 -20 -20 -20 -20 -20 -20 -16 -12 -20 -20 -20 -20 -20 -20 -20 -20 -20 -20 -20 -20 -20 -20 -20 -20 -20 -20 -20 -20
-20 -20 -2 21 0 -20 12 -2 -3 -20 -20 -20 -20 -20 -20 -20 -20 -20 -20 -20 -20 -20 -20 -20 -12 -20 -20 -20 -12 -5 13 -10 -20 -20 -14 11 -20 -20 -20 -18 -20 -20 -20 -20 -20
-20 -20 23 32 -17 -6 2 34 -20 -20 -20 -20 -20 -20 -20 -20 -20 -20 -20 -20 -20 -1 -12 -19 -20 -20 5 -8 9 -15 -19 -20 -20 -20 -20 -20 -20 -20 -14 5 -11 -20 -20 -20 -20
-17 -20 20 16 32 -6 13 -13 -20 -20 -20 -20 -20 -20 -20 -20 -20 -20 -20 -20 -1 -18 5 -8 -20 -19 6 -14 10 -17 -20 -20 -11 -15 -20 -20 -13 -20 -20 -20 -20 -20 -20 -20 -20
-8 14 13 -20 -20 17 9 -20 -20 -20 -20 -20 -20 -20 -20 -20 -18 -14 -18 -19 -3 2 -20 -20 -20 0 -20 -20 -19 -20 -20 -20 21 21 2 -20 21 -19 -20 -12 -20 -20 -20 -20 -20
-5 13 -15 -20 -18 -16 -13 -20 -20 -20 -20 -20 -20 -20 -20 -20 -20 -20 1 -8 -17 -14 -7 -13 -19 -20 -20 -20 -17 4 2 -15 26 16 14 7 4 19 22 18 -20 -10 -20 -20 16
-10 -18 -18 -20 -20 -20 -20 -20 -20 -20 -20 -20 -20 -20 -20 -20 -20 -20 -8 -17 2 -20 -20 -17 -20 -20 -20 2 10 32 29 19 16 24 24 21 26 28 34 8 4 -17 -2 26 14
-20 -20 -20 -11 -20 -20 -20 -20 -20 -20 -20 -20 -20 -20 -20 -20 -20 -20 4 -16 -20 -20 -20 -20 -20 -20 8 23 27 33 28 23 22 5 17 19 6 16 24 1 -2 23 20 42 45
-20 -20 -20 -20 -20 -20 -20 -20 -20 -20 -20 -20 -20 -20 -20 -20 -20 -20 -20 -20 -20 -20 -20 -20 -20 -20 -1 18 21 13 21 20 20 12 -5 13 26 15 24 4 -0 39 42 25 28
-20 -19 -13 -20 -20 -20 -20 -20 -20 -20 -20 -20 -20 -20 -20 -20 -20 -20 -20 -20 -20 -20 -20 -20 -20 -8 10 2 8 14 16 -4 -7 -6 16 13 7 24 30 39 38 42 17 9 28
-20 -20 -20 -20 -20 -20 -20 -20 -20 -20 -20 -20 -20 -20 -20 -20 -20 -20 -20 -20 -20 -20 -20 -20 -20 -20 -20 -20 -20 -20 -17 -18 -11 9 15 19 24 39 42 29 13 31 27 30 23
-20 -20 -20 -20 -20 -20 -20 -20 -20 -20 -20 -20 -20 -20 -20 -20 -20 -20 -20 -20 -20 -20 -20 -20 -20 -20 -20 -20 -20 -20 -20 -20 -20 -13 -3 -5 22 25 26 30 25 16 14 8 6
-20 -14 -20 -20 -20 -20 -20 -20 -20 -20 -20 -20 -20 -20 -20 -20 -20 -20 -20 -20 -20 -20 -20 -20 -20 -20 -20 -20 -20 -20 -20 -20 -20 -20 -20 -20 -1 -15 -17 -8 -20 -19 -9 -10 -17
-20 -20 -20 -20 -20 -20 -20 -20 -20 -20 -20 -20 -20 -20 -20 -20 -20 -20 -20 -20 -20 -20 -20 -20 -20 -20 -20 -20 -20 -20 -20 -20 -20 -20 -20 -20 -20 -20 -20 -20 -20 -20 -20 -20 -20
-20 -20 -20 -20 -20 -20 -20 -20 -20 -20 -20 -20 -20 -20 -20 -20 -20 -20 -20 -20 -20 -20 -20 -20 -20 -20 -20 -20 -20 -20 -20 -20 -20 -20 -20 -20 -20 -20 -20 -20 -20 -20 -20 -20 -20
-20 -20 -20 -20 -20 -20 -20 -20 -20 -20 -20 -20 -20 -20 -20 -20 -20 -20 -20 -20 -20 -20 -20 -20 -20 -20 -20 -20 -20 -20 -20 -20 -20 -20 -20 -20 -20 -20 -20 -20 -20 -20 -20 -20 -20
-19 -20 -20 -20 -20 -20 -20 -20 -20 -20 -20 -20 -20 -20 -20 -20 -20 -20 -20 -20 -20 -20 -20 -20 -20 -20 -20 -20 -20 -20 -20 -20 -20 -20 -20 -20 -20 -20 -20 -20 -20 -20 -20 -20 -20

GFSSW_prec_radar_114.txt.gz
Reflectivity
-7 -4 -7 -20 7 -14 3 8 27 -15 -16 -12 -20 -20 -20 -20 -20 -20 -20 -20 -20 -20 -20 -20 -20 -20 -20 -20 -20 -20 -20 -20 -20 -20 -20 -20 -20 -20 -20 -20 -20 -20 -20 -20 -20
10 -14 1 -8 4 3 4 -18 27 11 -18 0 -20 -20 -20 -20 -20 -20 -20 -20 -20 -20 -20 -20 -20 -20 -20 -20 -20 -20 -20 -20 -20 -20 -20 -20 -20 -20 -20 -20 -20 -20 -20 -20 4
23 11 8 -11 -1 9 3 15 -0 -2 -20 -20 -20 -20 -20 -20 -20 -20 -20 -20 -20 -20 -20 -20 -20 -20 -20 -20 -20 -20 -20 -20 -20 -20 -20 -20 -20 -20 -20 -20 -20 -20 -20 -20 -20
10 -7 0 5 5 -20 -15 13 28 -8 6 -20 -20 -20 -20 -20 -20 -20 -20 -20 -20 -20 -20 -20 -20 -20 -20 -20 -20 -20 -20 -20 -20 -20 -20 -20 -20 -20 -20 -20 -20 -20 -20 -20 -20
21 9 6 6 12 -2 -19 6 15 16 -20 8 -5 -20 -20 -20 -20 -20 -9 -20 -20 -20 -20 -20 -20 -20 -20 -20 -20 -20 -20 -20 -20 -20 -20 -20 -20 -20 -20 -20 -20 -20 -20 -20 -20
27 17 -7 -11 9 -2 -18 8 26 3 -14 -7 -20 -20 -20 -20 -20 -20 -20 -20 -20 -20 -20 -20 -20 -20 -20 -20 -20 -20 -20 -20 -20 -20 -20 -20 -20 -20 -20 -20 -20 -20 -20 -20 -20
13 -19 5 -20 -5 -0 -4 27 25 6 -16 7 -14 -20 -20 -20 -20 -20 -20 -20 -20 -20 -20 -20 -20 -20 -20 -20 -20 -20 -20 -20 -20 -20 -20 -20 -20 -20 -20 -20 -20 -20 -20 -20 -20
18 -20 -20 -4 1 4 -5 10 22 37 16 6 -20 -20 -20 -20 -20 -20 -20 -20 -20 -20 -20 -20 -20 -20 -20 -20 -20 -20 -20 -20 -20 -20 -20 -20 -20 -20 -20 -20 -20 -20 -20 -20 -20
18 -20 -20 -16 16 16 20 16 4 6 -8 -20 -20 -20 -20 -20 -20 -20 -20 -20 -20 -20 -20 -20 -20 -20 -20 -20 -20 -20 -20 -20 -20 -20 -20 -20 -20 -20 -20 -20 -20 -20 -20 -20 -20
-20 -20 -20 3 21 15 -16 8 -18 -13 -14 -20 -20 -20 -20 -20 -20 -20 -20 -20 -20 -20 -20 -20 -20 -20 -20 -20 -20 -20 -20 -20 -20 -20 -20 -20 -20 -20 -20 -20 -20 -20 -20 -20 -20
-20 -10 -2 11 22 29 -1 10 -20 -20 -20 -20 -20 -20 -20 -20 -20 -20 -20 -20 -20 -20 -20 -20 -20 -20 -20 -20 -20 -20 -20 -20 -20 -20 -20 -20 -20 -20 -20 -20 -20 -20 -20 -20 -20
-20 6 14 5 25 38 9 1 -20 -20 -20 -20 -20 -20 -20 -20 -20 -20 -20 -20 -20 -20 -20 -20 -20 -20 -20 -20 -20 -20 7 -17 -20 -20 -20 -20 -20 -20 -20 -20 -20 -20 -20 -20 -20
-20 20 13 -3 5 5 -10 -20 -20 -20 -20 -20 -20 -20 -20 -20 -20 -20 -20 -20 -20 -12 -7 2 -20 -20 -13 -16 -10 -20 -20 -20 -20 -20 -20 -20 -20 -20 -20 -20 -20 -20 -20 -20 -20
-20 31 -9 -19 -20 -20 2 -20 -20 -20 -20 -20 -20 -20 -20 -20 -20 -20 -20 -20 -11 -1 7 -17 -20 -20 -20 -20 -18 -20 -20 -20 -20 11 -20 -20 -20 -20 -20 -20 -20 -20 -20 -20 -20
-20 -20 -20 -2 -20 -7 -19 -20 -20 -20 -20 -20 -20 -20 -20 -20 -20 -20 -20 -20 -4 -12 -8 -16 -20 4 -11 -20 -20 -20 -20 -20 -20 23 5 -20 -20 -20 -20 -20 -20 17 -20 -20 -20
-20 -20 -20 -20 -20 -20 -20 -20 -20 -20 -20 -20 -20 -20 -20 -20 -20 -13 -12 -5 -20 1 9 -19 -20 -20 -20 -20 -15 -10 2 -13 -2 -19 -3 -17 -20 13 19 -0 -20 -20 -20 -20 -20
-20 -20 -20 -20 -20 -20 -20 -20 -20 -20 -20 -20 -20 -20 -20 -20 -20 -8 -14 -15 -17 -20 -20 -20 -20 -20 -3 14 12 30 22 3 12 -1 -12 23 16 23 26 15 -18 -20 -20 7 -20
-20 -20 -20 -19 -20 -20 -20 -20 -20 -20 -20 -20 -20 -20 -20 -20 -20 -20 -17 -17 -20 -20 -20 -20 -20 -20 -20 6 25 23 33 19 2 2 12 24 17 22 30 21 6 13 29 28 38
-20 -20 -20 -20 -20 -20 -20 -20 -20 -20 -20 -20 -20 -20 -20 -20 -20 -6 -20 -20 -20 -20 -20 -20 -20 -20 -20 -9 -3 19 30 19 8 2 -16 18 20 27 22 8 11 28 28 40 40
-20 -20 -20 -20 -20 -20 -20 -20 -20 -20 -20 -20 -20 -20 -20 -20 -20 -20 -20 -20 -20 -20 -20 -20 -18 -20 -20 -20 -17 15 -2 3 2 -17 -18 -4 4 21 26 30 32 38 37 33 37
-20 -20 -20 -20 -20 -20 -20 -20 -20 -20 -20 -20 -20 -20 -20 -20 -20 -20 -20 -20 -20 -20 -20 -20 -20 -20 -20 -20 -20 -20 -20 -15 7 -18 -20 -11 16 36 37 40 40 34 30 36 33
-20 -20 -20 -20 -20 -20 -20 -20 -20 -20 -20 -20 -20 -20 -20 -20 -20 -20 -20 -20 -20 -20 -20 -20 -20 -20 -20 -20 -20 -20 -20 -20 -20 -5 -11 -14 8 22 34 33 27 17 -7 -8 6
-20 -20 -20 -20 -20 -20 -20 -20 -20 -20 -20 -20 -20 -20 -20 -20 -20 -20 -20 -20 -20 -20 -20 -20 -20 -20 -20 -20 -20 -20 -20 -20 -20 -18 2 -17 -12 -15 2 -4 0 -20 -16 -20 -20
-20 -20 -20 -20 -20 -20 -20 -20 -20 -20 -20 -20 -20 -20 -20 -20 -20 -20 -20 -20 -20 -20 -20 -20 -20 -20 -20 -20 -20 -20 -20 -20 -20 -20 -20 -20 -20 -20 -20 -20 -20 -20 -20 -20 -20
-20 -20 -20 -20 -20 -20 -20 -20 -20 -20 -20 -20 -20 -20 -20 -20 -20 -20 -20 -20 -20 -20 -20 -20 -20 -20 -20 -20 -20 -20 -20 -20 -20 -20 -20 -20 -20 -20 -20 -20 -20 -20 -20 -20 -20
-20 -20 -20 -20 -20 -20 -20 -20 -20 -20 -20 -20 -20 -20 -20 -20 -20 -20 -20 -20 -20 -20 -20 -20 -20 -20 -20 -20 -20 -20 -20 -20 -20 -20 -20 -20 -20 -20 -20 -20 -20 -20 -20 -20 -20
-20 -20 -20 -20 -20 -20 -20 -20 -20 -20 -20 -20 -20 -20 -20 -20 -20 -20 -20 -20 -20 -20 -20 -20 -20 -20 -20 -20 -20 -20 -20 -20 -20 -20 -20 -20 -20 -20 -20 -20 -20 -20 -20 -20 -20

GFSSW_prec_radar_117.txt.gz
Reflectivity
17 19 15 9 -10 6 20 -13 31 30 -12 -13 -20 -20 -20 -20 -20 -20 -20 -20 -20 -20 -20 -20 -20 -20 -20 -20 -20 -20 -20 -20 -20 -20 -20 -20 -20 -20 -20 -20 -20 -20 -20 -20 -20
27 21 19 12 10 0 -20 14 -12 36 10 -20 -20 -20 -20 -20 -20 -20 -20 -20 -20 -20 -20 -20 -20 -20 -20 -20 -20 -20 -20 -20 -20 -20 -20 -20 -20 -20 -20 -20 -20 -20 -20 -20 -20
27 22 23 18 22 15 4 -12 13 8 17 -20 -20 -20 -20 -20 -20 -20 -20 -20 -20 -20 -20 -20 -20 -20 -20 -20 -20 -20 -20 -20 -20 -20 -20 -20 -20 -20 -20 -20 -20 -20 -20 -20 -20
28 18 23 12 15 16 5 -2 1 24 2 -20 -20 -20 -20 -20 -20 -20 -20 -20 -20 -20 -20 -20 -20 -20 -20 -20 -20 -20 -20 -20 -20 -20 -20 -20 -20 -20 -20 -20 -20 -20 -20 -20 -20
26 23 22 -4 16 6 1 12 7 21 -20 -20 -20 -20 -20 -20 -20 -20 -20 -20 -20 -20 -20 -20 -20 -20 -20 -20 -20 -20 -20 -20 -20 -20 -20 -20 -20 -20 -20 -20 -20 -20 -20 -20 -20
38 12 19 7 -2 13 -2 10 14 35 -1 -20 -6 -20 -20 -20 -20 -20 -20 -20 -20 -20 -20 -20 -20 -20 -20 -20 -20 -20 -20 -20 -20 -20 -20 -20 -20 -20 -20 -20 -20 -20 -20 -20 -20
24 -7 -2 -20 -20 -11 8 21 30 -14 -6 -4 -20 -20 -20 -20 -20 -20 -20 -20 -20 -20 -20 -20 -20 -20 -20 -20 -20 -20 -20 -20 -20 -20 -20 -20 -20 -20 -20 -20 -20 -20 -20 -20 -20
0 -20 -14 -20 -3 -15 18 17 21 -17 0 -16 -20 -20 -20 -20 -20 -20 -20 -20 -20 -20 -20 -20 -20 -20 -20 -20 -20 -20 -20 -20 -20 -20 -20 -20 -20 -20 -20 -20 -20 -20 -20 -20 -20
-20 -20 -20 -20 -17 19 21 25 15 -2 25 -20 -20 -20 -20 -20 -20 -20 -20 -20 -20 -20 -20 -20 -20 -20 -20 -20 -20 -20 -20 -20 -20 -20 -20 -20 -20 -20 -20 -20 -20 -20 -20 -20 -20
-20 -20 -20 13 -7 32 11 24 18 19 -13 -20 -20 -20 -20 -20 -20 -20 -20 -20 -20 -20 -20 -20 -20 -20 -20 -20 -20 -20 -20 -20 -20 -20 -20 -20 -20 -20 -20 -20 -20 -20 -20 -20 -20
-20 -20 -20 8 33 19 16 -20 -11 -15 -20 -20 -20 -20 -20 -20 -20 -20 -20 -20 -20 -20 -20 -20 -20 -20 -20 -20 -20 -20 -20 -20 -20 -20 -20 -20 -20 -20 -20 -20 -20 -20 -20 -20 -20
32 -8 4 37 26 4 -0 -14 -7 -13 -20 -20 -20 -20 -20 -20 -20 -20 -20 -20 -20 -20 -20 -20 -20 -20 -20 -20 -20 -20 -20 -20 -20 -20 -20 -20 -20 -20 -20 -20 -20 -20 -20 -20 -20
27 6 -3 33 21 20 -13 -20 -20 -20 -20 -20 -20 -20 -20 -20 -20 -20 -20 -20 -20 -6 4 -7 -20 -20 -20 -20 -7 -19 -20 -20 -20 -20 -20 -20 -20 -20 -20 -20 -20 -20 -20 -20 -20
1 8 4 -16 11 -20 -20 -20 -20 -20 -20 -20 -20 -20 -20 -20 -20 -20 -20 -20 -20 -20 -20 -20 -20 -20 -20 -20 -20 -20 -20 -20 -20 2 -20 -20 -14 -20 -20 -20 -20 -20 -20 -20 -20
-20 -20 -20 -20 -20 -20 -20 -20 -20 -20 -20 -20 -20 -20 -20 -20 -20 -20 -20 -20 -20 -10 -20 -20 -20 -20 -20 -20 -20 -20 -20 -20 -10 -0 5 6 -20 -19 -20 -20 -20 -20 -20 24 26
-20 -20 -20 -20 -20 -20 -20 -20 -20 -20 -20 -20 -20 -20 -20 -20 -20 -20 -20 -20 -20 -9 -20 -20 -20 -8 -20 -20 -19 -20 -15 -14 -0 2 -9 -20 5 2 -18 4 -16 -20 -20 33 8
-20 -20 -20 -20 -20 -20 -20 -20 -20 -20 -20 -20 -20 -20 -20 -20 -20 -20 -20 -20 -18 -20 -20 -20 -20 -20 -20 -20 -20 -4 10 -20 -20 -20 -20 27 13 21 24 17 3 -20 7 -9 -20
-20 -20 -20 -20 -20 -20 -20 -20 -20 -20 -20 -20 -20 -20 -20 -20 -20 -20 -20 -20 -20 -12 -17 -20 -20 -20 -20 -20 -20 12 17 -1 -20 -1 -20 -16 -9 16 28 31 20 13 2 5 -19
-20 -20 -20 -20 -20 -20 -20 -20 -20 -20 -20 -20 -20 -20 -20 -20 -20 1 -20 -20 -20 -20 -20 -20 -20 -20 -20 -20 -14 4 23 20 -0 -4 -20 -3 -19 6 29 25 21 13 20 19 33
-20 -20 -20 -20 -20 -20 -20 -20 -20 -20 -20 -20 -20 -20 -20 -20 -20 -20 -20 -20 -20 -20 -20 -20 -20 -20 -20 -20 -20 -19 -7 7 -14 -17 -14 1 -9 13 19 29 33 36 36 33 35
-20 -20 -20 -20 -20 -20 -20 -20 -20 -20 -20 -20 -20 -20 -20 -20 -20 -20 -20 -20 -20 -20 -20 -20 -20 -20 -20 -20 -20 -20 -20 -20 -20 -6 -20 -20 2 19 33 33 36 36 36 36 27
-20 -20 -20 -20 -20 -20 -20 -20 -20 -20 -20 -20 -20 -20 -20 -20 -20 -20 -20 -20 -20 -20 -20 -20 -20 -20 -20 -20 -20 -20 -20 -20 -20 -20 -20 -20 7 27 17 19 19 10 7 6 -7
-20 -20 -20 -20 -20 -20 -20 -20 -20 -20 -20 -20 -20 -20 -20 -20 -20 -20 -20 -20 -20 -20 -20 -20 -20 -20 -20 -20 -20 -20 -20 -20 -20 -20 -20 -16 11 -20 -20 -20 -20 -20 -20 -20 -20
-20 -20 -20 -20 -20 -20 -20 -20 -20 -20 -20 -20 -20 -20 -20 -20 -20 -20 -20 -20 -20 -20 -20 -20 -20 -20 -20 -20 -20 -20 -20 -20 -20 -20 -20 -20 -20 -20 -20 -20 -20 -20 -20 -20 -20
-20 -20 -20 -20 -20 -20 -20 -20 -20 -20 -20 -20 -20 -20 -20 -20 -20 -20 -20 -20 -20 -20 -20 -20 -20 -20 -20 -20 -20 -20 -20 -20 -20 -20 -20 -20 -20 -20 -20 -20 -20 -20 -20 -20 -20
-20 -20 -20 -20 -20 -20 -20 -20 -20 -20 -20 -20 -20 -20 -20 -20 -20 -20 -20 -20 -20 -20 -20 -20 -20 -20 -20 -20 -20 -20 -20 -20 -20 -20 -20 -20 -20 -20 -20 -20 -20 -20 -20 -20 -20
-20 -20 -20 -20 -20 -20 -20 -20 -20 -20 -20 -20 -20 -20 -20 -20 -20 -20 -20 -20 -20 -20 -20 -20 -20 -20 -20 -20 -20 -20 -20 -20 -20 -20 -20 -20 -20 -20 -20 -20 -20 -20 -20 -20 -20